GFSSGP_850_thetae_000.txt.gz
Theta_e
323 323 323 322 327 329 328 330 331 331 330 326 325 325 328 327 329 332 325 325 323 322 323 325 338 335 335 336 334 332 331 330 327 321 329 327 327 328 328 326 328 327 327 320 324 326 327 328 329
324 322 321 324 324 326 326 330 333 331 325 323 324 325 326 329 326 329 329 325 322 321 322 333 338 338 337 336 330 329 329 328 326 320 329 330 330 329 328 325 328 323 321 319 316 320 326 327 327
324 322 322 323 325 324 327 329 325 323 324 324 327 323 325 328 325 328 324 324 322 322 322 326 340 335 333 334 333 331 328 326 322 320 327 330 331 330 329 328 327 321 319 318 315 313 320 321 325
324 323 320 323 319 321 325 325 320 324 326 324 325 328 324 325 326 325 324 323 322 323 324 322 333 331 335 335 333 330 329 327 320 317 326 330 331 331 330 328 326 321 319 318 317 314 313 316 317
324 322 326 326 326 321 321 321 320 324 325 326 325 330 328 325 325 325 324 322 323 324 326 323 331 334 333 328 329 328 328 329 326 319 325 327 330 332 331 329 327 325 323 317 318 321 321 317 314
325 323 326 328 327 325 324 321 321 324 324 325 326 325 328 326 326 325 324 322 324 325 326 329 332 335 328 331 333 332 331 331 329 320 322 328 330 333 331 330 328 328 325 321 323 325 325 326 325
326 326 327 326 326 326 324 320 322 323 325 326 323 326 326 327 323 326 324 322 323 325 327 328 335 332 333 335 334 333 333 332 330 327 318 321 329 330 328 329 328 327 326 325 318 324 325 326 325
325 325 326 325 326 327 324 320 324 324 325 323 322 327 327 327 322 324 326 324 322 325 326 329 335 338 338 337 329 332 332 330 326 321 315 316 318 320 321 320 322 319 321 318 314 314 315 318 323
323 326 327 326 326 325 321 324 326 324 324 323 323 323 323 322 322 321 325 326 324 323 326 327 331 337 337 337 335 325 329 324 321 317 313 313 322 323 316 316 315 315 316 316 317 317 318 318 318
326 328 326 325 325 325 324 325 326 326 325 325 323 323 322 321 323 322 327 330 327 324 324 327 328 330 335 331 332 333 333 330 331 322 322 320 322 322 315 315 316 317 318 319 320 321 320 320 324
326 328 326 325 324 323 325 326 326 326 328 325 324 323 323 322 322 323 324 325 329 326 324 324 326 329 329 329 332 334 329 327 323 320 321 321 320 320 320 321 322 323 324 324 325 325 326 325 325
327 326 325 325 325 326 326 326 327 327 327 326 326 325 321 322 322 322 322 323 325 326 327 326 324 325 327 328 326 327 326 324 324 322 321 321 322 323 324 325 327 327 328 329 329 329 329 329 328
327 326 326 325 326 325 326 327 328 327 326 327 326 323 321 321 321 321 321 323 325 327 328 328 327 325 325 326 326 326 326 326 326 326 327 327 328 328 329 330 330 330 331 332 331 331 330 330 330
326 326 326 326 326 326 327 327 325 326 326 324 323 322 321 321 320 321 321 324 326 326 326 326 326 326 326 325 326 326 327 328 327 327 328 328 329 330 331 331 331 331 331 331 331 331 330 330 329
327 328 328 327 327 327 326 327 327 325 320 319 320 319 319 319 319 320 321 323 324 323 322 321 321 322 325 326 326 327 327 328 328 328 329 329 330 330 331 331 331 331 330 330 330 329 328 329 329
330 329 331 327 327 327 324 328 326 320 321 320 319 320 320 319 320 320 321 321 321 320 320 319 320 322 323 326 327 327 328 328 329 329 329 330 330 330 330 330 330 330 329 327 326 326 326 326 326
331 332 330 328 327 327 325 327 323 320 320 321 321 320 320 320 319 319 319 319 319 320 319 320 322 322 325 327 328 328 328 328 329 329 329 329 329 329 328 327 325 322 321 322 320 322 321 320 323
331 330 329 329 326 323 324 326 324 322 320 321 320 320 320 319 319 319 319 319 320 320 319 318 318 321 324 327 328 328 328 328 328 328 328 327 325 321 318 316 315 313 311 311 311 314 315 316 318
326 328 329 327 324 323 326 327 323 324 321 321 320 320 320 319 318 319 319 320 319 319 318 319 320 322 323 325 326 327 327 326 325 324 321 318 314 312 311 311 310 309 308 308 308 309 310 311 312
327 327 327 326 322 323 326 328 327 325 321 320 320 320 319 318 317 316 317 317 317 317 316 316 316 318 320 324 326 326 325 323 320 315 312 312 311 310 308 308 309 309 308 307 306 305 306 308 308
327 327 326 327 324 323 323 328 326 318 316 315 318 319 319 318 317 316 316 316 316 316 315 315 315 315 315 318 320 319 318 315 313 312 311 309 308 309 309 309 308 306 304 302 300 300 301 304 304
328 326 326 327 329 332 323 331 326 324 319 317 318 318 318 317 317 316 316 315 315 315 315 315 314 314 313 314 314 313 313 312 310 308 308 309 310 310 309 307 304 301 298 296 295 295 296 301 302
327 325 327 327 328 328 328 327 327 319 319 318 319 318 318 317 317 316 315 315 314 314 314 314 314 313 313 312 311 310 310 309 308 309 310 310 310 307 305 302 299 297 295 294 294 294 295 298 299
323 324 324 323 325 331 328 326 327 323 321 319 319 318 318 317 316 315 315 315 314 314 315 314 314 313 312 311 310 309 309 309 309 310 310 308 306 305 303 301 297 294 294 294 294 294 294 294 294
325 327 332 333 331 331 320 322 325 322 318 319 319 318 318 317 316 315 315 315 315 315 315 314 314 314 312 311 310 309 309 310 311 309 308 307 306 303 301 296 294 294 294 294 294 293 293 294 293
325 328 329 331 331 328 318 325 323 318 317 316 318 319 318 317 316 315 315 315 315 315 315 314 313 313 311 310 310 309 310 310 309 309 307 305 301 297 294 293 293 293 293 293 293 292 292 293 293
324 327 323 323 321 325 325 324 323 318 318 316 317 318 318 317 316 315 315 315 315 314 314 313 313 311 310 309 309 309 310 309 309 306 304 301 297 294 293 292 292 292 292 292 292 292 292 291 292
325 324 326 324 329 328 326 325 325 322 320 317 317 317 318 317 315 314 314 314 314 314 313 312 311 310 308 308 308 309 309 308 305 303 300 297 294 292 292 292 292 292 291 291 291 291 290 290 290
324 326 326 324 323 327 327 326 321 321 319 319 317 317 318 316 315 314 313 313 314 313 312 311 310 308 307 307 307 308 307 305 303 300 297 295 293 292 291 291 291 291 291 291 291 290 289 289 290
323 324 324 327 324 321 323 324 318 317 316 315 317 317 317 316 315 313 313 313 313 312 311 310 309 307 306 306 307 306 305 302 300 298 296 292 291 291 290 290 290 291 291 291 290 289 288 289 289

GFSSGP_850_thetae_003.txt.gz
Theta_e
322 323 322 325 327 327 328 329 333 334 334 328 327 328 331 329 331 334 332 335 327 334 337 326 338 337 332 335 337 333 331 329 325 321 329 327 328 328 324 326 327 327 327 319 322 327 328 327 328
322 323 323 322 323 327 326 329 330 333 329 327 328 328 329 331 329 333 337 330 329 334 339 342 337 334 336 336 333 329 327 326 324 320 329 328 330 329 328 326 326 325 321 319 316 313 319 326 326
325 323 323 327 323 323 329 329 330 326 328 328 329 328 328 330 329 332 332 325 330 334 336 340 338 339 337 335 332 330 326 324 320 319 327 329 330 331 330 329 328 325 324 319 318 314 310 313 322
325 325 324 327 327 322 323 326 324 325 328 328 328 330 328 328 330 333 330 327 335 336 337 324 340 336 332 332 333 330 327 326 320 316 327 329 331 332 330 330 327 327 325 318 316 317 316 314 313
326 324 327 328 329 327 321 322 323 324 326 326 328 331 330 329 329 331 334 333 335 336 339 323 331 330 332 333 332 329 328 325 325 318 324 328 330 332 332 330 329 327 325 322 318 320 324 325 324
326 325 328 328 329 328 327 324 323 324 326 327 327 327 330 329 331 331 330 334 335 337 337 333 326 330 329 329 333 331 331 330 328 320 318 326 328 330 334 331 330 326 326 325 323 318 323 326 325
326 328 329 327 327 328 327 323 322 325 325 328 326 328 329 329 327 325 335 335 334 337 334 338 328 331 331 336 334 333 333 331 329 324 317 317 328 331 331 328 327 322 323 323 316 313 313 316 319
327 328 329 328 327 327 327 324 322 324 326 326 325 328 330 327 326 322 330 335 336 334 333 338 339 338 336 336 330 330 332 331 326 322 315 313 318 321 320 321 320 316 315 316 317 317 317 317 318
326 328 328 327 328 327 325 326 326 326 326 325 325 325 326 324 325 328 331 333 336 333 334 336 338 340 339 339 338 328 326 326 320 318 315 312 318 329 326 323 314 315 317 318 319 320 320 320 320
327 327 327 326 326 327 325 325 327 327 326 327 327 325 324 324 324 324 327 329 333 336 335 338 337 339 339 337 337 335 336 333 333 332 331 330 328 329 317 318 320 322 323 324 324 324 323 324 324
328 328 327 326 326 325 325 326 326 328 328 327 327 326 325 325 324 324 325 325 330 333 335 333 338 339 339 339 338 337 335 334 333 332 332 331 327 329 329 329 328 326 327 327 330 329 330 330 329
328 326 326 326 326 326 326 326 327 327 328 327 327 327 327 325 323 324 324 325 329 331 332 333 330 330 338 338 335 337 336 334 333 333 332 332 332 332 332 332 332 332 332 332 332 332 332 332 331
328 327 326 326 326 326 326 326 327 327 327 327 327 327 326 325 324 322 324 328 329 331 331 332 333 334 332 334 338 337 336 334 334 334 334 333 334 334 334 334 334 334 334 333 334 333 333 332 332
328 327 326 326 326 326 327 327 326 327 328 327 325 322 323 324 323 323 326 328 330 331 331 331 330 332 335 336 337 337 336 335 335 334 334 332 332 332 332 333 335 333 334 333 331 331 331 331 331
328 328 328 327 326 327 327 328 328 327 327 321 320 321 321 322 323 323 324 325 325 325 323 322 322 326 333 336 337 336 336 334 335 334 333 332 332 332 333 334 333 331 331 330 329 328 327 327 326
328 330 331 327 327 327 328 330 327 326 322 322 322 322 323 322 322 322 322 323 322 322 321 320 320 321 329 334 336 335 334 334 333 332 332 332 331 330 331 332 328 325 325 323 322 320 320 320 321
330 333 331 330 328 328 329 328 326 325 322 322 322 323 323 323 322 321 320 320 320 320 319 320 323 326 330 334 334 333 332 332 332 332 330 327 326 324 322 317 314 315 315 314 313 313 314 314 315
332 332 330 332 328 328 328 328 326 324 324 323 323 323 323 322 321 320 321 321 322 324 321 321 324 329 331 331 332 332 328 324 322 323 321 318 315 311 310 310 309 310 311 312 311 311 312 311 313
328 331 330 330 328 329 328 327 326 325 325 325 323 323 323 321 320 320 321 322 323 325 328 328 329 331 332 333 329 325 321 321 322 320 313 311 310 309 309 311 310 310 309 309 307 307 306 306 308
329 330 330 328 326 326 326 327 327 327 327 326 323 323 322 320 319 319 320 320 320 322 322 323 327 330 328 325 324 321 320 317 313 312 310 308 309 311 311 310 307 305 304 303 301 301 300 303 303
328 330 330 329 327 325 326 329 328 328 325 322 322 322 322 320 319 319 319 319 319 317 316 315 316 318 320 321 320 317 315 314 311 308 309 310 311 310 307 306 303 302 300 298 296 298 299 301 302
330 327 326 327 329 330 327 329 327 326 321 320 321 322 321 319 319 319 318 318 317 315 315 315 314 314 316 317 316 315 312 309 309 309 310 310 309 308 306 304 302 300 296 295 295 296 296 299 300
329 328 327 328 330 331 330 331 328 327 324 322 321 321 320 319 319 318 318 317 315 314 314 314 313 313 312 312 311 311 310 309 310 311 309 308 307 307 305 303 301 297 295 294 294 294 294 297 299
326 328 328 328 328 330 328 329 328 327 325 323 321 321 320 319 318 318 317 316 314 314 314 314 313 313 312 312 311 311 310 310 311 310 310 309 307 305 305 303 298 295 294 294 293 293 293 295 297
327 329 332 330 331 329 327 329 328 322 321 322 321 320 319 319 318 317 316 316 315 314 314 314 313 313 313 312 312 311 311 311 311 310 310 309 307 306 304 299 295 293 293 293 293 292 293 294 295
327 329 328 329 329 328 323 327 326 322 321 321 321 320 319 319 318 317 317 316 316 314 314 314 314 313 312 311 311 311 310 310 310 311 309 307 306 303 299 295 293 292 292 292 292 292 293 293 293
324 331 325 327 326 329 327 326 323 322 320 320 321 320 320 319 318 317 317 317 316 315 314 314 314 312 311 310 309 309 309 310 310 309 307 305 302 299 296 293 292 292 291 291 292 292 292 292 291
326 326 328 327 329 329 328 327 327 323 322 320 320 321 320 319 318 317 317 317 315 314 315 314 313 312 310 309 308 309 309 309 308 307 305 302 299 297 293 292 291 291 291 292 291 291 291 291 291
326 329 328 326 327 329 330 327 324 322 321 321 320 320 320 320 318 317 317 316 313 314 314 314 313 311 309 307 307 308 308 308 306 304 302 299 296 293 292 291 291 291 292 291 290 290 290 290 290
326 327 327 329 327 325 325 326 322 321 320 320 320 320 320 319 318 317 316 315 312 312 313 312 311 309 307 306 306 307 307 306 304 302 299 295 293 291 291 290 291 291 290 290 290 289 289 289 289

GFSSGP_850_thetae_006.txt.gz
Theta_e
321 322 323 324 328 327 329 326 331 333 333 328 328 328 327 329 330 335 335 334 335 332 326 326 337 337 335 334 337 333 331 329 324 321 325 326 328 329 326 325 325 327 326 319 317 328 328 328 327
322 323 323 324 325 327 325 326 331 329 327 328 328 329 329 328 332 335 338 330 335 333 331 328 337 335 335 336 334 329 326 326 323 321 329 328 328 328 328 327 326 324 322 318 316 316 315 319 324
326 325 324 328 327 322 324 327 325 324 326 329 328 329 328 329 331 335 336 327 333 334 339 339 335 336 337 334 333 331 326 324 320 318 328 329 329 330 329 328 327 324 323 319 315 315 312 311 316
326 324 325 325 327 327 322 323 322 322 325 328 328 328 329 329 333 334 332 332 336 335 334 328 333 338 336 335 333 331 327 326 320 316 328 328 329 332 331 329 328 327 323 320 316 316 317 318 317
326 326 326 327 328 328 324 321 323 323 324 327 327 328 330 330 331 334 333 335 336 337 335 326 323 330 331 332 333 330 327 327 325 317 328 327 329 331 333 330 329 329 320 318 317 312 314 319 322
326 326 327 327 326 327 326 326 323 323 324 326 327 326 329 329 329 329 333 334 336 337 334 325 321 323 327 328 330 330 328 330 328 319 321 326 328 329 332 334 330 328 318 315 315 314 313 314 316
327 327 328 327 326 326 328 324 321 321 325 325 326 326 329 328 325 331 333 335 336 337 334 329 325 327 322 326 326 333 333 331 329 322 317 315 325 329 332 330 324 315 314 315 316 317 317 317 317
327 327 327 327 328 328 326 326 324 322 324 326 326 325 326 326 324 324 329 336 334 338 337 336 329 330 326 326 325 326 328 330 326 319 314 313 318 320 318 318 316 315 315 317 318 319 319 319 320
328 329 329 328 327 327 326 325 325 326 326 326 326 325 326 325 324 325 328 330 336 334 338 339 338 339 336 335 337 335 322 320 317 316 316 313 321 326 324 322 316 318 319 320 321 322 322 323 323
328 329 328 325 325 325 326 325 325 326 327 326 326 327 326 325 324 324 325 328 331 334 334 338 339 340 339 339 337 332 328 328 326 326 327 326 328 328 327 321 323 323 324 324 325 326 327 328 327
328 330 327 325 325 325 326 326 325 326 326 327 326 327 328 327 327 324 324 325 326 331 335 336 337 339 339 339 336 337 335 333 334 333 332 331 327 328 328 328 329 327 328 329 329 330 330 331 331
329 328 327 326 326 326 326 325 325 325 326 327 327 327 327 327 327 324 324 324 326 331 334 336 336 336 339 339 337 337 336 335 334 333 332 331 332 332 333 332 331 332 332 332 332 332 332 332 332
327 327 326 326 326 326 326 326 326 326 326 327 327 328 327 327 327 324 323 323 327 330 332 333 333 335 337 339 339 337 336 335 334 333 334 333 333 334 333 333 333 333 332 332 331 330 329 329 329
327 327 328 327 326 326 326 326 326 326 326 327 327 327 325 323 325 324 323 326 330 331 332 332 332 335 336 337 338 338 336 335 334 334 334 334 332 332 333 333 332 331 331 330 328 327 326 325 325
326 328 328 327 327 326 326 326 326 327 326 326 327 322 321 322 323 323 324 326 328 328 329 329 331 332 335 336 337 337 336 335 335 334 334 333 333 332 333 331 330 327 326 324 324 317 316 315 316
327 327 329 328 327 326 326 327 326 327 327 326 322 321 322 323 322 323 323 324 324 324 323 322 321 326 333 336 337 336 335 334 333 332 331 331 330 330 330 326 319 317 315 313 312 312 311 311 310
326 329 330 329 327 326 326 327 326 326 325 323 322 322 324 323 322 322 321 322 322 324 322 322 323 325 333 335 335 334 332 332 331 330 329 326 323 322 315 310 310 311 311 311 310 309 308 307 306
325 329 327 330 328 327 327 327 326 327 325 322 323 322 323 323 322 321 321 322 325 325 324 325 327 331 334 335 333 332 331 330 328 324 321 315 311 309 310 311 311 310 308 308 306 305 304 302 303
322 325 330 327 327 328 327 327 327 325 325 324 324 323 323 322 321 321 322 325 328 329 328 327 329 330 331 332 332 329 324 323 321 316 311 309 310 311 311 310 308 307 305 304 301 300 299 299 298
321 325 328 327 327 327 328 328 326 324 324 325 325 323 323 321 320 321 322 323 326 328 329 331 332 332 332 329 325 322 321 316 312 309 309 310 311 310 309 308 307 305 304 302 299 298 296 297 297
321 324 328 329 327 326 325 326 324 323 324 326 326 323 322 320 320 320 321 321 323 322 322 325 327 326 326 325 323 318 313 311 309 310 310 311 310 309 308 307 305 303 301 299 296 296 295 296 297
320 321 325 327 330 331 324 326 324 324 325 322 322 322 321 320 320 320 320 319 318 318 317 318 319 319 318 317 316 313 311 310 310 311 311 310 310 309 308 307 304 302 299 297 296 296 295 294 294
320 320 325 326 329 329 327 326 324 324 326 318 317 322 321 320 319 319 319 318 317 316 316 315 315 316 317 316 313 311 310 311 311 310 310 309 309 310 308 307 305 303 300 297 295 295 294 294 294
318 320 322 329 327 333 330 328 326 324 322 319 318 322 320 319 319 318 318 317 316 314 314 313 313 313 312 312 311 311 311 311 310 310 310 309 309 308 308 306 304 301 298 295 294 294 293 293 293
320 322 326 331 328 329 325 329 325 320 320 320 319 320 320 319 319 318 317 316 314 314 313 312 312 312 312 312 311 311 311 310 310 310 310 309 308 308 307 305 302 299 296 294 293 293 292 293 292
321 322 326 333 332 326 324 327 325 320 319 320 320 320 319 319 318 317 317 315 314 313 313 313 313 313 312 311 311 311 310 310 310 310 309 309 308 306 305 302 298 295 293 292 292 292 292 292 291
321 319 317 329 323 325 324 324 319 318 318 317 319 319 319 319 318 317 316 316 315 314 313 313 313 313 312 311 310 310 310 310 310 309 308 307 306 304 301 297 295 293 292 291 292 292 292 291 291
321 321 324 329 327 330 325 324 322 319 318 317 319 319 319 319 318 317 317 317 316 314 313 313 313 312 311 310 310 309 309 309 309 308 307 306 303 300 296 294 293 292 291 291 292 292 291 290 290
325 326 328 329 326 327 326 325 320 319 318 317 318 319 319 319 318 317 317 317 315 314 313 313 313 312 311 309 309 308 308 308 307 306 305 303 300 297 294 292 291 291 291 292 292 291 290 289 289
325 327 327 328 327 324 324 322 317 317 318 317 317 320 320 319 318 317 317 316 315 313 312 312 312 311 310 309 308 307 307 306 305 304 302 300 297 293 292 291 290 291 291 292 291 290 289 288 288

GFSSGP_850_thetae_009.txt.gz
Theta_e
321 321 324 324 320 321 325 325 328 325 326 327 328 327 325 326 328 334 336 336 330 328 322 326 335 335 334 335 336 335 331 326 322 319 326 327 328 328 326 325 326 323 320 317 315 326 326 327 328
321 322 325 324 319 320 322 322 323 321 324 328 328 328 327 327 333 336 336 331 332 329 324 327 336 338 335 334 335 329 323 322 320 321 328 327 327 328 327 327 325 322 320 316 314 314 316 315 318
322 324 325 321 322 319 320 323 321 322 325 327 327 328 328 329 336 336 336 331 332 329 330 327 331 333 336 335 333 329 324 322 318 315 327 329 328 329 328 328 327 327 319 316 313 314 313 311 310
325 325 324 321 323 323 322 318 321 321 324 326 327 326 330 329 333 334 329 332 332 329 329 327 330 333 333 332 331 328 324 321 315 314 326 328 329 331 331 328 326 327 321 312 311 311 311 312 315
326 326 322 323 323 323 321 322 322 321 322 325 326 325 329 331 331 332 332 336 335 333 334 327 324 328 333 332 330 328 325 322 318 316 325 327 329 330 331 329 329 328 316 313 313 313 313 313 314
326 324 324 324 323 323 322 325 322 321 321 323 326 325 328 332 330 334 334 336 336 335 334 327 322 325 329 329 328 326 326 327 323 316 321 324 327 330 330 332 330 325 314 315 315 316 316 316 316
326 323 324 324 324 324 325 323 320 320 322 324 325 324 327 327 325 331 333 335 336 336 333 329 324 323 324 323 326 326 329 327 323 320 315 314 323 328 330 330 319 315 315 316 317 318 318 318 319
328 322 326 323 325 325 325 325 323 322 322 325 325 323 325 326 324 325 331 334 335 336 333 333 329 327 324 324 324 324 325 325 323 317 313 313 319 320 316 316 316 316 317 318 320 320 322 323 324
329 325 328 326 325 325 325 324 324 325 325 326 325 325 325 325 324 324 326 329 332 335 333 333 334 334 331 332 334 333 326 321 319 315 316 314 321 325 319 319 320 321 323 324 326 327 328 328 329
326 326 328 324 323 323 324 323 324 325 325 326 327 326 326 324 324 324 324 325 328 331 331 335 336 335 334 335 336 333 325 328 325 323 323 324 324 325 324 325 327 327 328 328 328 329 330 331 331
327 328 326 325 326 325 323 324 325 324 324 325 326 327 327 326 325 326 324 324 325 326 332 331 338 338 337 336 335 332 332 331 330 331 328 329 328 327 328 329 330 331 330 331 331 331 331 330 330
327 327 327 327 327 326 324 325 324 325 324 325 326 326 327 327 326 327 325 324 325 327 330 333 334 339 339 339 337 335 336 333 332 332 330 331 331 332 331 333 333 332 332 330 330 329 328 328 328
324 325 327 327 327 326 325 324 324 325 325 325 325 326 327 327 327 327 326 323 323 327 330 333 334 337 339 339 338 337 336 335 333 333 333 332 332 332 332 332 331 330 330 329 329 328 327 325 322
322 323 325 325 326 326 325 324 324 325 326 326 326 326 326 327 324 325 325 323 323 329 330 332 333 334 337 339 339 337 336 334 333 333 333 333 332 331 332 331 330 329 328 328 326 324 319 313 313
322 325 324 326 326 326 326 325 323 325 325 325 326 326 326 321 321 323 324 323 326 330 331 332 331 332 335 337 338 337 336 334 333 332 331 331 330 331 331 329 329 326 324 322 316 312 312 312 311
322 323 327 325 325 326 326 328 324 325 325 325 326 326 322 321 321 322 323 323 326 329 331 332 332 332 334 336 338 336 334 334 332 332 330 330 330 330 327 327 320 313 311 311 312 311 309 307 306
320 323 325 326 324 325 326 327 323 325 325 325 325 325 321 322 323 321 322 323 324 324 324 324 325 331 333 336 336 334 333 332 330 329 329 328 327 327 320 310 311 311 310 309 308 306 304 303 303
321 322 321 325 324 325 327 327 322 326 325 325 324 321 321 323 322 322 321 321 322 323 323 323 322 329 334 336 334 332 331 329 327 328 325 316 311 310 311 311 310 308 307 306 305 304 303 301 300
316 318 323 323 323 326 326 327 325 324 324 322 321 320 322 322 321 321 321 324 325 325 326 327 328 332 335 335 333 331 330 329 327 319 311 310 311 311 310 309 307 306 305 304 302 302 301 300 299
317 319 320 319 322 325 326 326 325 323 324 324 324 319 321 321 320 321 325 328 328 329 329 330 332 333 334 334 332 331 328 321 314 310 310 311 310 309 308 309 308 307 304 303 301 299 298 298 296
317 319 319 320 322 324 325 328 326 323 323 325 325 323 322 322 320 322 324 328 330 330 331 331 331 331 331 331 327 323 318 312 310 310 311 310 309 309 310 309 309 307 304 301 299 297 296 296 297
316 316 318 320 322 327 325 332 327 325 321 320 321 319 320 320 320 321 323 325 328 330 331 331 331 331 328 324 322 317 313 311 310 311 310 310 310 311 310 309 308 305 302 300 298 296 295 295 295
315 314 316 319 323 324 325 329 325 323 323 321 315 318 319 320 320 320 321 323 321 322 327 325 324 323 320 316 313 311 310 311 311 310 310 310 310 310 309 308 306 304 301 299 297 296 295 294 293
314 316 317 320 321 326 324 325 324 324 322 322 313 317 319 319 320 320 319 319 319 319 319 318 317 317 317 315 312 310 311 311 310 310 310 309 308 308 307 306 304 301 299 297 296 295 294 293 293
313 315 320 321 323 324 325 324 324 320 321 322 315 317 318 319 319 319 318 318 317 316 316 316 316 315 314 312 311 311 311 310 310 309 309 308 308 308 306 305 302 299 297 295 295 294 292 292 293
314 314 318 320 322 322 326 327 328 321 319 320 318 318 318 318 318 318 318 316 315 314 313 313 312 312 311 311 311 310 310 309 309 309 308 308 308 307 305 303 300 297 295 294 292 292 292 292 292
313 316 316 321 324 327 327 325 320 316 315 316 317 317 317 317 318 318 317 315 314 313 312 312 312 312 311 311 310 310 309 309 309 309 308 307 306 305 303 301 297 295 293 291 291 292 292 292 291
315 316 319 319 327 331 328 322 322 316 317 317 317 316 316 317 318 317 316 315 313 313 313 312 312 312 311 310 310 309 309 308 308 308 307 306 305 304 301 298 295 292 291 291 291 292 291 290 290
315 318 320 320 320 329 330 325 316 316 316 317 317 317 317 317 317 317 316 315 314 313 313 312 311 311 310 309 309 308 308 308 307 307 306 305 304 301 298 294 292 291 291 291 291 291 290 289 289
317 320 319 319 322 323 320 319 315 314 314 317 317 317 317 317 317 316 316 316 315 313 313 312 311 310 309 308 307 307 307 306 306 306 305 304 302 297 294 291 290 290 291 291 291 290 289 288 288

GFSSGP_850_thetae_012.txt.gz
Theta_e
322 321 322 323 319 319 323 324 321 321 324 326 326 326 326 325 327 330 333 335 330 327 322 325 333 339 336 336 335 334 332 324 320 316 323 328 328 327 325 326 327 319 316 313 314 322 322 327 327
322 321 323 323 318 319 320 320 323 321 322 325 326 326 325 330 334 333 334 331 331 325 322 326 332 334 334 335 335 334 323 320 319 325 326 327 325 327 327 326 324 322 315 313 312 312 313 313 316
322 322 324 319 319 319 319 320 320 321 325 325 326 327 328 331 336 335 336 329 330 328 324 325 332 336 334 331 331 328 322 319 317 318 328 328 328 328 327 327 324 326 319 313 312 313 313 312 311
323 324 322 320 322 321 322 321 318 321 322 326 326 325 329 330 333 334 329 329 330 330 328 328 329 333 334 334 331 328 321 319 315 316 327 328 329 330 330 327 325 327 322 313 313 312 312 314 316
325 325 322 322 321 320 320 322 319 321 321 324 325 325 329 331 331 331 327 331 332 331 331 327 330 331 330 331 329 328 323 320 314 317 324 326 329 330 331 328 328 328 315 315 315 316 316 316 316
326 322 322 323 321 320 319 324 321 320 320 323 324 325 329 332 333 332 333 334 335 333 334 334 326 328 329 330 330 326 325 325 317 316 322 323 327 330 330 332 331 321 315 316 317 317 318 318 318
325 321 323 323 323 323 322 325 318 319 322 324 325 324 327 328 328 333 334 335 335 335 335 333 325 325 327 329 328 326 327 327 321 319 315 316 322 327 329 329 318 316 317 317 318 319 321 322 325
327 321 324 322 324 324 323 324 323 321 320 324 324 324 326 328 326 331 332 334 335 335 335 332 325 325 323 324 324 326 327 326 321 317 313 313 319 323 318 316 318 319 320 322 325 326 328 328 329
328 325 326 325 324 324 323 323 325 324 323 325 325 325 325 325 327 331 332 333 335 335 334 332 330 327 326 327 329 331 328 322 320 316 315 314 317 320 318 320 322 325 326 327 327 328 328 330 330
325 326 326 323 323 323 323 323 323 323 324 325 326 326 326 325 325 326 327 327 328 330 330 331 331 331 331 332 333 333 329 328 321 318 321 322 322 323 324 325 328 329 329 329 330 330 330 329 329
326 328 324 325 325 325 323 322 325 323 323 324 325 326 326 323 324 326 324 324 324 325 330 332 330 333 333 333 334 332 330 329 329 328 327 327 326 327 328 330 331 331 330 331 331 329 329 328 328
322 325 326 326 326 326 324 325 324 323 323 325 325 325 325 326 325 325 326 325 323 325 327 331 332 333 335 336 336 334 334 332 329 330 329 329 329 331 331 330 331 330 330 330 329 328 328 327 327
320 321 324 326 327 326 326 324 323 324 325 325 325 325 325 325 326 327 326 326 324 324 325 330 333 334 335 337 337 335 335 334 332 332 332 331 331 331 331 331 331 330 330 327 327 328 327 324 317
319 319 321 323 324 325 326 325 324 324 324 325 325 325 324 325 326 326 326 326 324 323 325 331 333 336 338 339 339 337 335 334 333 332 332 331 332 331 331 330 329 328 327 326 326 322 315 312 312
320 321 321 321 323 324 325 325 326 326 325 325 325 325 324 325 325 325 323 325 325 324 324 331 334 335 337 339 339 337 335 333 332 331 331 331 330 330 330 329 327 326 326 321 315 311 311 311 309
319 319 323 322 323 324 325 328 324 326 325 324 324 325 325 325 325 324 322 323 323 326 326 332 334 333 336 338 338 335 334 332 332 331 331 330 329 329 326 326 326 316 311 311 311 309 307 306 305
318 320 319 322 321 324 324 326 323 325 324 323 325 325 325 324 323 322 322 323 324 328 330 331 331 332 334 337 338 334 333 332 331 331 329 328 329 328 327 316 311 310 309 308 306 305 304 303 303
320 319 318 318 322 323 325 325 323 324 324 323 324 325 324 322 321 321 321 321 322 324 327 329 330 332 334 336 336 333 332 332 330 329 327 328 323 312 311 310 308 307 306 305 304 303 301 300 300
316 316 316 316 317 319 321 324 324 324 323 321 324 324 323 320 322 322 322 321 321 322 322 323 323 329 332 336 335 331 331 330 328 327 324 311 310 310 309 308 308 308 307 305 303 301 301 299 299
314 315 317 316 316 318 321 323 324 323 324 323 322 323 322 320 321 322 321 321 322 323 325 325 323 330 334 335 334 331 329 328 327 318 310 310 310 309 309 309 310 308 306 303 301 300 299 297 296
314 315 314 315 316 316 318 319 321 323 323 324 323 323 323 321 322 321 322 324 326 326 328 326 328 331 334 335 333 331 329 326 315 310 310 310 309 310 310 310 309 307 304 302 300 298 297 296 295
315 314 316 317 318 319 320 323 322 323 324 321 322 321 322 321 321 322 325 327 327 328 330 331 332 334 334 334 332 331 327 317 310 310 310 309 310 310 310 309 308 306 302 299 297 295 295 295 294
314 313 314 315 317 317 318 321 321 322 324 324 322 319 321 321 321 322 325 327 329 329 330 331 331 331 331 329 325 322 314 310 311 310 309 309 310 310 309 308 307 303 300 297 295 294 294 293 293
312 314 315 315 317 319 317 321 320 322 322 322 319 318 318 320 320 322 325 327 329 330 330 331 331 330 325 321 316 312 311 311 310 310 310 310 310 309 308 306 304 301 298 296 295 293 292 292 292
311 312 314 315 316 318 315 320 319 318 319 320 321 316 317 319 320 322 323 324 327 328 328 327 327 323 317 314 311 310 311 311 310 310 309 309 309 307 306 305 302 299 296 294 293 292 292 292 292
313 313 313 313 314 315 321 323 321 319 319 319 320 319 317 318 319 321 321 322 320 322 322 320 318 316 316 314 310 310 310 310 309 309 309 308 307 306 305 303 299 297 295 293 292 291 292 292 292
312 313 311 314 316 319 322 324 322 322 319 315 316 316 316 317 318 319 319 319 319 318 318 317 317 316 315 312 310 310 310 309 309 309 308 307 306 305 304 302 298 296 293 291 291 291 292 291 291
311 311 313 313 315 318 323 325 327 323 319 315 315 315 316 316 317 318 318 318 317 316 315 315 314 312 311 310 310 310 309 308 308 307 307 306 305 304 303 299 296 293 291 291 291 292 291 290 290
312 312 313 312 315 323 325 325 321 323 318 317 316 316 315 316 317 318 317 316 315 313 312 311 311 311 310 309 309 309 308 308 307 306 305 305 304 303 300 296 293 291 291 292 291 290 289 289 288
311 312 312 315 313 318 320 319 314 320 316 317 316 315 315 315 317 317 317 315 313 312 311 311 310 310 309 308 308 307 307 306 305 304 304 304 303 300 296 293 291 291 292 291 290 289 289 288 287

GFSSGP_850_thetae_015.txt.gz
Theta_e
322 322 321 323 317 318 322 323 320 321 324 324 325 324 324 326 326 328 333 333 328 328 322 325 340 341 338 336 335 333 333 328 320 318 332 329 328 327 324 327 321 316 315 313 317 322 322 327 327
323 322 322 323 318 317 318 319 322 321 322 324 325 326 325 331 333 332 332 329 327 324 321 325 333 340 339 335 335 334 331 321 318 318 326 326 327 328 327 323 323 322 315 313 313 313 315 315 318
323 322 323 318 316 319 317 319 320 320 321 324 325 327 327 333 334 330 332 328 327 324 323 325 329 336 334 334 334 331 324 320 318 326 327 328 328 327 327 324 324 325 317 312 312 312 313 313 312
324 324 321 320 321 319 317 320 319 317 321 324 325 325 329 330 334 334 331 328 327 326 324 324 329 332 332 332 328 328 323 320 316 319 327 329 329 329 329 328 327 325 316 314 314 314 314 315 315
324 324 321 321 321 319 318 320 321 318 320 322 323 325 329 330 331 333 328 328 328 328 326 325 328 331 329 331 329 328 323 317 314 316 325 328 330 330 332 329 329 327 315 315 316 317 317 317 317
326 321 321 322 320 319 318 321 321 318 320 323 323 326 328 331 330 329 328 331 333 331 329 327 326 329 330 329 330 329 324 320 314 317 322 325 328 330 330 330 331 322 316 317 317 318 320 321 323
323 319 321 321 321 321 321 323 322 319 319 323 324 325 328 330 328 331 331 333 334 334 333 332 328 327 330 329 329 328 324 324 318 316 317 320 324 328 329 329 319 317 317 319 322 323 326 327 327
326 320 323 321 323 323 322 324 323 318 319 323 324 324 326 327 327 333 334 333 334 335 335 334 330 325 327 326 326 326 326 326 320 318 315 314 321 326 321 316 318 320 323 325 326 327 328 329 330
326 324 324 323 322 323 322 323 323 323 322 323 324 325 325 325 326 332 333 334 335 335 335 335 332 325 326 325 325 327 326 325 322 317 315 314 319 318 319 320 324 326 328 328 329 329 330 329 329
325 325 324 322 321 321 322 322 322 323 323 324 325 325 325 325 325 327 330 331 332 333 333 334 332 329 327 326 327 332 331 325 322 318 316 320 322 323 323 325 327 329 328 330 331 330 329 328 327
324 326 323 324 324 325 322 322 324 323 320 323 325 325 326 325 325 326 326 325 324 325 330 331 332 331 331 329 332 334 331 329 325 322 325 325 325 325 327 329 330 329 330 330 329 328 327 327 326
321 322 324 325 326 325 324 324 323 323 322 324 324 324 325 325 324 325 325 325 326 324 326 329 332 333 333 334 334 334 332 330 329 330 329 329 329 330 330 328 329 329 329 328 327 326 326 327 327
319 320 322 322 324 326 326 325 324 324 325 324 325 324 325 324 325 325 325 326 325 325 325 327 331 333 334 336 336 336 334 333 331 331 331 330 330 330 328 329 329 328 327 327 326 325 326 325 318
317 317 318 319 321 322 323 324 324 325 325 325 325 324 325 325 324 324 325 326 326 326 324 324 329 333 335 336 338 337 335 334 333 332 331 330 330 330 329 329 327 327 326 325 326 325 317 312 311
319 318 318 319 320 321 323 324 324 324 325 325 326 325 324 325 324 324 325 325 325 326 325 323 326 333 335 337 338 337 336 334 332 330 330 329 330 329 329 328 328 326 326 325 315 311 311 309 307
319 317 320 318 319 321 323 323 323 324 325 324 325 325 324 325 325 324 325 325 325 324 325 324 327 333 336 338 338 336 335 332 331 330 330 330 329 328 327 327 326 324 312 310 309 308 306 305 304
318 318 318 318 319 322 323 324 321 322 323 322 324 324 324 325 325 324 325 325 324 323 324 324 330 334 337 338 337 336 334 333 331 331 331 329 327 326 325 324 314 310 308 307 306 305 304 303 303
316 318 317 317 320 319 321 321 320 322 323 322 322 323 324 325 325 325 324 323 323 324 326 328 333 336 337 338 338 335 334 332 332 331 329 327 326 326 317 310 309 308 308 307 306 304 302 301 301
314 316 316 314 315 315 317 318 318 320 321 322 322 323 323 325 325 323 322 321 321 323 327 331 335 335 334 336 337 334 333 332 331 329 328 326 319 310 309 309 309 310 309 307 304 302 301 299 299
312 314 315 313 314 315 315 316 315 316 317 321 322 322 324 324 324 322 321 321 321 321 322 326 329 331 333 335 336 333 331 330 329 328 326 311 310 309 309 310 310 310 308 304 302 300 298 297 296
312 312 313 313 312 312 313 313 311 313 316 319 322 323 323 324 324 322 321 321 320 320 321 322 323 325 333 336 335 333 330 328 327 325 312 310 309 309 310 310 310 309 306 302 300 298 296 295 294
312 312 313 314 314 314 314 313 312 314 315 317 320 322 323 323 323 322 321 321 321 322 323 325 324 326 334 335 333 331 330 328 326 315 310 310 309 310 310 310 309 307 304 301 299 297 295 294 293
312 312 312 314 315 314 315 316 313 316 318 319 319 321 323 323 324 322 321 321 322 325 325 327 326 332 335 334 331 330 329 328 319 310 310 309 310 310 310 308 307 306 303 300 297 295 294 293 292
312 312 313 314 314 315 313 314 312 312 317 318 317 321 322 322 322 321 321 323 325 327 328 329 331 333 334 333 332 331 330 322 311 310 309 310 310 309 308 307 306 305 301 298 296 294 292 292 292
310 312 315 316 317 315 312 314 314 312 313 316 317 320 322 321 320 321 322 325 327 327 329 331 332 332 331 330 327 325 320 311 311 310 310 310 309 308 307 306 305 302 299 296 294 292 291 291 292
311 311 313 314 313 311 312 316 315 314 313 314 315 318 319 318 319 320 322 325 327 328 330 330 330 330 329 323 319 313 310 310 309 309 309 309 308 307 306 305 303 299 296 293 292 291 291 292 291
313 314 310 312 312 317 316 316 319 318 317 316 315 317 317 316 318 320 323 326 327 328 329 330 330 329 324 317 312 310 309 310 309 309 308 307 306 306 305 303 300 296 293 292 291 292 292 291 290
310 310 313 313 314 314 312 318 318 319 317 316 314 313 316 316 317 319 323 325 327 327 327 327 326 323 316 313 311 309 309 308 308 308 307 306 306 304 303 301 297 294 292 291 292 292 291 290 290
311 311 312 311 310 310 313 312 317 317 316 315 313 314 315 316 316 317 321 322 323 324 323 321 319 317 315 314 310 309 308 307 307 306 306 305 304 303 301 298 295 292 291 292 292 291 290 290 289
310 310 310 314 308 309 312 315 313 314 313 315 313 315 315 315 315 317 320 320 319 318 317 317 316 315 313 310 309 308 307 306 306 305 305 304 303 301 299 295 292 291 292 292 291 290 289 289 288

GFSSGP_850_thetae_018.txt.gz
Theta_e
322 322 322 322 319 315 320 321 319 321 323 323 322 323 324 325 327 328 331 330 327 325 325 338 340 339 338 335 334 332 332 330 319 331 331 329 328 327 326 325 318 316 314 313 318 322 321 328 328
321 322 321 322 319 317 316 317 321 320 321 322 324 326 325 330 332 332 332 328 326 323 323 328 340 340 338 336 334 333 332 323 317 331 331 328 328 327 326 322 323 320 313 312 313 314 316 317 319
321 322 322 317 315 319 317 317 319 319 320 322 324 326 327 332 333 330 329 327 325 322 323 326 342 341 335 333 334 332 325 320 317 320 328 325 326 325 325 325 325 320 313 312 312 312 312 312 312
323 323 320 319 320 318 315 318 319 318 322 322 325 325 328 331 333 333 332 328 326 322 323 325 330 334 332 331 329 327 323 320 317 322 328 328 329 330 330 328 327 322 314 314 315 315 315 316 316
323 323 320 320 320 318 317 319 320 319 319 320 322 325 328 329 331 332 330 328 328 324 324 324 327 330 331 331 327 326 322 316 314 319 327 329 330 330 329 329 328 325 316 317 317 318 318 319 320
324 320 320 320 319 319 317 320 321 318 319 320 322 326 327 330 329 330 328 329 329 328 326 325 326 329 329 330 329 327 323 318 314 317 324 329 329 330 330 329 329 322 317 318 319 320 323 325 326
322 318 320 320 319 320 319 321 320 321 318 320 323 324 326 330 329 329 329 331 333 333 331 328 326 326 329 330 330 329 325 321 316 318 321 323 328 329 330 329 323 317 319 322 325 327 328 328 329
326 318 322 319 321 321 321 323 323 318 318 320 323 323 325 327 326 329 332 333 334 335 334 333 331 326 326 328 330 329 326 324 320 318 317 318 323 327 327 319 319 322 325 326 328 328 328 328 329
325 323 323 321 321 321 321 321 322 323 322 323 323 324 325 325 326 326 330 332 333 334 335 335 334 330 326 327 327 328 327 326 324 320 316 315 319 321 319 321 325 326 327 328 330 329 329 329 328
324 323 322 320 319 321 320 321 321 322 322 323 324 324 325 325 325 325 326 328 330 331 332 334 335 332 327 328 327 327 328 326 323 319 316 315 319 321 324 325 327 329 328 330 330 329 327 327 327
323 324 322 323 324 324 322 322 323 322 322 323 323 323 324 325 325 325 326 327 326 327 329 331 332 333 330 328 327 328 332 329 325 320 320 322 322 324 326 329 330 329 329 328 328 327 325 325 325
320 320 323 324 324 325 324 324 323 322 322 323 324 324 324 324 326 325 325 325 325 326 327 330 331 333 333 331 329 332 333 329 326 323 326 326 326 329 330 328 327 328 328 327 326 325 325 325 326
318 318 320 321 321 321 322 323 324 324 325 325 325 325 324 324 324 324 324 325 325 325 325 326 328 331 333 333 334 335 334 332 330 330 330 329 330 330 328 327 328 327 325 325 325 325 325 324 317
316 317 317 318 319 320 320 321 322 322 324 324 324 324 324 324 324 324 324 324 324 325 326 326 325 328 333 334 336 336 335 333 331 331 331 329 329 328 327 328 327 325 325 324 325 324 314 311 310
318 318 316 317 318 318 320 320 321 321 321 322 322 323 324 323 324 324 324 324 324 325 325 326 326 324 331 334 337 337 336 334 333 331 330 329 328 328 328 328 326 325 325 324 313 310 309 307 306
318 318 318 315 317 318 320 320 320 320 321 321 321 322 323 322 324 324 324 324 324 325 325 324 325 323 329 335 337 337 335 333 332 330 329 329 329 328 327 326 325 325 315 309 308 307 307 305 304
317 317 318 317 316 318 320 321 321 321 321 320 322 322 323 324 324 325 324 324 324 325 325 324 324 324 330 336 338 337 335 333 332 330 330 331 329 327 326 324 322 310 308 308 308 307 305 304 303
315 317 317 317 315 315 316 318 317 318 318 318 320 321 322 323 323 324 324 324 324 324 324 322 323 325 333 337 338 336 335 334 332 331 331 330 327 325 323 319 309 308 309 309 307 304 303 302 301
313 314 315 314 314 314 315 315 314 314 315 316 318 320 321 322 323 324 324 324 323 322 321 322 323 328 334 337 337 335 335 333 332 332 331 328 325 325 311 309 309 310 309 308 305 303 302 301 301
313 313 313 311 312 312 313 313 313 312 313 315 318 319 320 322 322 323 324 324 322 322 321 322 325 331 335 336 337 336 332 333 332 331 328 325 323 310 309 309 310 310 309 307 305 302 301 299 298
310 311 311 310 310 310 311 310 308 308 310 311 312 314 316 319 322 323 324 323 321 321 321 322 327 333 335 337 337 334 331 331 330 327 325 324 310 309 309 310 310 310 309 307 305 301 299 298 296
311 310 311 312 312 312 309 311 309 310 310 307 310 313 316 318 320 323 323 323 322 321 321 321 324 331 335 336 336 333 330 330 327 325 324 313 309 309 310 310 310 309 308 307 303 300 298 296 294
310 310 311 312 313 312 312 314 310 310 311 311 311 315 316 317 319 321 323 324 322 321 320 321 322 323 328 334 335 331 329 328 325 323 318 309 309 309 310 310 309 308 307 305 302 298 296 293 292
310 310 311 312 313 315 312 312 311 309 309 309 310 313 316 319 322 321 323 324 321 321 322 324 325 324 328 333 331 330 328 327 325 322 311 309 309 310 309 309 308 307 305 303 300 296 293 292 292
310 314 314 316 315 313 310 311 311 308 309 309 310 313 316 317 320 321 322 323 320 322 324 326 325 325 331 330 330 328 327 327 327 318 310 309 309 309 308 307 306 305 303 300 297 294 292 292 292
310 311 314 315 310 309 310 313 311 309 310 311 311 312 315 318 319 321 321 322 321 322 326 327 327 330 330 329 329 329 329 328 319 310 309 308 308 308 307 306 305 304 301 297 294 292 292 292 292
313 311 310 313 312 315 311 311 311 315 313 313 311 312 313 315 318 319 320 320 322 324 327 328 330 331 330 329 329 326 321 313 309 309 308 307 307 306 305 305 304 301 298 295 293 292 292 292 291
311 311 314 312 313 313 310 309 310 312 313 312 313 313 315 315 316 318 319 320 324 326 328 330 331 331 330 327 322 318 311 309 309 308 307 306 306 305 305 304 302 299 295 292 292 292 292 291 291
311 312 312 311 313 311 308 307 310 315 313 314 313 313 315 317 317 317 318 321 324 327 328 329 329 328 327 320 315 311 309 309 307 306 306 305 305 305 303 302 300 296 293 291 292 292 291 291 290
309 310 310 311 307 308 306 309 311 312 312 313 314 313 313 315 316 317 318 322 325 327 327 328 327 326 322 315 311 309 308 307 306 305 305 305 304 303 302 301 297 293 291 291 292 292 291 290 289

GFSSGP_850_thetae_021.txt.gz
Theta_e
321 322 322 322 325 321 323 323 320 322 323 322 322 323 325 325 329 333 331 332 328 326 327 340 342 341 338 336 333 331 330 326 320 330 331 329 327 325 327 326 316 315 313 313 319 325 328 329 330
321 321 321 321 324 324 324 318 322 322 320 320 323 324 325 330 331 332 333 329 328 324 326 333 342 339 337 335 333 332 329 320 322 332 331 328 327 324 321 323 320 316 313 312 313 315 317 324 323
320 321 321 321 320 324 324 318 320 320 321 319 323 326 326 331 332 332 331 328 326 324 327 333 341 338 337 334 333 332 324 319 316 333 330 324 323 324 326 326 322 314 313 312 312 313 313 312 312
321 322 319 323 323 321 319 317 319 320 322 321 322 326 327 331 332 332 329 327 327 323 326 332 343 341 334 330 330 328 322 318 316 325 329 327 329 329 329 329 327 320 315 316 316 316 316 316 317
322 322 322 323 322 320 318 318 319 321 319 320 321 325 327 329 331 332 331 328 326 323 326 330 343 341 332 329 327 326 321 317 316 325 328 329 329 329 330 328 328 321 317 317 318 318 319 320 322
323 320 322 323 322 319 319 320 320 319 319 320 321 324 326 329 329 331 329 328 328 323 325 328 339 334 332 330 327 326 323 317 314 321 329 329 329 330 330 329 328 319 318 319 321 323 325 327 328
322 321 322 320 321 320 320 321 319 320 319 319 322 324 325 329 330 329 328 330 329 327 327 327 329 332 333 330 329 327 323 318 315 319 324 329 329 330 329 327 326 317 320 324 326 327 327 328 328
324 321 322 321 322 322 320 321 322 320 319 320 322 324 325 327 328 328 329 332 333 332 332 331 329 330 335 331 330 328 325 321 317 317 319 322 326 328 329 325 318 323 325 326 327 327 328 329 329
324 325 326 323 321 321 320 321 321 322 321 323 323 322 323 324 328 327 329 330 332 334 334 334 333 331 329 331 331 329 327 325 321 318 316 316 322 325 322 319 324 327 327 328 329 328 328 327 327
324 325 324 320 319 321 320 320 321 322 321 322 322 323 324 324 325 326 326 327 329 331 333 335 335 334 331 330 331 328 327 325 324 319 317 315 319 320 321 323 327 328 328 329 328 327 327 325 325
322 325 321 322 322 324 323 322 322 322 323 322 323 323 323 323 324 327 328 326 326 328 331 333 335 335 334 329 330 328 329 329 324 320 316 317 321 323 324 327 328 329 328 327 326 326 325 325 325
321 320 322 323 323 323 324 324 324 323 323 324 323 323 324 324 324 326 329 328 326 326 327 329 332 334 335 332 330 328 330 332 327 321 321 323 324 325 328 329 326 327 326 326 325 324 325 325 325
319 318 319 320 319 320 320 322 322 323 323 323 325 325 325 325 324 324 325 328 327 325 325 326 327 329 332 333 331 330 332 332 327 324 326 326 328 329 327 327 327 326 326 324 323 324 324 319 312
316 316 317 317 318 318 319 320 320 320 319 319 320 322 323 324 324 324 324 324 324 325 325 325 325 325 328 333 333 333 334 332 330 329 329 329 328 328 327 326 326 325 325 324 323 323 312 310 308
318 318 316 316 317 318 318 319 319 319 319 320 320 319 319 321 322 323 324 324 324 324 324 324 325 325 325 330 334 335 336 334 332 331 330 329 328 327 328 327 326 326 324 324 315 309 308 306 305
318 318 318 315 316 317 318 317 317 317 318 319 319 319 319 317 318 321 322 324 324 324 324 324 325 325 324 327 335 336 336 334 333 331 329 329 328 328 328 326 325 325 323 310 308 308 307 306 304
316 316 318 316 315 317 319 320 319 319 318 318 319 320 320 321 320 318 319 322 324 324 324 324 325 324 324 324 335 336 336 334 333 331 329 329 329 329 327 325 324 321 309 309 309 308 305 303 303
314 316 315 316 315 314 315 316 315 314 315 316 316 316 317 319 321 322 323 322 324 324 324 324 324 324 323 323 335 336 337 335 334 332 330 330 330 327 325 324 321 309 309 309 308 305 303 302 302
313 315 315 314 313 313 314 314 313 313 313 313 314 314 315 316 318 320 322 323 323 324 324 324 323 323 323 325 334 336 337 335 334 331 331 331 329 325 324 320 309 309 310 309 307 305 303 302 302
314 315 315 313 311 312 312 312 311 311 312 312 313 313 314 314 315 317 319 321 324 324 324 323 322 323 325 327 333 335 335 334 332 331 330 327 326 324 319 309 309 310 310 309 307 306 304 301 300
312 313 312 312 310 310 311 312 311 310 309 310 310 311 311 313 314 314 318 320 322 324 323 322 322 323 327 330 335 336 334 332 331 329 328 325 322 319 310 309 310 310 309 308 308 306 303 300 298
312 310 311 312 311 311 309 312 310 310 310 309 308 308 309 310 311 311 315 318 322 323 322 321 322 325 328 333 336 336 334 331 330 330 327 323 317 310 309 310 310 310 309 308 307 305 302 299 297
311 309 310 311 312 311 312 313 311 309 310 310 310 311 311 311 311 312 313 317 322 323 322 321 321 324 331 334 336 335 333 331 330 327 322 320 313 309 309 310 310 308 308 307 306 303 300 297 295
310 310 310 312 313 315 311 312 312 311 310 308 308 310 311 312 314 318 317 316 322 323 322 321 321 322 330 335 335 334 332 330 327 324 321 318 309 308 309 309 308 307 307 306 304 301 298 295 294
310 313 315 314 316 314 310 312 312 309 310 310 310 309 311 312 312 314 317 319 320 322 321 320 321 322 325 333 332 334 331 329 327 323 321 313 309 308 309 308 307 307 306 305 302 299 296 294 293
311 311 313 314 312 312 309 314 312 309 310 310 310 310 310 311 313 315 316 320 321 322 321 321 322 324 324 330 331 333 327 326 325 323 320 309 308 309 308 308 307 306 305 303 300 296 294 293 293
312 312 310 312 311 313 312 310 309 309 310 312 312 313 313 314 314 313 318 320 321 322 321 321 324 325 324 328 332 329 325 326 325 320 309 308 308 308 307 307 306 305 304 300 297 294 293 293 292
311 309 312 312 312 313 312 311 312 308 309 313 312 314 314 313 313 314 318 319 320 321 321 324 325 324 327 329 327 328 325 323 320 311 308 307 307 307 307 306 305 303 300 297 294 293 293 292 292
311 312 312 311 312 313 311 309 305 307 310 312 313 313 314 315 313 314 315 317 319 321 324 326 326 328 327 326 326 324 323 317 309 307 306 306 306 306 305 304 303 301 298 294 293 292 293 292 291
310 311 311 313 311 311 310 311 310 312 311 312 313 314 314 315 313 314 315 317 319 322 326 327 328 328 327 325 323 319 314 308 307 306 306 306 305 305 304 303 301 298 294 292 292 292 292 291 290

GFSSGP_850_thetae_024.txt.gz
Theta_e
321 321 322 323 327 326 327 323 325 326 327 326 324 327 330 329 336 336 330 333 330 328 343 343 340 339 337 335 331 329 329 321 323 327 326 328 329 328 328 326 315 314 315 321 319 329 330 331 330
321 321 322 324 326 328 327 325 324 326 325 323 324 326 328 332 332 336 334 331 331 334 343 344 342 340 338 334 331 330 325 318 331 334 330 328 325 324 321 320 316 313 312 312 315 320 320 328 327
320 321 324 325 326 327 327 325 323 325 324 322 327 327 329 333 334 336 334 328 331 335 342 342 341 340 338 335 331 330 322 317 332 334 328 322 321 325 326 325 320 314 314 312 312 313 312 312 312
324 323 322 325 326 326 325 323 324 325 324 323 324 329 329 330 334 334 330 329 329 340 341 336 341 339 338 334 332 329 320 316 326 332 326 327 328 329 329 328 326 318 316 317 316 316 316 317 318
323 323 325 325 325 325 324 324 323 325 324 324 323 328 329 331 332 332 330 329 336 339 342 333 341 340 339 332 330 326 320 317 318 326 328 328 329 330 330 328 327 319 318 318 318 319 320 323 324
323 323 324 324 324 324 324 323 323 324 324 324 323 325 328 329 331 331 331 329 328 336 339 339 341 342 338 332 328 326 321 315 317 327 329 329 329 330 330 329 327 319 318 320 322 325 326 327 327
322 323 322 323 323 324 323 322 323 323 323 324 323 327 327 330 332 331 329 329 329 336 329 336 341 341 338 332 330 327 323 316 315 325 329 329 329 330 331 328 327 318 320 324 326 326 327 327 328
323 323 322 323 323 323 322 322 322 323 324 321 323 326 328 326 331 331 329 331 331 328 331 332 340 338 337 334 331 329 325 319 315 320 325 329 329 329 328 326 321 320 325 326 327 327 329 329 328
324 324 324 323 323 322 322 322 322 322 323 324 323 324 324 323 329 333 334 332 333 332 330 332 339 339 338 339 331 330 327 323 318 317 318 322 328 328 328 321 320 325 327 327 328 328 328 326 325
324 324 323 322 323 322 322 323 323 323 323 324 324 324 323 324 327 336 337 337 337 334 334 335 338 340 340 337 334 332 330 326 324 319 316 320 322 326 321 319 325 327 328 329 328 327 326 325 325
323 325 322 323 322 323 324 324 323 323 324 324 325 325 324 325 326 329 333 335 337 338 337 333 334 338 339 337 336 335 334 333 332 326 318 316 319 319 323 326 328 329 328 327 326 325 325 325 325
322 321 322 321 323 324 324 324 324 323 322 322 324 323 324 325 326 325 329 332 333 336 336 331 332 333 335 337 335 337 334 334 333 329 322 322 325 323 328 330 329 326 326 326 325 325 325 325 324
321 320 320 320 321 321 321 321 322 322 322 323 323 324 325 325 326 326 325 328 332 332 330 329 330 330 332 335 337 337 335 334 334 330 323 327 328 329 328 328 326 326 326 324 324 323 323 321 311
318 319 319 319 319 319 319 319 319 319 320 320 320 321 321 323 324 325 325 325 324 329 331 332 327 328 330 332 334 336 335 335 334 331 325 327 329 328 327 326 326 325 325 324 324 324 314 309 308
319 320 319 319 318 319 318 320 320 319 319 319 319 319 320 320 322 324 325 325 325 324 325 328 327 328 329 333 337 337 335 335 334 332 330 328 328 328 327 326 326 326 325 324 324 310 308 308 307
318 319 321 319 318 318 318 319 318 318 319 320 320 320 319 319 320 320 323 324 324 324 324 323 323 323 327 336 337 338 336 335 334 333 330 330 328 327 327 327 326 325 324 322 309 309 308 305 304
318 320 320 319 317 318 319 321 320 320 320 320 320 320 320 321 321 321 320 322 323 323 324 324 324 323 324 332 337 338 336 336 334 332 330 329 328 328 328 327 325 324 320 309 309 308 306 304 303
318 319 317 317 317 317 318 319 318 318 317 318 318 319 320 320 320 321 321 321 321 321 322 324 324 324 323 330 336 336 335 335 334 332 331 329 329 329 328 326 324 323 309 309 309 308 307 305 303
315 316 317 317 316 316 316 316 316 315 315 315 315 315 316 317 318 319 321 321 322 321 320 324 324 324 323 328 330 334 335 336 335 333 332 330 329 330 326 324 323 310 309 310 309 309 307 306 303
314 315 315 315 314 314 314 315 314 314 314 313 313 314 314 314 315 316 318 320 321 322 323 324 324 324 323 327 326 332 334 334 335 334 332 330 330 328 323 323 311 309 311 310 310 309 307 306 303
314 314 314 313 314 313 314 315 315 314 313 313 312 312 313 313 313 314 316 318 320 321 322 323 324 324 323 324 329 332 333 334 335 334 331 330 326 324 319 312 309 310 311 310 310 309 307 303 301
315 313 313 313 313 314 312 317 315 315 314 313 312 312 312 312 312 312 313 316 318 320 320 323 324 323 324 324 326 329 332 334 334 332 331 327 324 315 312 309 310 311 311 310 309 308 306 303 299
313 311 311 312 313 313 314 313 314 313 314 314 314 314 313 313 313 312 313 313 315 318 319 322 323 323 324 324 327 332 334 333 332 330 329 326 318 310 309 309 310 311 310 309 308 307 304 301 298
311 312 312 312 313 317 314 314 315 315 315 314 313 313 313 312 313 313 313 314 315 318 318 322 322 322 324 326 329 333 334 334 331 328 326 324 314 309 308 309 310 310 309 308 307 305 303 300 296
311 312 314 315 316 315 312 315 314 313 312 313 313 313 312 313 312 313 314 316 318 317 317 321 321 322 324 328 332 334 335 332 330 329 328 321 315 311 308 309 309 309 308 307 305 303 301 297 294
312 312 314 314 314 313 312 314 313 313 312 312 312 313 315 316 317 314 314 316 318 318 316 320 320 321 323 328 332 333 333 331 329 328 323 320 319 309 308 309 308 307 306 305 303 301 298 295 294
312 313 312 313 313 314 312 312 313 312 312 312 312 314 316 316 317 316 314 316 318 320 318 320 320 321 323 328 330 329 332 329 327 321 321 319 315 308 308 308 307 306 305 303 301 298 295 294 293
312 311 313 313 313 313 312 311 312 312 312 313 314 314 315 316 316 315 315 316 318 320 320 320 320 321 322 324 328 329 329 326 325 319 318 316 308 307 307 307 305 304 303 301 299 296 294 293 293
311 312 314 312 314 313 312 312 311 311 311 312 313 314 315 315 315 316 315 317 320 321 321 320 319 320 322 324 327 327 326 325 318 314 312 310 306 306 306 305 304 302 301 299 296 294 293 293 293
310 311 311 314 314 314 315 315 311 312 313 314 313 314 314 315 314 315 316 318 319 319 318 318 319 321 322 324 327 325 324 318 316 311 307 305 306 305 304 303 302 300 299 296 293 293 293 292 292

GFSSGP_850_thetae_027.txt.gz
Theta_e
322 326 325 325 327 328 329 328 325 327 326 326 327 328 331 332 335 337 337 341 340 344 346 339 340 334 333 332 329 327 328 319 316 322 331 331 330 329 327 324 315 313 318 324 325 331 331 332 331
322 324 325 325 328 329 330 328 325 324 327 327 326 326 329 332 333 339 339 338 340 345 346 343 341 337 334 333 331 329 324 324 331 332 328 328 327 326 320 317 313 312 312 313 315 323 325 328 326
322 323 324 327 327 328 328 328 326 325 326 326 327 328 331 334 335 338 340 333 340 344 345 345 340 340 338 334 332 329 319 324 334 333 329 321 321 323 324 322 316 314 312 311 312 313 312 313 314
325 324 323 326 327 327 327 327 325 325 325 326 328 329 331 333 336 337 339 337 340 344 345 345 342 340 338 336 332 328 319 319 334 331 320 324 328 329 327 326 321 316 316 316 315 316 316 317 318
324 323 326 325 325 325 326 325 325 325 326 326 326 329 331 334 335 338 339 337 341 343 346 340 341 341 338 335 331 326 318 315 329 330 325 327 329 330 329 328 325 318 318 318 318 319 322 323 325
324 323 325 325 325 325 325 325 325 325 325 325 326 328 331 334 336 339 339 338 339 342 344 341 340 340 339 333 329 325 319 315 320 326 328 329 330 330 330 328 327 319 319 320 324 325 326 327 327
324 325 324 324 324 324 325 324 325 325 325 325 325 327 330 333 339 339 339 339 339 341 342 343 342 341 339 334 329 327 322 315 321 326 329 330 329 330 330 329 327 318 320 324 326 326 327 328 328
323 324 325 324 323 324 324 324 323 324 325 325 325 326 329 330 339 339 339 340 339 340 340 342 345 341 338 335 331 328 324 316 316 326 327 329 329 330 331 328 324 318 324 326 326 328 329 328 327
325 327 325 325 323 323 323 323 323 323 323 324 325 325 327 327 337 338 339 339 339 340 340 340 343 343 339 338 331 330 326 319 316 320 324 328 330 330 329 327 319 323 325 326 328 328 328 326 324
325 324 323 322 323 323 323 323 323 324 324 323 325 325 325 328 333 337 338 338 339 339 340 340 341 342 341 340 337 332 330 325 320 317 318 322 331 330 330 321 320 325 326 327 327 326 326 324 322
323 324 322 322 324 324 323 323 323 324 325 323 324 325 325 326 329 333 336 336 338 339 340 341 341 341 340 340 340 336 335 333 331 329 326 327 327 325 322 320 323 327 327 327 326 325 324 325 325
322 321 322 322 323 324 324 323 323 323 323 323 324 325 326 326 327 327 329 333 335 337 339 340 341 342 342 341 338 337 336 334 334 332 330 327 325 325 328 329 330 328 326 326 325 323 324 324 323
321 322 320 321 322 322 323 323 323 323 323 323 323 324 325 325 326 327 327 328 331 334 337 339 340 342 342 341 339 338 336 335 335 334 330 326 328 328 329 330 326 326 326 326 324 324 323 322 311
321 321 320 321 320 320 321 320 320 320 320 321 321 322 322 323 325 326 327 327 328 332 334 337 339 341 341 340 340 338 337 336 335 334 331 329 330 330 329 326 326 326 325 325 324 324 322 310 308
320 322 322 321 320 321 320 321 321 320 320 320 320 320 320 321 321 323 325 327 327 326 330 332 337 339 341 340 340 339 338 337 335 335 331 330 331 330 327 327 326 326 325 325 324 321 309 308 306
320 321 323 321 320 320 319 321 320 320 320 320 320 320 320 320 320 321 323 325 327 327 326 326 332 337 339 340 340 339 338 336 335 335 332 332 330 328 327 327 327 326 325 324 322 309 308 307 305
321 323 323 322 320 320 320 323 321 321 321 320 320 321 321 321 321 320 321 322 324 326 326 326 326 328 334 337 338 338 338 336 335 334 333 333 329 328 327 327 327 325 324 323 310 309 308 307 305
323 322 321 320 319 318 319 320 319 319 319 320 320 321 321 321 321 322 321 321 321 323 325 325 325 324 327 333 337 338 337 336 336 335 334 330 329 328 327 328 326 324 323 310 310 309 309 308 307
318 318 319 319 318 317 318 318 318 317 317 317 317 318 319 319 320 321 321 322 322 322 323 324 325 325 326 330 334 337 336 335 336 334 332 330 329 328 328 328 325 323 313 309 310 310 310 309 307
317 318 318 317 316 316 316 316 316 316 316 316 316 316 317 317 317 317 318 320 321 322 323 324 324 325 327 330 333 337 336 335 335 332 332 331 329 329 329 327 323 318 309 311 311 311 310 309 307
317 316 316 316 315 314 315 316 317 317 315 315 315 315 315 315 316 316 316 317 318 321 322 323 324 325 328 331 335 336 335 335 332 332 333 332 330 329 329 324 322 310 310 311 311 311 310 307 306
317 315 315 315 315 317 314 318 316 316 316 316 315 314 314 314 314 314 315 316 316 318 321 322 324 326 329 332 334 330 327 329 330 331 333 332 330 329 326 320 312 309 311 311 310 310 309 307 304
314 313 313 314 314 314 315 316 316 316 316 316 316 315 315 315 315 315 314 314 314 316 319 322 324 328 331 331 331 329 328 325 330 332 331 331 329 327 326 313 308 310 311 310 310 310 308 306 303
312 312 312 313 312 315 314 315 316 315 315 316 317 316 315 314 313 314 315 314 314 314 317 322 324 329 331 330 329 328 324 324 330 331 330 329 327 325 324 308 308 310 310 310 309 308 307 305 302
312 313 315 318 317 316 314 315 315 314 314 314 314 314 314 313 315 316 314 315 314 315 314 321 323 329 330 330 326 324 326 325 330 331 331 329 326 322 315 308 308 309 309 309 308 307 306 304 300
313 313 315 316 317 316 314 315 315 314 314 313 313 313 313 313 316 318 319 316 315 316 316 321 325 328 327 325 326 326 325 325 329 331 329 327 323 319 314 307 308 309 308 308 307 306 304 301 298
312 313 312 314 313 314 313 313 314 313 313 313 313 312 313 314 316 317 318 318 315 317 319 321 325 326 325 326 325 326 324 328 331 329 326 323 314 312 308 307 308 308 307 306 305 304 302 299 295
312 312 313 314 314 315 314 314 314 314 313 313 313 313 313 315 316 317 318 317 316 318 320 321 324 325 324 325 324 321 326 329 329 325 322 317 312 311 308 307 307 306 306 305 304 302 300 296 294
312 312 312 313 316 315 315 315 314 312 312 311 313 314 314 315 315 316 317 317 317 317 321 322 323 323 323 321 318 322 326 326 324 324 320 317 310 308 306 307 306 305 304 303 302 300 296 294 293
311 311 312 315 314 314 315 316 312 312 312 312 312 313 314 313 314 315 316 318 320 321 323 323 322 321 321 314 318 324 324 326 323 320 315 311 305 305 305 305 305 304 303 301 299 296 293 293 292

GFSSGP_850_thetae_030.txt.gz
Theta_e
321 327 325 325 328 328 328 328 326 326 326 326 328 328 326 329 336 342 340 341 339 335 334 332 327 328 326 324 324 326 324 318 316 329 329 331 331 329 327 315 312 315 323 323 325 333 333 332 330
321 325 324 325 328 328 328 327 326 324 325 327 326 326 326 330 338 336 341 340 346 341 335 333 328 327 329 329 328 327 319 323 326 334 329 329 328 327 318 312 311 311 312 315 317 327 331 330 325
321 325 324 327 326 327 327 327 326 325 326 326 326 326 327 335 338 339 341 340 346 348 335 333 334 330 331 329 328 325 319 334 334 331 326 319 321 319 318 316 314 313 311 312 313 314 312 312 312
326 325 324 323 326 326 325 325 326 325 325 325 327 327 330 335 336 340 337 340 345 346 345 338 336 335 336 331 328 323 317 333 334 325 319 324 326 326 324 320 316 316 316 315 315 315 316 317 319
325 325 325 324 324 324 323 325 325 325 325 326 327 326 333 334 335 338 335 340 344 345 346 345 337 339 337 334 329 322 316 329 333 321 322 327 327 328 327 324 319 317 317 318 318 319 321 323 325
325 323 324 325 325 323 323 323 325 325 325 325 325 326 334 335 337 338 337 340 343 344 346 344 337 339 336 333 327 321 316 315 329 327 325 326 328 330 329 326 320 317 318 319 322 324 325 326 328
324 325 324 323 323 322 323 324 324 324 324 324 325 326 333 336 338 340 338 339 342 344 344 337 337 333 335 329 325 323 317 315 321 324 326 328 330 329 328 326 323 317 320 322 324 325 327 328 328
322 324 326 323 323 322 323 323 324 324 324 325 325 324 330 339 338 340 339 339 340 343 343 338 337 334 336 331 326 323 320 315 320 324 327 329 330 331 330 327 322 317 322 324 325 327 327 327 324
323 326 325 324 323 323 322 322 324 323 323 324 325 325 327 337 339 339 339 339 339 341 342 343 337 339 338 335 328 325 322 316 316 322 326 328 329 329 329 325 319 320 323 325 326 327 326 325 323
324 326 327 323 321 322 323 322 323 323 323 323 324 325 326 328 338 339 339 340 339 340 340 342 343 340 339 337 330 328 325 320 316 317 322 326 330 330 329 327 318 322 325 326 326 326 325 324 323
322 324 322 321 321 323 324 323 323 323 324 324 323 325 325 328 331 337 338 338 339 339 340 339 342 342 340 338 337 332 327 324 319 317 317 322 331 331 329 322 319 324 326 326 326 325 325 324 324
321 322 322 322 322 323 324 323 323 323 323 324 324 324 326 326 327 330 334 336 337 339 339 340 340 341 341 338 339 335 333 332 330 328 325 321 328 325 326 325 329 329 328 326 325 323 324 323 322
321 321 321 321 321 321 322 323 323 323 323 323 323 323 323 326 326 326 327 330 334 337 338 339 341 341 341 339 337 336 336 335 334 334 330 328 325 323 328 330 329 329 326 325 324 324 324 323 312
319 320 320 320 320 320 321 321 321 320 321 321 322 323 322 323 325 326 326 327 328 332 336 338 340 342 341 341 339 335 337 335 335 334 332 327 326 328 329 330 329 326 325 325 324 324 324 313 309
320 321 320 320 320 320 320 320 320 320 320 319 320 320 321 321 322 323 325 326 327 328 332 336 339 340 341 342 340 338 338 336 335 334 334 328 329 329 330 330 325 325 325 325 325 324 314 309 307
321 321 322 320 320 320 320 321 319 320 320 320 320 320 320 320 320 321 321 323 325 327 327 332 335 338 339 340 340 340 338 337 335 334 334 330 330 330 330 326 326 326 325 324 324 320 309 308 308
320 322 321 321 320 320 319 320 320 320 321 321 321 320 320 320 320 320 320 320 322 324 327 327 332 335 336 340 340 338 339 337 335 334 334 331 331 330 328 327 326 326 325 324 323 310 309 309 309
322 322 320 320 320 319 318 318 318 318 318 318 321 321 321 321 321 321 320 320 321 323 325 327 326 332 335 337 339 339 339 337 335 334 334 332 331 329 328 327 327 326 325 323 311 310 310 310 310
321 319 318 317 317 316 316 316 316 316 316 316 317 318 319 319 320 321 321 321 321 321 322 323 326 326 327 335 338 339 338 336 335 334 333 332 332 329 328 327 327 326 324 318 310 311 311 311 310
317 317 317 316 316 315 314 314 313 313 314 315 315 316 317 317 318 319 319 321 321 322 322 321 324 326 326 325 334 337 337 337 336 334 334 333 332 329 328 328 328 326 324 310 311 311 311 311 310
316 316 316 315 314 314 313 314 314 315 314 314 314 315 315 316 316 317 318 318 319 320 321 322 322 324 325 325 327 335 338 336 336 334 334 334 332 329 328 328 328 325 319 310 311 311 311 311 310
316 315 315 315 315 314 313 315 313 313 313 313 314 315 316 316 315 315 315 316 317 317 319 320 322 323 324 325 328 333 337 335 335 334 333 333 331 330 328 329 328 323 313 310 311 311 311 310 310
314 313 313 314 313 313 313 312 312 313 313 314 313 316 315 315 314 314 314 314 315 315 316 318 320 323 323 326 329 334 335 333 332 333 332 331 330 329 328 329 326 321 310 310 311 311 310 309 309
312 313 312 313 313 313 312 313 312 312 312 312 311 314 315 315 314 314 314 315 315 315 314 315 319 321 323 327 331 335 333 332 333 332 330 329 328 327 327 327 323 316 310 310 310 310 310 309 307
313 313 313 315 314 311 313 313 312 312 312 312 312 314 314 314 313 314 316 317 317 315 314 314 315 322 323 329 332 334 333 332 329 330 328 327 325 326 326 324 320 314 310 309 310 309 309 308 306
314 313 312 315 315 314 312 314 311 312 312 313 313 313 314 313 313 316 317 317 318 318 315 314 314 323 324 329 333 332 331 328 326 324 326 327 326 324 322 322 314 310 309 309 309 308 308 307 305
312 312 311 312 311 309 310 310 310 312 311 311 311 312 313 313 313 316 316 316 317 317 316 315 314 322 326 330 331 331 326 325 324 324 327 326 325 322 321 317 312 308 308 308 308 307 306 305 303
311 311 312 312 308 312 311 311 312 312 310 310 309 311 313 312 315 316 315 316 317 317 316 316 317 320 326 330 330 325 325 325 324 323 325 324 321 320 317 315 308 307 307 307 306 306 304 302 299
311 312 312 312 314 311 312 312 312 311 311 311 309 313 314 315 315 315 314 314 317 317 317 318 319 322 327 327 326 325 324 323 323 323 320 319 319 316 315 310 307 306 306 305 305 304 303 301 297
311 311 310 308 309 310 311 312 312 310 311 309 309 312 313 314 314 313 314 315 316 320 319 320 320 323 325 325 324 324 323 323 321 318 315 314 317 311 310 305 304 305 304 304 304 302 301 298 295

GFSSGP_850_thetae_033.txt.gz
Theta_e
322 322 325 325 322 321 324 326 324 322 324 325 326 325 324 328 332 338 338 339 340 333 338 329 325 322 322 320 321 321 321 321 320 323 329 333 331 329 321 312 314 321 323 323 332 331 331 330 328
322 322 325 325 323 325 324 322 324 320 325 326 326 325 325 337 336 340 339 340 340 335 336 329 326 322 320 321 321 318 317 316 334 333 331 330 328 326 312 311 311 312 317 320 331 330 329 330 328
322 323 325 321 320 324 324 322 321 323 325 325 325 325 325 336 337 337 339 340 340 336 334 327 325 324 323 323 321 317 327 334 333 329 325 323 319 314 313 313 312 311 311 313 315 322 319 312 312
321 325 325 320 322 321 322 321 322 323 324 325 325 325 333 336 339 340 339 339 343 341 334 330 326 325 324 325 321 316 329 330 331 321 316 317 318 317 316 315 315 314 313 312 313 314 316 317 318
325 325 320 320 319 319 319 321 322 323 323 324 326 325 334 337 337 339 339 341 345 344 335 333 327 328 326 325 321 317 324 331 326 317 323 323 321 322 319 316 316 316 316 316 317 319 321 324 325
324 323 321 324 322 320 318 322 321 323 324 324 325 325 334 336 335 337 340 342 344 344 343 342 333 328 329 327 321 317 316 324 326 318 324 324 328 327 322 318 316 317 318 319 321 323 324 326 327
321 318 320 321 319 319 320 323 320 322 323 323 324 323 335 338 337 336 340 342 344 345 345 345 338 333 332 327 322 318 315 318 325 324 324 327 329 329 324 321 317 317 319 322 322 324 327 327 326
321 319 323 320 321 320 319 321 322 323 322 324 324 324 336 338 339 336 340 342 342 344 344 343 340 334 331 328 323 321 317 316 318 321 325 328 329 328 327 321 317 318 321 322 323 325 326 325 323
321 320 321 323 323 322 322 320 322 323 323 323 324 330 336 338 340 339 338 342 342 343 342 340 336 334 333 330 325 323 319 316 317 321 326 328 330 331 330 324 318 319 322 324 324 325 325 324 322
320 321 323 321 320 320 320 322 322 322 322 322 323 328 336 337 339 339 339 339 340 342 342 340 340 335 335 335 329 325 322 317 316 321 323 326 327 328 328 325 318 321 323 325 325 325 324 324 324
320 321 322 323 322 321 323 323 323 321 320 322 322 325 326 325 334 339 339 339 339 340 340 341 341 341 337 333 332 328 325 320 317 317 322 325 328 326 327 324 318 323 324 325 325 324 324 324 323
319 320 321 321 321 321 322 323 322 322 322 322 323 323 323 328 328 336 338 338 338 339 339 339 340 342 340 340 331 329 327 324 320 317 318 324 327 330 327 325 319 324 325 325 324 324 323 323 321
318 318 320 320 320 320 321 321 321 322 323 322 322 322 323 324 328 330 335 337 338 339 339 339 339 341 341 340 339 332 331 330 327 325 321 320 324 327 325 325 329 328 328 325 324 324 323 323 315
318 318 319 320 320 320 319 319 320 321 322 322 322 322 322 322 323 326 326 327 332 336 338 339 339 338 340 340 340 337 332 334 334 332 332 325 325 323 324 328 329 329 327 325 325 323 323 322 310
319 320 318 319 320 318 320 318 318 320 319 319 319 319 321 320 322 321 325 325 325 328 334 338 339 339 339 339 340 337 334 336 335 334 333 332 326 325 327 328 329 329 325 325 325 324 324 312 309
319 319 321 319 319 319 319 319 318 319 319 319 319 319 318 320 319 320 321 323 325 325 327 334 338 339 339 339 340 338 334 336 335 334 333 333 327 328 328 329 329 327 325 325 324 324 322 309 309
319 319 319 319 318 319 318 319 318 319 319 318 318 319 320 319 319 319 319 320 322 325 324 327 335 337 337 336 338 339 337 336 336 335 334 333 330 328 329 329 329 326 325 324 324 323 311 310 310
320 319 318 318 318 318 318 317 315 319 318 316 317 318 319 320 320 320 320 319 320 320 323 323 329 332 334 335 335 337 335 338 337 335 334 334 332 329 330 330 327 326 326 325 324 318 310 311 311
319 320 317 315 315 314 314 313 312 313 313 314 315 315 317 318 321 320 321 320 320 320 320 321 323 329 333 335 336 336 338 337 336 335 334 333 333 330 330 328 327 326 326 325 323 310 311 312 311
318 316 315 314 314 313 312 313 312 312 312 313 313 314 315 316 317 319 320 320 320 321 320 320 322 325 329 334 334 332 333 336 336 335 334 333 333 331 331 329 327 327 326 324 319 310 312 312 312
315 315 314 314 312 311 310 311 311 311 311 312 312 313 314 315 316 316 317 318 319 319 321 321 321 321 327 330 333 331 331 334 335 335 334 333 333 332 332 329 327 327 326 324 314 311 312 312 312
315 312 313 314 312 312 310 312 309 310 310 310 312 313 314 314 314 315 315 316 316 317 318 319 320 321 322 327 332 330 330 333 335 333 334 333 332 332 332 329 327 327 326 323 311 311 312 312 312
314 312 312 312 311 309 310 309 309 309 310 310 309 312 314 315 315 315 314 314 315 315 315 316 318 319 320 322 325 325 330 332 332 332 333 332 331 332 332 328 327 327 325 319 310 311 312 311 311
311 311 311 311 310 305 309 310 309 309 310 311 309 312 313 314 314 314 314 314 315 314 314 314 314 316 318 320 323 325 325 329 331 333 332 332 331 331 331 328 327 327 323 318 310 311 311 310 310
311 308 303 306 312 309 310 310 309 309 310 310 309 312 313 313 313 313 313 314 314 315 315 314 314 314 316 319 320 324 325 326 328 328 330 330 330 329 329 327 326 326 319 312 310 311 310 309 309
311 309 305 310 311 311 310 312 311 310 311 311 312 313 313 313 312 313 314 315 315 314 315 315 316 314 314 316 321 323 326 329 330 330 329 330 329 328 327 324 321 321 312 310 310 310 309 308 308
312 309 309 309 308 302 308 307 307 308 308 307 308 310 310 312 312 315 316 316 315 315 312 314 317 315 314 314 322 325 328 330 329 330 331 330 328 327 326 323 319 314 310 308 309 308 308 307 306
309 309 309 303 303 309 308 308 309 309 309 308 307 310 314 312 314 315 315 315 312 311 313 316 317 316 314 318 325 327 327 328 329 330 330 328 326 324 323 320 314 313 306 308 307 307 306 305 305
310 311 311 308 306 308 311 309 307 310 309 308 307 310 311 312 314 314 313 313 312 311 310 316 316 316 315 319 325 326 328 327 329 329 325 322 323 322 321 317 310 308 308 306 306 306 304 303 302
308 308 308 305 304 306 304 310 310 310 308 309 310 311 312 312 311 314 313 313 312 310 310 318 318 317 317 319 323 326 326 326 326 325 322 321 320 318 315 314 308 304 306 304 304 304 303 302 300

GFSSGP_850_thetae_036.txt.gz
Theta_e
323 322 325 325 321 319 323 325 323 323 321 325 325 325 324 329 330 332 337 337 339 339 334 328 328 327 326 325 324 323 324 327 333 334 330 328 330 328 311 312 325 325 331 333 334 333 331 329 325
323 321 325 324 322 324 322 320 323 321 323 324 325 324 325 337 338 338 337 338 339 335 333 326 325 323 322 320 318 317 317 317 319 325 331 331 328 317 310 310 317 321 325 331 330 330 330 328 327
322 321 324 320 320 323 323 321 322 321 324 324 324 324 329 335 335 335 338 339 340 335 330 326 323 321 319 319 318 317 319 327 335 332 329 325 318 311 311 310 311 313 320 328 330 329 328 317 313
321 322 324 320 323 321 320 320 320 320 323 324 325 323 335 336 336 336 338 338 339 336 330 326 325 323 322 320 317 321 324 329 329 323 317 314 313 313 313 313 311 311 312 312 314 313 313 316 318
322 324 319 320 320 318 317 320 321 319 321 324 324 324 333 337 338 338 336 336 338 335 331 326 327 326 324 321 317 321 323 326 322 315 315 315 315 315 315 315 315 314 314 314 315 318 321 323 325
324 322 320 321 319 319 317 319 319 319 321 323 324 329 334 336 338 337 338 338 340 337 334 329 329 329 326 323 318 317 319 323 317 319 320 319 319 318 316 316 316 317 317 319 321 322 324 326 327
320 316 320 319 320 320 319 320 319 319 320 322 323 325 336 337 339 336 339 343 344 342 334 335 331 332 330 326 320 316 318 320 319 320 323 324 328 323 318 317 317 318 320 322 323 325 327 326 325
320 317 321 318 319 319 319 320 321 320 320 323 324 333 335 336 338 340 341 343 344 344 344 343 340 333 333 328 323 317 316 318 321 321 323 327 329 327 322 319 317 319 321 323 325 326 325 323 323
320 318 320 321 319 319 321 319 322 322 321 323 324 329 327 334 337 339 340 343 344 345 345 343 343 337 333 329 325 320 316 316 319 323 324 328 329 327 325 321 317 320 322 323 324 325 324 323 322
318 318 320 319 320 320 320 321 322 321 321 321 325 329 335 338 339 338 339 342 344 344 343 343 341 339 333 331 326 323 319 316 317 321 323 328 329 329 328 322 317 321 323 324 325 324 323 323 323
318 320 319 321 322 322 321 321 322 321 320 320 324 334 337 337 339 338 338 338 339 342 342 341 340 337 334 333 330 325 322 318 317 319 323 325 326 326 326 324 318 321 323 325 324 324 324 324 323
319 318 320 321 321 320 320 321 321 322 322 322 322 324 333 338 339 338 338 338 338 339 340 341 339 339 339 335 334 331 325 322 317 318 321 324 324 324 324 324 318 319 323 324 324 323 322 322 322
318 318 319 320 320 319 319 320 320 321 322 323 322 322 321 323 327 338 338 338 338 338 338 338 338 339 339 340 337 332 327 325 322 317 318 321 322 324 326 326 322 320 324 325 324 323 323 323 321
317 319 318 319 319 319 319 318 319 320 321 322 322 321 321 321 323 329 336 338 338 338 337 337 338 338 338 339 339 338 334 328 326 322 318 317 319 322 325 327 324 327 327 326 324 324 323 323 319
318 319 318 318 319 318 319 319 317 319 319 319 320 320 320 319 321 322 323 325 327 330 338 338 338 338 337 337 338 338 337 334 330 330 328 325 320 321 324 323 325 328 328 326 324 324 323 323 312
318 317 320 317 318 318 318 320 317 318 318 319 319 318 318 318 318 320 322 322 324 323 324 335 339 338 337 337 337 337 337 336 331 333 332 331 330 326 323 323 326 328 328 325 325 324 324 323 309
318 318 319 318 317 317 317 319 317 318 317 317 318 319 319 319 319 319 318 321 323 324 323 323 332 339 337 337 338 337 337 337 333 334 334 332 332 328 325 326 327 328 328 325 324 324 323 319 309
319 318 317 318 317 315 316 316 316 317 316 317 318 317 318 318 319 320 319 318 319 323 323 322 322 329 336 335 335 337 336 337 332 333 334 334 333 331 327 328 328 329 328 325 324 324 323 310 310
317 320 319 315 314 313 312 311 311 312 312 312 313 313 315 317 319 318 320 320 319 319 319 320 319 320 328 335 334 334 335 336 335 336 335 335 334 333 331 328 328 329 328 325 325 323 318 310 311
319 316 315 313 313 313 311 311 311 311 312 312 313 314 314 315 317 317 318 318 320 320 320 319 319 319 321 331 332 332 330 333 334 335 336 335 334 333 332 330 329 329 328 326 325 323 312 311 312
315 314 314 314 311 310 309 311 310 309 310 311 312 312 312 313 313 314 314 316 319 319 320 319 320 319 319 321 330 331 333 331 332 333 335 334 334 333 331 330 329 329 327 326 326 323 311 312 312
315 312 312 312 312 312 309 312 308 308 308 308 309 311 313 313 314 314 314 314 315 317 317 318 319 320 321 321 327 331 332 332 330 329 330 334 333 331 330 331 330 330 328 326 325 322 311 312 312
313 311 311 311 310 308 309 309 308 307 309 308 308 312 312 313 314 315 315 315 315 315 315 316 317 318 318 320 321 325 331 331 330 329 328 329 331 331 331 331 330 331 329 326 325 322 311 312 312
310 310 308 308 307 304 307 309 307 308 309 310 309 311 312 313 314 314 314 314 314 314 314 314 315 315 316 317 319 320 322 330 331 331 329 328 330 330 330 331 330 330 329 327 326 320 310 311 311
309 307 305 304 308 309 308 309 307 307 307 308 307 311 312 313 313 314 313 314 314 314 314 314 314 314 315 315 315 318 321 321 328 329 329 329 328 330 329 329 330 328 328 326 323 318 310 311 311
310 308 304 308 309 309 308 311 308 307 308 308 308 309 310 310 310 312 313 313 313 313 313 313 313 313 314 314 314 314 318 321 323 326 327 328 327 326 327 328 328 326 327 324 319 312 309 309 309
311 308 308 307 306 302 306 305 304 306 307 307 307 311 311 312 313 311 315 316 315 315 314 314 313 313 312 314 314 314 314 318 321 323 326 327 327 326 327 328 326 324 325 317 315 308 307 308 308
309 308 307 299 299 307 306 306 307 307 309 307 306 308 310 311 311 312 313 315 314 312 311 311 310 311 313 316 316 314 314 315 321 323 325 327 327 327 327 326 324 319 321 315 308 307 308 304 307
310 310 309 306 303 306 309 309 304 308 309 308 306 308 309 311 312 312 313 312 314 312 311 311 310 310 311 316 315 314 314 320 325 326 326 326 327 327 327 325 321 314 315 308 305 306 305 303 304
308 308 307 302 302 304 303 309 307 306 307 307 309 310 312 313 313 313 312 312 313 312 311 311 310 309 310 316 315 315 318 325 328 326 326 327 327 326 324 319 313 310 307 304 306 307 301 300 301

GFSSGP_850_thetae_039.txt.gz
Theta_e
323 323 322 324 320 319 322 323 321 322 323 323 323 323 325 326 329 329 337 336 335 336 333 327 330 334 333 332 334 336 337 337 334 334 333 328 328 327 311 322 326 329 335 337 337 336 331 329 323
323 322 322 323 319 321 319 319 322 320 322 322 323 323 329 334 337 336 336 337 336 336 331 326 326 329 329 329 330 329 328 333 335 330 325 328 328 315 310 320 329 332 334 334 333 331 330 327 325
323 321 324 319 319 321 319 319 320 320 322 322 322 324 328 333 335 335 336 335 338 336 330 323 323 326 326 325 324 321 320 320 320 326 329 327 319 310 310 313 324 328 330 330 329 329 326 323 312
322 321 321 320 323 320 320 320 318 319 323 322 323 328 334 335 336 335 337 336 338 334 331 322 321 323 322 320 319 318 317 324 331 327 322 315 311 311 310 310 311 318 326 329 329 327 313 314 316
321 323 319 321 321 319 317 319 319 318 319 320 322 325 331 336 336 336 337 336 337 336 332 324 321 321 320 321 317 319 324 331 325 317 313 312 312 313 313 312 311 311 312 312 313 315 318 322 324
322 320 319 321 319 317 317 319 319 318 319 321 322 328 332 335 335 336 338 337 339 336 332 326 323 322 323 321 317 323 324 325 317 314 314 313 314 314 314 315 315 315 315 316 318 322 324 326 326
320 317 320 318 317 317 317 319 319 319 318 320 321 329 334 334 334 335 338 339 341 337 333 326 325 326 325 323 318 322 322 323 316 318 317 319 317 316 315 316 316 317 318 321 323 324 326 326 325
322 316 319 317 318 318 318 319 320 319 320 322 321 328 334 331 334 336 339 341 344 342 337 330 327 328 328 325 320 319 321 324 317 320 321 323 326 318 317 316 317 319 321 322 325 326 325 323 323
319 318 319 318 318 318 318 319 321 321 320 321 322 325 329 330 335 337 340 344 345 343 341 336 336 332 329 327 323 318 318 324 320 320 322 325 327 323 319 317 317 320 322 323 325 325 324 322 322
317 316 319 318 317 320 319 320 321 321 320 320 324 328 333 335 335 335 338 342 344 343 341 342 341 341 336 331 326 321 318 320 322 321 323 326 327 325 322 319 317 320 322 323 324 324 323 322 322
317 318 317 320 321 321 320 319 320 320 319 319 321 336 337 337 337 337 336 335 334 341 341 340 341 341 339 335 329 324 321 317 319 322 323 325 328 328 327 323 317 320 323 323 324 323 323 323 323
319 318 320 319 320 320 319 320 320 321 321 321 322 325 336 338 337 337 337 336 338 340 340 340 340 340 338 336 331 328 324 321 317 319 321 324 326 327 328 325 319 320 322 323 324 323 323 322 322
317 317 319 320 320 319 319 318 318 320 320 321 322 322 322 327 337 338 337 337 339 340 340 340 339 339 338 338 336 332 330 325 321 317 319 323 324 324 325 326 323 319 322 323 324 323 322 322 322
318 318 318 319 318 318 318 317 318 319 320 320 320 321 322 321 322 323 332 338 337 338 339 339 338 338 338 338 338 337 334 330 325 321 317 319 322 324 325 326 325 320 322 325 324 323 323 322 322
318 318 317 317 318 317 318 317 316 319 319 319 319 319 319 319 320 320 323 333 338 338 338 337 337 338 338 337 338 339 337 336 328 325 323 318 319 321 324 327 327 324 326 327 325 323 323 323 322
317 316 319 317 317 317 318 318 316 318 319 319 319 319 318 317 318 320 320 322 325 331 336 336 337 338 338 338 338 337 335 336 337 334 327 323 319 318 322 325 326 325 328 327 326 324 323 323 322
317 317 318 318 316 317 316 317 316 317 317 316 317 317 316 317 317 317 318 319 322 322 322 321 323 330 337 338 338 337 336 335 335 336 330 330 328 327 322 324 324 324 328 328 327 324 323 323 321
319 318 316 317 316 315 316 315 315 317 317 315 317 318 318 318 318 318 318 319 319 319 321 321 320 320 322 334 338 337 336 336 336 336 333 331 331 331 330 326 324 326 327 328 327 324 323 323 318
316 318 317 316 314 312 312 311 310 311 311 311 312 314 317 318 318 318 318 318 318 319 318 318 319 319 319 320 329 338 334 334 336 336 335 332 333 332 331 328 325 327 327 328 327 325 323 322 314
320 318 317 313 312 312 310 310 310 310 311 312 313 313 314 316 318 318 318 319 319 319 319 319 318 318 319 319 320 329 333 333 333 333 333 333 333 332 331 331 329 328 328 328 327 325 324 323 311
320 316 314 314 311 309 308 309 309 308 309 310 311 312 312 312 313 314 314 315 315 317 318 319 319 319 319 319 319 323 331 333 332 332 332 334 332 333 331 330 330 330 328 328 328 326 325 323 311
315 311 312 312 312 313 309 312 309 308 307 307 308 310 312 312 313 313 314 314 314 313 314 316 317 318 318 318 318 319 322 329 331 330 329 331 333 332 331 330 329 330 329 329 329 327 325 323 311
314 310 311 310 309 308 308 309 309 306 308 307 306 309 310 311 312 313 314 314 314 314 314 314 315 316 316 316 319 320 322 324 327 331 330 330 329 330 331 330 328 329 329 329 329 327 326 324 313
310 309 306 306 306 304 307 308 308 307 308 305 306 310 309 310 311 312 313 313 314 314 314 314 314 315 315 315 316 319 323 325 327 331 330 330 329 328 329 331 329 329 329 329 329 327 326 324 316
307 307 304 303 305 307 307 308 308 306 307 306 305 307 311 312 312 311 311 313 314 314 314 314 314 314 314 314 315 314 315 318 321 323 326 329 330 329 328 327 328 328 327 328 328 326 325 323 311
309 308 304 306 307 308 307 311 308 306 306 307 310 309 310 310 310 311 312 314 315 315 315 314 314 314 314 314 314 314 314 314 315 319 321 323 327 330 329 327 327 328 327 328 327 322 322 318 309
310 306 307 306 303 301 307 305 303 305 305 306 307 309 309 311 311 312 314 312 312 314 315 315 314 313 313 312 312 312 313 314 314 314 319 320 323 327 328 328 327 326 327 326 324 318 315 309 310
309 307 306 299 301 306 305 305 305 306 306 306 305 307 309 312 314 315 315 314 314 313 313 311 311 311 311 311 311 312 312 314 314 313 314 319 322 324 326 326 326 326 325 322 320 312 308 306 305
309 309 306 305 303 306 308 307 303 307 306 306 305 308 312 314 314 314 313 312 312 313 313 313 311 310 310 310 309 310 314 316 315 314 314 316 322 325 326 326 326 324 322 321 315 307 306 307 305
307 307 306 300 302 301 305 308 306 305 306 307 308 313 314 315 314 312 311 310 311 312 312 313 311 310 310 310 309 311 313 315 315 315 319 322 325 326 324 324 323 323 321 314 305 306 306 305 307

GFSSGP_850_thetae_042.txt.gz
Theta_e
323 323 322 323 319 317 321 320 319 321 322 321 322 322 322 325 328 329 336 338 334 331 334 340 337 336 341 341 339 337 337 336 335 336 333 327 326 325 311 327 327 332 334 335 338 336 330 327 320
323 323 321 323 318 319 317 318 320 319 321 320 322 326 328 331 336 335 337 335 335 333 330 330 335 338 340 341 344 338 337 336 335 335 335 325 326 313 315 328 330 335 337 337 338 331 328 325 320
323 322 323 318 317 318 317 316 318 319 321 320 321 323 325 331 334 334 335 333 333 335 329 325 327 328 342 343 335 331 335 335 334 333 328 326 319 310 312 324 325 335 333 333 330 327 326 320 312
322 321 321 319 321 319 316 319 317 317 321 321 320 322 332 334 335 334 335 334 333 336 330 324 323 326 326 327 325 324 329 333 332 328 326 318 311 310 310 314 319 325 328 327 327 327 315 313 316
321 322 319 320 320 319 316 318 318 317 318 319 320 320 329 335 335 335 335 335 336 334 331 325 322 322 323 323 320 319 319 320 329 325 318 311 312 311 310 310 314 323 327 326 321 313 315 318 321
322 319 318 321 320 318 316 319 318 317 318 320 319 324 329 335 335 335 336 336 338 335 332 326 322 321 320 320 319 318 318 337 328 318 313 312 312 313 313 312 311 311 312 313 316 320 323 324 325
319 317 319 318 319 316 316 318 318 318 318 318 320 326 329 331 333 336 336 336 337 337 333 327 322 321 321 322 318 320 321 329 323 315 314 314 314 314 315 315 315 315 316 318 321 323 325 326 325
322 317 318 317 317 317 317 318 318 318 319 320 320 323 327 330 331 334 338 337 339 338 335 329 324 322 323 322 318 322 322 325 319 317 317 319 316 316 315 316 317 317 319 321 322 325 325 323 322
319 317 318 318 317 318 317 318 320 320 320 320 320 322 326 328 333 333 338 340 342 340 336 333 326 324 324 324 321 319 323 324 319 320 320 323 325 318 317 316 317 319 321 322 325 325 323 322 321
316 316 318 316 315 316 318 319 320 321 319 320 321 329 327 331 334 333 334 336 342 341 341 336 331 329 328 327 325 321 319 319 323 319 322 324 326 324 320 318 317 320 322 326 327 324 323 322 321
317 316 316 318 319 320 320 320 320 320 319 319 319 325 334 335 337 337 337 336 334 339 340 340 338 338 338 335 331 325 321 318 320 321 320 323 326 326 325 321 318 320 322 323 324 324 323 322 322
318 317 317 318 320 320 319 319 319 320 320 321 321 321 329 335 337 338 338 336 335 334 337 340 340 340 340 339 337 331 325 321 318 320 322 323 325 327 327 325 321 318 322 323 324 324 323 322 322
317 317 318 319 319 319 319 318 317 318 319 320 320 321 321 323 335 336 338 339 338 338 337 338 340 340 340 339 337 334 330 326 322 318 318 322 323 326 327 326 323 318 321 322 324 323 323 322 321
317 318 318 318 318 318 317 317 317 318 319 319 319 320 320 320 321 323 334 336 337 337 337 338 339 339 339 339 338 336 335 332 328 324 319 319 322 324 325 326 325 323 319 322 324 324 323 322 321
316 317 316 316 317 317 317 316 315 318 319 319 319 319 319 319 320 320 321 321 333 337 337 337 337 339 338 338 338 338 337 336 335 332 325 319 319 322 324 325 325 324 321 321 324 324 323 322 321
316 316 318 316 316 317 318 317 315 317 317 318 318 318 318 318 319 319 319 320 320 326 337 337 337 338 338 338 338 338 337 334 336 335 330 325 320 319 322 324 326 327 324 324 326 326 323 322 322
316 316 317 318 315 316 315 317 315 317 316 315 316 317 316 317 317 317 317 317 318 319 321 331 336 337 337 337 338 337 337 336 336 335 335 333 329 323 318 322 324 327 326 325 327 327 324 323 322
318 318 316 317 314 315 315 314 313 314 314 314 316 317 318 318 318 318 317 317 318 318 318 319 320 321 322 323 328 335 336 336 336 335 336 335 333 328 322 319 321 325 325 324 327 327 325 323 322
315 316 316 315 313 313 312 310 310 311 311 311 313 314 316 318 319 319 319 318 318 318 318 319 319 319 319 319 321 323 330 335 336 335 333 335 334 332 330 329 324 325 324 323 326 327 326 324 322
317 317 317 314 312 311 310 310 309 310 311 312 313 314 315 316 317 317 316 316 317 317 317 318 319 319 318 318 319 319 320 323 328 333 332 331 333 333 332 330 329 328 325 325 326 327 327 324 321
319 319 316 315 311 308 307 311 308 308 308 309 310 310 311 311 312 312 311 312 312 313 314 315 317 318 319 318 318 318 320 321 323 327 331 329 332 331 331 331 330 329 326 326 327 327 328 326 323
319 312 312 311 312 314 308 313 309 308 306 305 306 307 307 309 309 309 310 312 312 313 314 313 314 316 317 317 317 317 319 319 320 320 323 330 331 329 330 332 331 328 329 327 327 328 327 326 324
317 310 310 309 308 308 308 308 308 305 307 306 304 308 310 310 311 311 311 312 312 313 313 313 313 313 314 316 317 317 318 318 321 320 322 328 331 329 328 328 330 328 328 328 328 328 327 327 326
309 307 306 306 306 304 306 307 306 306 306 305 304 308 309 310 311 311 312 312 314 314 313 313 313 313 314 315 315 316 316 317 320 322 324 325 330 330 329 329 327 327 327 329 328 328 327 326 325
308 309 307 304 303 307 306 308 306 306 306 306 305 308 309 312 313 313 313 312 312 314 315 315 314 314 313 313 314 314 315 315 317 319 322 324 325 326 329 329 329 327 326 326 328 327 327 326 324
309 308 306 306 307 307 306 310 307 304 306 307 307 309 312 314 315 315 315 314 314 313 312 314 314 314 314 313 314 314 313 313 314 315 316 319 321 323 325 328 329 329 327 326 327 327 326 326 322
309 305 305 304 302 300 305 304 301 305 304 305 306 309 311 314 314 315 315 314 314 314 313 313 313 312 313 313 313 312 312 312 313 313 314 315 317 320 322 325 326 329 328 327 326 327 326 324 319
308 305 306 298 302 305 303 304 303 306 306 305 306 307 312 314 315 315 314 313 311 312 312 313 313 312 312 310 310 310 310 310 312 313 314 314 314 317 320 324 326 326 328 328 327 326 323 320 313
309 308 304 304 302 304 306 305 302 304 306 306 305 309 313 315 315 314 312 311 310 311 311 312 312 312 312 310 310 310 310 310 310 313 316 315 315 316 320 324 326 326 326 326 324 322 320 314 308
307 307 304 300 301 302 303 305 305 304 305 305 307 311 314 312 312 312 311 310 311 311 311 312 312 313 312 311 311 310 310 309 312 314 316 315 317 319 321 324 324 324 323 321 321 317 312 306 304

GFSSGP_850_thetae_045.txt.gz
Theta_e
323 323 322 323 324 322 323 322 319 322 322 320 321 321 324 323 332 335 334 337 331 332 336 344 341 335 338 339 341 340 339 337 336 333 329 333 329 325 313 323 325 328 329 336 337 335 328 321 320
323 323 321 322 324 323 322 319 321 321 321 320 320 321 327 330 335 334 337 337 333 331 329 336 337 341 339 340 339 338 337 336 336 334 326 324 324 312 324 332 336 337 338 339 336 329 325 324 314
323 322 322 323 320 322 321 317 320 319 320 319 320 322 323 329 334 335 335 333 335 331 326 327 334 335 336 338 341 338 336 335 335 333 322 323 314 311 325 331 335 336 337 337 332 326 322 314 311
322 322 320 322 323 320 318 319 318 318 319 320 319 321 329 333 335 334 335 334 334 333 328 325 331 338 340 340 341 334 336 334 333 327 322 318 310 310 317 323 331 334 333 329 325 323 315 313 315
322 321 322 322 322 320 317 317 318 319 318 319 319 321 323 334 335 334 335 334 335 336 330 326 324 333 330 329 336 328 332 331 330 328 320 312 311 310 311 315 321 326 325 325 325 314 315 317 320
321 319 322 325 322 319 318 319 317 317 317 319 319 321 326 334 336 335 335 335 336 336 331 327 327 329 321 325 323 321 319 319 326 323 315 312 312 312 311 312 320 324 325 318 314 316 320 323 324
321 321 322 321 322 320 318 318 318 317 318 319 320 322 325 330 335 335 335 335 336 336 332 328 323 323 323 321 319 319 319 330 328 321 312 313 313 313 313 312 312 312 312 315 319 322 323 325 324
321 319 320 319 320 321 316 318 318 318 318 319 320 322 324 329 334 335 336 335 336 336 334 330 324 322 320 320 319 318 320 335 325 316 314 314 314 315 315 315 315 316 317 320 322 323 324 323 322
319 321 320 321 318 319 316 316 318 318 319 320 320 321 323 327 332 335 336 335 336 337 335 332 327 322 322 322 321 319 321 323 325 316 316 318 317 316 316 316 317 318 321 322 324 325 323 322 321
318 320 320 316 317 317 317 318 319 320 319 319 320 325 327 324 332 334 336 336 336 337 336 334 330 324 324 324 323 320 319 319 322 318 320 321 325 319 318 317 318 320 322 323 328 324 322 321 321
316 319 317 318 317 318 319 319 319 319 319 319 319 325 332 332 342 339 337 336 337 338 338 338 335 328 326 327 326 325 321 320 320 320 320 322 324 326 321 319 317 320 321 325 327 323 323 322 322
318 317 317 318 320 320 319 319 318 319 319 320 320 320 323 333 341 342 340 337 339 338 339 339 338 334 334 335 334 332 328 323 320 320 320 320 322 326 326 323 320 317 320 322 323 323 323 322 322
317 317 318 318 318 318 318 318 318 318 318 319 319 320 320 321 330 336 338 339 338 337 335 336 337 338 338 338 338 337 335 329 324 320 321 321 321 323 327 327 324 321 319 321 322 323 323 322 321
317 317 317 318 318 318 317 317 317 318 318 318 318 318 319 320 321 324 328 334 336 337 337 336 336 337 339 335 337 338 337 334 330 326 321 319 321 322 324 327 327 325 318 320 322 323 323 322 322
316 317 317 317 317 317 317 317 316 317 317 318 317 318 318 319 319 321 322 322 325 331 334 335 336 338 338 338 338 338 337 336 335 333 329 324 320 319 321 325 326 326 324 320 321 323 323 323 322
317 316 318 316 316 316 317 317 315 316 317 317 317 317 317 317 317 318 319 319 319 319 321 328 335 336 336 336 337 336 335 335 336 336 335 333 327 321 319 322 324 325 325 323 320 323 324 323 322
316 317 317 317 315 316 316 317 315 316 315 316 316 317 317 317 316 316 316 317 318 317 318 319 324 335 337 336 336 335 335 335 336 336 335 335 333 327 321 320 322 324 326 326 323 324 325 324 323
319 317 316 316 314 315 316 316 315 316 312 313 314 315 316 317 317 318 317 316 317 317 316 317 318 323 334 336 337 336 334 334 336 335 335 335 335 333 328 324 320 323 325 326 326 325 326 326 323
315 316 317 315 312 313 314 312 312 312 312 312 313 315 316 316 316 317 317 317 317 318 318 317 318 318 320 323 326 324 323 325 331 333 331 332 334 334 333 331 325 320 322 324 326 325 327 326 324
316 316 316 314 311 312 311 311 311 312 311 311 311 311 311 311 311 311 311 312 312 314 315 316 317 317 318 318 319 320 320 321 323 326 330 331 331 331 332 333 330 325 321 322 325 325 325 327 324
318 317 315 316 311 308 309 313 310 309 307 306 306 306 307 308 309 309 311 311 311 312 312 313 314 316 317 317 318 318 318 319 320 322 322 327 330 331 330 330 330 330 327 325 325 324 324 327 326
320 313 313 312 313 316 308 317 310 307 306 304 307 308 309 310 311 311 312 313 312 311 312 313 313 313 314 316 317 317 317 318 318 318 319 320 323 328 329 329 330 330 329 329 328 325 324 326 327
317 311 310 309 309 310 309 312 310 305 307 305 306 307 310 312 313 314 313 312 313 314 313 313 312 313 313 312 313 315 317 317 317 317 318 320 321 325 327 328 329 328 328 329 328 328 325 325 327
309 308 306 306 307 313 307 308 307 307 307 305 305 308 310 314 315 315 314 313 313 313 314 314 314 313 313 312 312 313 314 316 317 318 318 319 320 322 324 325 329 329 328 327 327 328 327 326 326
309 313 313 309 309 315 306 308 308 305 306 306 306 308 311 314 315 315 315 315 314 314 313 313 314 314 314 314 313 312 313 314 316 318 318 320 320 321 321 322 326 329 328 328 327 327 327 327 326
310 310 313 312 309 309 306 310 309 304 303 307 307 309 311 314 315 315 314 314 314 313 313 313 313 313 313 313 313 313 313 313 313 314 316 317 319 321 322 322 323 324 326 328 328 327 326 328 326
310 310 304 305 302 307 306 305 302 304 304 305 307 311 313 315 315 314 313 312 311 310 311 312 312 313 313 313 311 311 311 312 313 313 313 314 314 315 317 322 325 324 325 326 327 327 327 326 326
308 305 309 304 308 309 303 303 304 304 306 306 307 308 311 314 314 313 312 311 310 310 311 311 311 311 313 312 312 310 310 310 310 310 310 312 313 313 314 318 323 325 326 326 327 327 327 326 323
308 308 305 304 303 306 305 305 302 305 306 306 305 309 312 313 312 311 311 311 310 311 312 311 312 312 312 312 311 310 310 310 310 310 310 310 312 315 315 316 321 325 326 326 324 326 325 323 321
307 307 304 306 304 303 304 306 304 303 304 304 306 308 311 313 311 310 309 310 310 311 312 311 311 311 312 312 312 311 311 310 310 310 310 312 314 316 316 318 320 321 323 323 322 322 321 319 317

GFSSGP_850_thetae_048.txt.gz
Theta_e
323 322 322 324 327 326 326 324 324 326 326 323 323 325 327 327 333 336 333 338 338 342 345 341 343 334 339 339 339 339 340 340 338 335 336 335 331 327 314 318 325 324 327 337 336 333 324 316 322
323 323 322 324 326 327 325 324 324 325 324 322 322 323 328 332 337 340 342 337 340 345 345 343 339 338 341 344 342 340 339 337 337 333 327 329 325 315 326 334 335 335 338 339 336 329 322 318 313
323 323 325 326 326 327 325 323 323 323 322 322 324 324 326 331 337 341 338 336 342 344 344 343 338 338 337 341 340 339 337 336 337 334 321 323 314 319 334 336 337 338 340 337 332 327 318 311 311
323 323 323 326 326 325 324 324 322 323 322 322 322 326 329 332 337 339 335 334 343 344 343 337 337 341 340 342 342 338 336 335 335 327 317 315 310 318 330 335 335 336 337 335 329 321 313 313 316
323 325 328 328 326 325 323 322 322 323 322 322 321 325 326 335 335 335 336 336 344 343 343 336 336 337 338 342 340 339 336 335 333 327 317 311 310 312 319 331 330 335 333 326 322 315 314 317 320
324 325 329 329 326 325 323 322 322 322 321 321 322 324 327 332 336 335 336 341 343 343 341 340 340 342 342 341 341 337 337 336 331 327 317 312 311 311 312 318 328 328 325 323 317 315 319 322 324
325 326 328 328 327 326 324 322 322 322 322 321 321 324 328 335 335 335 335 341 341 342 337 339 335 342 340 337 328 326 327 332 328 322 314 312 313 312 311 316 322 324 321 314 316 320 323 325 324
322 325 327 327 327 326 324 321 321 320 321 320 320 324 327 332 334 335 336 336 337 340 337 338 339 337 335 329 323 321 320 330 335 325 313 313 314 314 313 312 312 312 313 317 321 323 325 324 322
321 324 326 326 325 323 320 321 319 319 320 320 321 323 327 324 330 336 337 337 337 340 340 339 338 337 335 332 322 320 319 336 332 324 314 315 319 315 316 316 315 316 319 321 325 324 323 322 321
319 322 322 322 322 322 319 320 321 321 321 321 322 323 325 326 328 339 339 337 337 337 337 338 337 336 330 324 327 320 329 334 332 324 317 323 330 328 325 317 318 319 329 327 327 325 322 321 321
318 320 320 320 319 318 320 320 321 321 322 321 321 324 331 330 331 341 341 338 334 336 337 335 336 335 328 325 329 332 336 334 334 331 329 330 331 329 323 323 318 324 324 327 329 327 323 322 321
319 317 318 320 320 320 320 320 321 320 320 320 322 321 321 335 338 342 343 337 337 337 338 338 337 335 328 327 327 332 335 333 333 330 330 330 329 331 331 330 327 328 328 330 329 326 323 322 322
319 319 318 319 320 320 320 321 320 320 320 320 320 319 321 321 330 338 339 338 336 335 337 338 338 338 334 331 334 335 335 333 331 327 324 330 329 331 331 331 330 328 329 329 328 323 323 322 322
318 318 318 318 319 319 320 320 319 319 319 319 319 318 319 320 321 323 331 338 340 340 338 337 336 338 338 337 337 337 337 336 335 330 326 322 326 325 327 330 331 330 328 327 325 322 323 323 322
318 319 318 319 318 318 318 319 319 318 318 318 318 317 318 319 320 320 322 323 326 332 338 340 337 335 336 338 339 337 336 336 336 335 333 327 323 323 323 325 330 329 328 325 321 322 322 323 322
319 318 320 317 318 318 318 317 317 317 318 318 317 317 317 317 317 318 319 319 319 320 322 329 336 334 335 335 336 336 337 335 334 336 335 334 330 325 322 325 329 329 329 326 322 320 322 323 323
318 316 317 317 318 317 318 316 316 316 316 317 317 317 317 317 317 316 316 316 317 318 318 319 319 329 332 329 335 336 336 335 335 336 335 333 334 332 328 324 327 329 328 326 325 322 321 323 324
318 316 317 316 317 318 319 317 317 317 317 317 317 316 317 317 317 317 317 317 317 317 316 317 317 319 324 333 330 335 334 334 336 335 334 335 333 333 333 330 327 327 326 326 326 325 323 324 325
317 316 315 316 314 317 318 318 318 317 317 316 316 316 317 316 316 314 315 316 316 317 318 318 318 317 318 329 329 330 336 335 334 332 331 334 333 333 333 333 331 326 324 325 324 326 327 324 325
316 316 316 317 314 316 317 317 317 317 316 314 313 313 313 313 312 310 311 312 313 314 315 316 317 317 317 319 329 321 325 332 333 333 329 329 331 330 331 331 331 331 329 325 323 324 326 326 326
318 317 318 318 315 312 314 317 315 311 310 310 310 308 309 311 312 313 314 312 311 311 311 312 313 315 317 317 318 327 331 330 321 322 323 323 325 328 330 330 330 330 330 329 325 322 323 327 325
319 318 317 317 319 319 313 318 314 310 311 311 311 311 312 313 314 314 314 314 313 313 313 312 312 312 313 314 315 317 326 329 325 320 320 320 321 322 326 330 328 328 329 329 329 326 323 326 326
317 315 315 314 317 317 315 318 314 310 311 311 311 312 313 313 314 315 314 313 313 313 314 314 313 313 312 313 312 313 319 327 328 329 328 321 318 319 320 321 327 327 328 329 328 328 326 324 326
311 312 311 312 315 322 316 314 312 311 311 311 311 312 313 313 314 315 315 314 314 313 313 313 313 314 313 313 312 312 312 321 327 328 328 326 323 319 319 320 322 326 327 327 328 328 328 326 326
314 318 322 323 322 322 310 311 313 310 310 311 312 312 313 314 315 315 315 314 314 314 314 314 313 313 313 313 313 313 312 313 323 326 327 327 327 320 319 321 323 324 325 325 326 326 327 327 327
315 318 321 320 315 313 308 312 312 309 308 310 310 311 311 314 315 315 314 313 312 311 311 312 313 313 313 313 313 312 313 313 313 313 317 325 327 326 319 319 321 324 325 325 326 326 326 327 327
314 318 309 312 308 313 312 310 308 307 309 309 312 313 313 315 315 314 313 312 311 310 311 311 311 311 312 312 312 312 311 310 311 312 313 313 315 316 316 317 319 323 325 326 326 326 327 327 327
313 309 315 314 317 317 311 309 312 310 310 310 312 313 313 315 314 313 313 312 311 310 312 311 311 311 312 312 312 312 311 310 310 310 310 310 311 313 313 313 314 315 319 325 326 325 324 326 325
311 313 310 311 310 312 309 309 308 310 311 310 310 312 314 315 313 311 310 310 310 311 312 311 311 311 311 311 311 311 311 311 310 310 310 310 310 311 311 313 315 316 318 322 324 324 324 323 323
310 312 310 315 313 309 311 311 308 309 309 308 310 312 314 314 311 308 306 307 309 310 311 311 310 310 310 310 310 310 310 310 311 311 311 311 311 312 314 314 316 319 321 322 321 322 322 322 321

GFSSGP_850_thetae_051.txt.gz
Theta_e
322 325 325 325 328 327 329 327 325 327 326 325 326 326 327 328 332 340 339 344 343 346 345 341 344 340 338 341 340 339 339 340 339 338 337 336 332 326 314 319 323 322 331 337 336 328 318 315 323
328 327 325 327 327 330 328 327 325 326 326 325 325 326 327 330 336 344 345 344 344 346 346 343 340 337 339 343 339 339 340 339 336 325 328 332 325 315 333 333 330 333 338 337 335 328 319 313 314
324 326 326 327 328 328 328 326 324 325 324 325 326 326 329 333 339 343 345 343 345 347 346 344 335 337 342 342 340 340 339 338 337 328 323 323 313 326 337 338 338 338 339 336 333 324 314 310 311
327 325 326 329 328 327 327 325 323 325 324 324 325 327 329 337 339 343 343 343 345 345 346 343 337 339 342 343 341 340 338 337 336 329 320 314 313 330 335 337 336 339 337 335 331 318 312 314 316
326 326 329 329 328 326 326 324 323 324 324 325 324 327 330 341 342 344 343 343 345 344 346 340 339 339 341 341 341 339 338 336 336 323 314 311 313 322 331 335 335 336 336 332 322 314 314 317 320
326 327 330 331 329 327 326 324 323 324 324 323 324 326 333 342 344 345 344 344 344 344 345 341 337 339 339 340 340 340 338 337 337 328 314 311 311 312 316 329 331 334 331 323 318 314 318 322 323
326 329 331 330 328 328 326 324 323 323 324 323 323 326 332 341 345 344 345 345 345 344 343 342 338 340 340 340 341 339 336 337 334 327 315 312 311 311 313 318 328 327 324 320 314 318 322 324 323
324 328 330 329 328 328 326 324 323 323 323 322 322 325 329 336 343 335 341 345 345 344 342 341 340 338 341 340 338 335 330 327 328 325 316 313 313 312 312 317 321 322 318 314 318 321 323 323 321
322 327 329 328 327 327 325 325 323 322 322 321 321 324 332 334 332 334 336 338 341 344 342 341 340 340 340 339 332 326 322 322 335 329 317 313 314 314 313 313 313 313 314 318 323 322 323 321 321
322 327 326 325 325 325 325 323 323 322 321 321 321 324 334 335 325 333 338 339 338 343 343 342 340 340 339 336 335 323 323 328 338 332 320 316 329 323 323 319 316 316 323 326 323 324 322 321 321
319 321 322 322 321 321 323 321 321 322 322 321 322 323 330 336 333 339 340 341 338 338 341 342 341 340 338 335 335 332 333 334 337 335 332 330 332 330 323 320 317 318 320 326 325 327 323 321 320
320 319 319 320 320 320 320 320 321 321 322 322 322 323 323 333 337 339 339 341 342 340 340 337 341 341 338 336 334 334 337 337 336 335 332 332 333 333 331 329 322 322 329 330 329 328 325 322 321
319 320 319 320 320 320 319 320 320 321 321 322 322 321 322 322 328 337 338 340 341 341 340 339 338 340 341 337 336 335 335 337 336 335 332 331 333 333 333 332 331 329 331 331 332 331 327 323 321
319 319 319 319 320 320 321 320 321 321 321 321 320 320 320 320 322 325 334 339 340 340 341 340 338 337 340 340 338 339 338 337 338 337 334 331 331 332 332 333 333 331 329 330 330 330 327 322 319
319 319 319 319 319 320 319 320 321 320 320 320 319 319 319 319 319 321 324 327 334 338 340 342 340 334 337 341 337 339 340 339 338 338 337 333 329 330 332 332 332 332 332 330 329 329 326 321 318
319 319 320 319 319 318 318 319 319 319 319 319 319 318 318 318 318 318 321 323 324 324 326 333 339 341 341 341 338 337 340 340 339 338 338 337 335 330 330 330 331 332 332 332 329 328 325 320 319
319 318 319 318 318 319 319 318 318 317 317 318 318 318 318 318 318 317 317 319 320 322 322 323 324 332 338 340 340 335 335 338 339 339 338 338 337 335 332 331 330 331 331 330 330 328 324 321 320
318 317 316 316 319 318 319 318 318 317 317 317 318 318 317 317 317 317 317 318 319 319 319 320 320 321 326 333 337 337 330 331 336 339 338 337 337 335 334 333 332 331 331 329 330 328 326 322 320
315 316 315 316 317 318 317 318 318 317 317 317 317 317 317 317 317 317 317 316 316 316 317 318 319 319 320 324 330 335 332 323 325 334 337 337 335 335 336 334 333 332 331 330 329 328 326 323 321
316 316 316 317 316 316 316 317 317 317 317 317 317 317 317 317 316 314 313 314 313 313 314 315 316 318 319 319 322 327 331 323 320 323 332 336 336 334 333 334 333 333 332 331 330 329 326 323 322
316 316 316 317 317 316 317 317 317 314 313 312 312 312 312 313 314 315 316 316 316 315 312 312 313 315 316 317 318 320 328 332 331 327 324 331 334 336 336 333 333 333 332 331 331 329 327 324 322
317 316 317 318 318 316 316 315 318 313 313 313 313 313 314 315 315 316 316 316 316 314 313 313 313 312 312 313 315 317 321 327 331 332 333 330 326 325 326 329 332 333 333 332 331 330 329 326 322
318 318 318 318 319 319 318 318 317 313 313 313 313 314 315 315 316 316 316 316 316 313 313 313 314 315 313 312 312 312 313 315 322 328 330 330 330 329 324 323 328 330 330 331 331 330 330 329 324
316 316 316 317 318 323 320 318 315 313 313 313 313 314 315 315 316 317 317 316 316 315 314 313 313 313 315 314 313 313 312 313 317 322 328 329 330 330 330 328 326 329 331 332 333 330 329 328 327
316 319 323 324 324 322 314 316 317 313 313 313 314 314 315 316 317 317 317 316 315 314 314 313 314 314 314 314 314 315 314 313 312 317 322 326 327 327 327 326 325 325 327 331 331 330 327 327 327
318 320 323 322 322 321 311 315 315 312 312 312 313 314 314 316 317 316 316 315 314 313 313 313 312 312 313 314 315 315 315 314 314 315 315 321 325 326 328 328 326 322 321 326 330 328 328 328 326
315 320 312 315 312 315 313 312 311 310 310 312 314 315 316 317 317 316 315 314 314 312 312 312 312 312 312 312 313 314 315 315 313 312 314 315 318 321 324 325 327 324 320 322 327 326 325 325 325
317 315 319 319 322 318 315 313 313 310 311 313 314 314 315 317 316 315 314 313 313 311 311 311 310 310 310 311 311 311 312 312 311 311 312 314 316 317 319 322 322 324 321 320 324 325 325 324 323
313 315 314 315 314 317 314 311 310 311 312 312 311 313 315 317 315 313 311 310 312 311 310 310 310 309 309 310 310 310 310 311 311 311 311 311 310 311 312 313 316 317 317 317 317 322 322 320 320
313 315 315 318 317 313 314 313 309 312 312 311 311 314 315 316 314 311 309 309 310 309 309 308 309 309 309 310 309 309 309 309 310 310 311 311 311 311 311 313 315 316 317 318 319 319 319 318 317

GFSSGP_850_thetae_054.txt.gz
Theta_e
323 323 327 326 329 328 329 327 324 326 326 326 326 326 325 327 341 347 343 342 343 342 332 332 342 344 338 341 341 340 339 339 338 337 335 335 330 320 316 321 320 326 337 336 333 325 317 314 323
323 328 326 325 329 329 328 326 326 324 325 325 325 326 326 337 342 344 345 343 347 344 337 338 340 342 340 340 340 339 340 339 337 326 328 330 320 331 330 328 325 333 338 336 332 323 312 312 314
323 328 328 327 328 328 329 326 324 325 324 325 326 326 328 338 342 344 347 343 346 347 343 337 342 338 344 342 339 339 339 335 322 321 324 321 318 336 336 337 337 339 337 334 333 317 311 311 312
323 327 326 328 328 326 325 324 324 324 325 325 325 327 335 339 342 344 342 344 346 347 346 338 332 340 341 341 340 339 337 336 326 321 319 312 327 336 337 337 337 337 335 334 331 313 313 315 318
327 325 327 328 329 327 324 324 323 324 325 325 324 328 340 342 344 343 344 346 346 346 347 342 335 341 344 342 341 339 338 336 334 320 314 311 321 331 334 334 336 335 336 334 320 313 316 319 321
328 326 330 330 328 327 325 323 323 324 324 323 323 330 341 344 345 344 343 345 344 345 346 344 334 337 340 342 340 339 337 336 334 321 312 311 313 316 327 331 333 333 334 323 316 316 319 321 322
326 327 330 329 328 328 326 325 323 323 324 324 323 325 343 345 346 345 345 345 344 344 345 337 335 339 340 339 338 339 337 336 333 324 313 311 311 312 314 324 326 328 323 319 314 318 322 322 321
325 326 329 329 329 329 327 325 323 323 323 323 322 327 338 345 339 345 345 345 345 344 343 342 334 330 335 340 340 339 336 335 333 325 314 313 312 312 314 317 322 321 319 315 317 320 322 321 320
324 327 329 329 329 328 327 325 324 323 323 322 322 330 334 343 337 337 344 345 345 344 342 341 340 336 336 337 335 335 336 329 326 327 318 313 314 313 312 318 320 319 315 315 318 320 321 320 320
322 325 327 326 326 325 325 325 324 322 322 322 321 325 332 334 328 331 334 340 344 344 342 341 340 340 340 339 339 331 323 321 321 326 324 314 315 316 315 314 314 313 314 317 320 320 320 320 320
321 323 324 325 323 321 324 324 323 322 321 321 321 323 332 336 334 335 334 335 336 344 343 341 340 340 339 338 335 332 322 321 323 332 325 316 327 329 323 319 316 316 317 318 320 322 321 320 320
320 320 321 322 320 320 321 322 322 321 322 322 323 324 328 333 336 334 337 340 340 338 343 342 342 340 339 337 334 334 330 335 332 334 334 326 331 331 331 321 318 317 317 319 321 323 326 321 320
320 319 319 319 320 320 320 320 319 321 321 322 323 322 322 323 329 336 337 338 342 342 336 338 342 341 340 337 335 334 334 338 336 337 336 331 331 333 333 330 329 327 320 328 328 330 326 325 322
319 319 319 319 320 320 319 318 319 320 321 322 321 321 320 321 322 324 336 338 339 340 340 338 335 338 340 340 336 335 335 336 337 336 335 332 331 332 332 333 332 331 328 331 331 332 331 329 323
319 319 319 319 320 320 319 320 319 320 321 321 321 321 320 320 319 320 322 327 337 340 340 340 336 333 337 340 339 337 338 337 337 337 337 336 331 332 332 331 333 333 332 329 330 330 330 329 324
319 319 320 319 319 319 319 320 319 320 321 321 320 320 319 319 319 318 319 322 325 329 330 340 341 340 337 336 342 339 339 340 339 338 338 338 336 332 330 331 330 333 333 332 330 329 329 328 325
319 320 320 319 318 319 318 319 318 319 320 320 319 319 319 318 318 318 318 318 319 322 324 327 330 337 341 340 339 340 336 338 339 339 338 338 338 336 334 330 329 329 331 332 331 330 329 328 325
320 319 318 318 318 318 319 318 317 318 318 317 318 318 318 318 318 318 317 317 317 318 319 321 322 323 328 334 339 339 337 334 336 338 339 338 337 336 336 335 333 331 329 331 331 330 329 328 326
316 317 317 317 318 317 317 317 317 317 317 317 317 317 317 317 317 317 317 318 318 318 319 319 319 320 320 320 327 332 335 334 333 329 330 336 337 336 334 334 334 333 331 331 330 330 329 328 326
316 316 316 316 317 317 316 316 315 316 316 317 317 317 317 317 317 316 316 315 316 315 315 316 316 317 318 319 320 324 328 330 329 328 325 325 332 339 337 335 332 332 332 332 331 331 330 328 327
316 316 315 316 316 316 316 315 315 315 315 315 313 313 314 314 314 314 316 316 315 315 314 313 314 315 316 317 318 319 322 322 333 331 324 320 322 330 335 336 336 332 331 332 331 331 331 330 328
316 315 316 318 317 316 315 310 314 314 312 312 313 312 313 314 315 315 316 316 316 315 313 313 313 313 312 313 315 317 317 319 323 331 331 328 327 324 325 332 333 334 335 334 331 331 331 330 329
317 317 318 318 318 318 316 316 316 311 312 312 313 314 315 315 316 316 316 316 316 315 313 313 313 314 315 314 313 312 312 313 316 323 327 330 331 331 328 326 327 330 332 333 331 331 331 330 329
318 316 316 317 318 321 318 315 313 312 312 311 313 314 315 315 316 317 317 316 316 315 314 313 313 313 314 315 315 314 314 313 312 312 314 318 325 329 329 329 328 331 329 329 330 329 329 329 328
316 317 317 320 319 320 315 316 314 311 311 311 312 314 315 316 317 317 317 316 315 314 314 313 313 313 314 314 314 315 316 316 314 313 313 317 322 326 327 327 326 326 329 329 327 326 326 327 328
316 318 318 319 321 317 311 314 312 310 312 313 314 314 315 316 317 317 316 315 315 314 313 312 312 312 312 313 314 314 315 315 316 316 316 315 316 322 324 325 325 325 327 329 328 324 324 325 325
316 318 311 314 311 314 311 312 311 309 310 312 313 314 315 317 317 316 315 315 314 313 312 311 311 311 311 311 311 313 314 314 314 313 313 313 313 314 318 320 323 324 323 325 326 325 322 323 324
315 316 318 312 315 317 312 311 310 308 308 310 313 315 316 317 317 315 314 313 313 312 311 311 310 310 310 310 310 311 311 311 311 311 311 311 311 312 312 314 318 321 323 322 322 323 320 321 320
314 317 316 314 312 316 313 310 309 308 308 310 311 314 315 317 316 314 312 311 310 311 310 310 310 309 310 309 309 309 309 309 309 310 311 311 311 310 310 311 312 315 316 316 320 319 319 317 318
312 315 314 318 319 310 310 311 308 308 309 311 311 314 315 317 315 312 310 309 310 310 309 308 308 309 309 309 309 309 309 309 310 310 309 310 310 310 310 310 311 312 314 317 316 317 317 316 316

GFSSGP_850_thetae_057.txt.gz
Theta_e
323 322 327 328 323 321 325 326 322 324 323 324 325 324 325 333 342 342 341 342 343 338 332 340 338 340 335 338 341 340 339 337 336 334 334 333 324 315 320 319 326 337 336 333 328 315 312 319 323
323 323 327 325 324 325 324 322 322 322 324 325 325 324 334 341 341 342 343 345 344 339 335 341 343 339 340 340 340 339 338 338 337 326 328 323 326 327 326 323 335 338 337 334 327 312 311 314 320
324 327 329 322 323 325 324 322 321 322 324 325 325 325 334 339 344 343 343 347 345 337 333 338 347 341 342 339 338 338 338 337 321 320 321 320 336 335 333 334 338 338 335 334 325 311 311 311 313
324 327 327 324 325 324 324 322 321 323 324 325 325 334 338 341 343 344 344 345 346 343 338 341 343 339 341 339 338 338 335 323 319 318 314 326 335 336 336 337 337 335 333 333 318 313 314 316 317
325 326 324 325 325 324 322 323 323 322 323 324 324 334 342 343 339 343 345 345 347 345 342 339 337 341 341 339 340 338 337 329 321 317 312 322 333 333 334 334 335 333 333 331 314 315 317 320 320
324 325 327 328 326 324 323 322 322 322 323 322 331 338 343 344 341 344 345 346 346 345 346 340 335 342 342 341 339 338 337 328 316 315 311 314 323 328 331 331 333 331 333 319 314 317 320 321 320
324 325 327 326 327 326 324 324 321 322 322 323 323 336 344 344 342 344 345 345 345 346 345 344 334 340 342 340 339 337 337 329 317 315 312 312 312 317 324 325 327 329 324 317 315 319 321 320 319
325 324 326 327 328 329 326 323 323 323 322 322 324 335 341 345 344 344 344 344 344 344 343 337 335 336 339 338 339 338 337 334 325 319 313 312 312 312 314 320 321 320 318 316 316 319 320 319 319
325 327 327 328 329 328 326 325 322 322 322 323 332 337 340 341 345 344 344 344 344 343 341 341 333 332 334 336 338 336 336 329 325 321 315 313 313 313 313 316 318 318 317 315 317 319 320 319 319
325 327 324 323 325 325 325 325 324 322 321 324 333 334 334 337 340 344 344 344 343 342 341 341 340 339 331 333 332 332 325 323 320 320 319 314 314 314 313 315 316 316 315 315 318 319 320 319 319
321 325 324 323 323 324 323 325 325 320 320 321 330 328 327 330 329 335 344 344 344 342 341 341 340 340 338 335 336 334 329 321 320 321 323 316 315 318 316 316 315 314 315 316 318 319 320 320 319
320 321 323 323 323 323 321 321 323 321 321 322 321 326 329 330 331 330 331 335 343 342 341 341 340 340 339 338 338 333 329 323 328 323 328 324 320 324 327 325 319 317 316 317 319 320 322 321 320
321 319 320 320 319 321 320 319 318 319 321 322 325 329 329 330 333 335 334 333 339 341 342 341 340 340 339 339 337 332 331 332 335 333 334 333 328 326 330 330 327 321 319 317 319 322 325 325 321
320 320 319 318 319 320 318 318 319 319 320 321 321 321 321 322 322 327 337 337 336 339 338 341 341 340 339 339 338 334 332 333 337 336 335 335 333 329 331 331 329 328 328 326 323 327 329 329 326
318 320 319 318 319 319 319 319 317 319 319 320 321 321 320 320 320 321 322 329 338 338 339 338 334 338 339 338 339 336 334 334 335 336 336 335 335 331 331 332 330 329 332 331 329 329 331 331 330
318 318 320 317 318 319 318 319 317 319 319 320 320 320 320 319 319 319 319 321 323 329 337 338 340 340 338 336 337 338 336 336 336 336 337 337 336 335 331 331 331 330 331 332 332 330 329 330 330
319 319 319 318 318 318 318 318 317 318 318 320 320 320 319 319 319 318 318 318 319 322 324 325 330 335 338 339 338 337 337 338 338 337 338 337 337 336 335 333 332 330 330 331 332 332 330 329 329
319 317 319 318 317 317 318 317 316 316 317 319 320 319 318 318 318 318 317 317 317 317 320 322 322 323 323 329 336 339 338 337 337 337 337 336 337 337 334 334 333 333 330 330 330 331 332 331 328
317 317 318 317 316 318 318 317 317 317 316 316 316 317 317 317 317 317 317 317 317 317 317 318 319 321 321 322 323 327 334 337 335 336 335 335 337 335 336 335 334 333 334 333 330 329 331 331 330
315 316 315 315 316 316 317 316 316 315 314 316 316 316 317 316 315 315 316 317 317 317 317 318 319 319 320 320 320 320 321 324 328 331 331 332 332 331 330 331 335 334 334 334 332 331 330 330 331
314 313 314 315 315 314 315 314 313 313 315 316 315 315 315 315 314 314 315 315 315 315 315 315 315 316 316 316 318 319 319 319 321 323 327 331 331 328 327 329 331 331 333 332 332 331 331 329 329
315 313 315 316 315 315 314 312 310 312 311 311 313 313 313 313 315 316 316 316 315 314 313 313 313 313 313 313 315 317 318 318 318 319 321 329 330 329 328 326 328 328 329 330 329 330 329 328 328
316 315 316 315 315 316 315 313 312 310 311 310 310 312 313 315 315 316 316 315 314 314 313 313 313 314 314 313 313 313 312 312 312 313 317 321 324 328 329 329 326 324 325 325 327 329 329 330 330
315 315 314 314 315 316 316 313 312 311 313 309 310 314 315 315 316 316 316 315 316 315 314 313 313 313 313 313 313 314 313 313 313 313 312 312 315 319 322 325 326 327 327 326 326 326 326 328 330
315 315 312 313 312 315 312 314 313 311 309 309 311 314 314 315 316 317 317 316 316 315 314 314 313 313 313 313 313 313 314 315 315 314 314 313 312 316 321 324 326 326 326 325 324 325 324 324 325
316 314 312 314 314 315 310 316 313 308 310 312 313 314 315 316 317 317 316 315 314 314 314 313 312 311 311 312 312 313 314 314 315 315 315 315 315 314 315 321 324 322 324 324 324 322 323 323 323
316 313 311 311 310 308 311 310 309 309 310 311 312 314 315 316 317 316 316 315 314 314 313 311 311 311 311 311 311 311 313 314 314 314 313 313 312 312 313 314 317 320 320 321 323 323 320 321 321
315 314 315 307 313 313 311 310 311 309 310 310 311 313 314 317 316 316 315 314 313 313 312 310 310 310 310 310 310 310 311 311 311 311 311 311 311 311 311 311 312 314 316 319 319 320 319 319 318
315 316 315 313 308 312 311 309 307 309 308 309 312 314 315 316 316 315 314 312 310 311 311 310 310 310 309 309 309 309 309 309 309 309 309 309 309 310 310 310 310 310 311 313 317 315 313 316 315
312 315 314 314 316 307 307 308 305 305 306 310 311 314 315 316 316 315 313 310 310 310 310 310 309 309 309 308 309 308 309 308 309 309 310 310 310 309 309 309 309 310 310 310 309 311 313 312 313

GFSSGP_850_thetae_060.txt.gz
Theta_e
323 322 324 325 322 320 324 324 320 322 323 324 324 334 336 334 339 333 341 341 343 342 334 336 340 339 340 337 339 339 339 337 337 334 332 330 318 316 319 327 337 336 333 329 313 311 313 324 330
323 322 326 325 323 324 323 320 322 320 323 323 325 332 337 342 341 342 342 342 342 342 335 338 341 340 337 340 339 337 333 332 331 327 327 318 325 322 323 334 338 337 334 330 311 310 317 320 323
323 323 327 320 321 324 323 321 319 322 323 324 324 334 338 342 342 342 342 343 343 336 335 338 340 338 339 341 337 336 330 334 322 321 318 332 331 329 328 338 338 336 333 328 311 310 312 318 318
324 324 325 323 325 323 322 321 322 321 323 324 330 336 340 341 342 343 343 344 344 336 338 343 344 341 338 338 336 335 330 324 318 316 320 333 335 334 338 338 338 335 330 324 312 314 314 313 314
324 325 322 324 324 323 321 323 323 321 322 322 328 338 342 342 344 343 345 344 344 335 335 345 344 341 340 337 337 336 328 318 317 315 322 331 329 333 334 335 332 331 329 319 314 317 318 318 318
324 324 323 326 325 323 322 324 322 321 321 332 339 341 342 342 343 343 345 345 346 339 338 342 339 343 340 338 337 337 331 317 314 313 323 330 327 326 327 324 330 329 329 316 316 318 319 319 319
324 324 325 325 325 326 325 326 320 320 321 321 337 336 342 342 343 344 345 346 344 344 342 335 337 341 341 340 337 339 335 321 314 312 312 318 324 327 326 325 327 327 324 316 317 319 319 319 319
324 324 325 324 326 327 326 325 322 321 321 331 335 340 343 343 344 344 345 345 345 346 345 343 336 342 341 339 339 336 335 326 320 315 313 312 313 317 324 324 326 326 320 316 317 319 319 319 318
324 325 325 325 326 326 325 323 325 321 322 324 330 337 340 342 343 343 345 346 345 343 342 338 336 337 338 334 334 336 334 329 322 319 314 313 313 312 314 319 322 322 319 316 317 319 319 319 319
324 325 324 322 323 325 325 323 323 321 324 335 337 339 343 343 343 343 344 344 343 342 341 339 334 333 333 334 331 332 328 328 323 321 318 314 314 314 313 315 317 319 319 315 317 319 320 319 319
324 325 323 323 323 325 325 325 324 322 319 331 336 339 341 340 342 343 343 343 343 342 341 340 339 339 331 328 329 330 331 325 322 320 322 317 314 314 315 314 315 315 315 315 316 319 320 320 319
322 323 324 324 323 324 324 323 322 322 320 322 322 324 330 328 336 340 343 343 342 341 340 340 340 339 338 336 334 333 330 328 321 320 322 323 316 317 319 319 318 317 316 315 317 318 320 321 320
320 321 322 323 323 324 323 322 322 321 322 322 328 332 329 328 330 329 333 342 343 342 340 340 340 340 339 338 337 336 332 328 328 330 326 327 326 323 324 326 328 327 321 317 317 318 320 321 322
322 320 320 320 320 324 322 322 321 320 319 328 331 330 330 330 331 334 336 334 338 342 341 341 339 339 338 338 338 337 334 330 333 335 334 333 333 332 329 328 328 329 328 327 325 321 324 325 326
319 320 318 319 318 318 321 321 319 320 318 320 321 321 321 320 320 324 331 334 336 337 337 341 341 340 339 337 337 337 336 333 332 334 336 336 335 334 333 331 330 330 329 328 329 329 327 327 329
317 319 321 318 318 319 317 318 317 318 318 319 320 320 320 320 320 320 319 321 323 332 334 338 338 339 340 340 338 337 336 334 333 334 335 336 336 336 335 334 331 330 331 330 330 331 330 329 329
318 320 320 319 317 318 316 317 316 318 317 318 319 320 319 319 319 318 318 318 319 322 325 329 337 338 340 339 339 338 338 336 335 335 335 335 335 336 335 335 333 332 331 331 330 331 332 331 330
320 319 319 319 317 318 317 316 316 317 315 317 318 319 320 319 319 319 318 318 318 319 320 323 324 327 327 333 337 338 338 338 337 337 337 337 336 336 336 336 334 335 334 333 331 330 331 332 331
317 317 319 317 316 318 318 317 316 317 316 315 316 318 319 317 316 317 317 317 317 317 317 318 321 322 322 323 326 330 333 336 338 338 337 337 337 337 335 334 333 332 333 333 333 332 330 331 331
317 316 317 316 316 316 316 317 315 315 315 316 316 317 318 316 316 315 316 316 317 317 317 317 318 319 319 320 321 322 322 325 327 328 333 335 334 333 331 331 330 331 331 332 331 333 332 331 330
315 316 314 315 315 314 314 314 314 313 314 317 316 316 316 315 314 314 315 316 316 316 316 317 317 317 318 318 318 318 319 319 319 321 324 327 331 333 333 332 329 327 329 329 330 331 332 331 331
316 312 313 314 315 318 313 315 309 311 311 310 314 314 315 314 313 314 314 314 315 315 315 314 314 314 314 314 315 315 315 316 317 318 318 318 319 320 323 326 327 328 326 328 327 327 327 328 329
314 313 314 314 314 313 314 312 310 309 310 310 309 312 313 313 314 315 315 315 315 314 313 312 313 313 313 313 313 313 313 313 314 315 315 315 315 318 324 327 327 326 325 324 324 325 325 325 326
314 314 312 313 313 315 314 312 310 309 310 310 308 311 312 314 315 316 316 315 314 313 313 313 312 312 312 312 312 313 313 313 313 313 312 312 312 312 314 316 320 323 324 324 326 326 325 325 326
315 313 314 317 316 314 312 313 313 310 309 308 308 312 314 315 316 316 316 315 315 314 314 314 314 313 313 313 313 313 313 313 313 313 314 313 313 313 312 314 319 323 324 326 326 325 324 323 323
316 312 310 314 314 313 310 314 314 308 308 311 312 313 314 315 315 316 316 316 315 314 314 314 313 312 312 312 312 312 313 313 314 314 314 314 314 314 313 313 314 319 322 323 322 323 323 323 322
315 317 311 309 308 306 310 310 308 309 308 309 311 313 314 315 316 316 316 315 315 314 314 313 312 311 311 310 310 311 311 312 313 313 313 313 313 312 312 312 312 313 315 317 319 319 320 322 321
314 312 315 306 310 312 310 309 310 310 309 309 310 312 314 315 316 316 316 315 314 313 312 312 311 310 310 310 310 310 310 310 310 310 311 311 311 311 311 311 310 310 311 312 314 315 317 318 318
316 317 314 311 308 311 311 308 305 308 310 311 311 313 314 315 316 316 315 314 312 311 311 311 310 310 309 309 309 309 309 309 309 309 309 309 309 309 309 309 310 310 310 310 311 313 314 315 311
312 315 315 315 310 304 305 307 306 304 307 310 312 313 313 315 316 315 314 313 311 310 310 310 310 309 309 309 309 308 308 308 308 308 308 309 310 310 309 309 308 308 308 309 309 309 309 309 310

GFSSGP_850_thetae_063.txt.gz
Theta_e
323 322 322 325 322 320 324 323 319 320 322 323 324 328 327 337 334 332 337 338 340 332 334 335 333 334 339 337 339 338 339 340 338 327 327 320 317 317 324 335 331 332 329 314 311 311 327 332 331
323 323 323 324 321 324 322 320 322 319 322 331 335 335 338 341 341 341 340 341 341 333 334 336 336 340 340 337 339 340 338 336 331 326 317 322 321 323 332 338 336 334 328 312 310 315 317 328 328
323 323 325 319 320 323 322 321 319 320 322 322 329 336 340 341 341 339 340 342 343 339 333 341 339 340 337 338 337 336 332 331 322 318 319 328 326 329 336 338 336 334 325 311 310 314 318 320 321
323 324 323 323 324 322 321 321 321 319 322 322 333 336 341 342 341 340 341 342 341 339 336 342 340 337 339 340 336 335 325 323 318 316 327 330 331 331 338 338 337 332 322 313 313 312 313 316 317
325 324 321 323 323 322 320 321 322 318 320 321 333 339 341 342 343 343 342 344 342 335 337 341 340 337 339 337 334 332 321 316 316 320 335 337 332 336 337 336 334 325 321 314 316 317 316 315 316
324 323 322 325 323 322 322 324 324 319 320 336 338 340 341 342 343 344 344 344 340 334 338 343 342 342 339 337 335 333 323 315 315 317 336 330 335 335 333 331 328 327 322 314 317 318 318 318 320
323 322 323 323 324 324 324 325 321 318 318 327 337 338 341 342 344 344 344 345 340 335 334 340 342 341 340 339 337 332 328 316 313 313 315 321 331 330 329 327 329 327 322 315 317 319 319 319 320
324 321 323 324 325 326 324 325 324 322 318 331 337 339 341 341 343 345 345 345 343 339 337 334 338 341 341 338 337 333 330 321 315 313 312 313 315 322 325 327 328 327 323 316 317 320 320 319 320
324 325 324 324 325 325 324 323 324 323 320 327 332 339 338 342 343 345 346 345 344 345 344 341 334 339 338 336 335 333 332 328 321 319 314 313 313 313 317 321 321 322 320 317 316 319 320 319 319
324 325 324 322 323 325 324 325 324 323 322 333 339 340 341 342 343 345 346 345 345 343 341 339 337 339 338 337 333 333 332 331 327 324 319 314 313 313 313 315 319 320 319 317 315 318 319 319 319
324 325 322 322 322 324 325 325 322 321 320 321 335 342 341 341 342 343 344 344 342 342 340 338 335 335 336 335 334 332 330 327 325 323 321 319 314 314 314 314 317 318 318 317 315 317 318 319 319
325 323 323 323 324 323 324 324 323 321 321 321 321 339 338 341 341 342 343 343 342 342 339 339 338 337 336 331 330 330 332 331 328 323 320 322 321 315 315 315 315 315 316 315 315 316 318 319 320
320 322 323 323 323 323 323 323 322 322 322 321 321 333 335 337 340 337 340 342 342 341 339 339 339 339 338 337 335 335 334 331 328 325 325 322 323 318 319 323 324 326 325 320 317 316 318 319 320
321 320 323 323 322 324 322 321 321 322 322 319 324 333 330 328 333 338 341 341 341 341 340 339 339 339 338 337 336 336 336 334 330 331 331 330 330 331 329 327 327 327 327 327 326 326 321 321 322
321 320 320 321 321 322 322 322 321 322 320 319 322 333 332 332 332 332 331 333 336 339 340 339 339 339 339 338 337 336 336 335 331 330 333 334 335 334 334 333 331 330 330 330 329 329 329 327 327
317 319 321 319 319 319 322 324 321 320 320 319 318 319 318 319 319 322 331 333 335 336 338 339 340 340 340 339 339 338 337 336 335 332 332 333 335 335 335 335 333 333 331 331 331 330 330 330 330
317 319 319 319 318 319 320 318 319 320 321 319 318 318 319 319 319 319 319 319 322 324 332 337 338 339 338 339 339 339 339 338 337 335 333 333 334 334 335 334 333 334 335 333 332 331 331 330 330
318 317 318 319 318 317 319 316 316 317 319 319 319 319 319 319 319 318 318 318 318 319 322 325 332 338 338 339 340 340 339 338 338 337 335 335 336 336 336 336 336 336 336 335 334 333 332 331 331
315 316 319 317 317 318 318 317 316 314 314 314 315 316 318 319 318 318 319 318 317 317 317 320 323 324 328 334 336 336 336 337 337 337 337 337 337 337 337 337 336 336 335 334 333 333 332 332 331
315 316 317 316 315 318 317 317 316 316 314 316 315 316 316 317 316 316 316 317 317 317 317 317 317 320 321 322 323 325 327 330 330 333 336 336 337 337 335 334 333 331 331 330 330 330 332 332 331
314 315 314 317 314 313 315 315 315 315 314 316 316 316 316 316 316 315 315 316 316 316 316 316 316 317 318 318 319 320 321 322 323 324 325 326 329 332 333 333 333 332 332 331 326 328 330 330 330
316 313 313 314 316 316 314 318 311 312 312 312 316 316 316 315 314 315 315 315 315 316 316 315 315 315 316 316 316 316 317 317 317 318 318 318 319 319 319 320 322 326 327 325 326 325 327 327 327
315 311 313 313 314 314 313 314 313 308 310 312 312 314 315 315 314 314 314 314 314 315 315 315 314 313 313 313 313 313 313 313 314 313 314 314 315 316 316 316 318 321 326 326 325 324 324 325 326
312 312 311 312 313 314 313 313 312 309 309 309 311 313 313 313 313 314 315 315 315 315 314 313 312 312 312 312 313 313 313 313 313 313 313 313 312 312 312 312 312 315 320 324 324 323 326 325 324
313 311 313 317 316 315 311 312 315 310 307 307 308 309 312 313 314 315 315 315 315 314 314 313 313 313 313 313 312 312 312 312 312 312 312 313 313 313 314 314 313 315 319 321 325 325 326 324 324
315 311 310 315 315 314 310 314 313 310 309 310 311 310 311 314 315 315 315 315 315 315 314 314 314 313 312 312 312 312 312 312 312 313 313 313 314 314 313 313 314 314 314 318 322 322 323 323 323
315 312 308 307 305 307 310 309 307 306 307 307 308 310 313 315 315 315 316 316 315 314 314 314 313 312 311 311 310 310 310 310 311 312 312 312 312 312 312 312 311 311 311 312 313 315 318 320 323
314 312 314 304 308 311 309 309 310 309 308 307 308 310 313 314 315 316 316 315 315 314 313 312 312 311 310 310 310 309 309 309 309 309 309 309 309 309 309 310 310 310 310 310 310 311 314 315 316
316 316 313 310 306 310 311 309 304 306 306 307 309 311 313 314 315 316 316 315 314 313 312 311 311 311 310 309 309 309 309 309 309 308 308 308 308 309 309 309 309 308 308 309 310 310 310 310 311
315 316 311 309 309 303 303 308 305 302 304 309 310 312 313 314 315 316 315 315 314 313 311 311 310 310 309 309 309 308 308 308 308 308 308 308 309 309 309 309 308 308 308 308 308 308 309 309 309

GFSSGP_850_thetae_066.txt.gz
Theta_e
322 322 321 323 321 319 321 321 319 320 320 321 321 324 326 336 333 332 339 334 330 334 338 336 334 335 338 336 337 337 338 338 337 324 323 319 317 325 332 329 330 326 314 310 311 322 332 332 330
322 323 322 323 320 321 320 319 321 319 320 333 331 336 337 340 340 339 338 337 329 333 334 336 334 335 338 335 339 339 339 337 331 322 320 320 321 329 336 334 333 326 312 310 312 314 328 329 328
323 324 323 318 317 321 320 320 320 320 320 324 331 336 339 340 340 337 340 338 336 330 331 335 335 342 339 336 338 333 331 332 327 321 325 324 328 333 338 336 334 325 313 311 314 316 320 323 322
323 324 323 321 322 321 320 320 320 320 320 320 328 337 341 341 339 339 340 341 339 332 333 336 342 341 336 336 335 331 325 321 319 319 327 327 329 334 338 336 334 322 314 313 313 314 316 317 316
324 323 321 322 323 322 320 321 322 320 319 320 333 339 340 341 341 340 340 341 340 335 337 339 339 337 337 337 334 332 322 316 317 330 335 330 329 335 335 335 331 323 315 315 316 315 315 315 317
325 322 322 323 322 321 321 323 322 319 318 331 338 339 340 341 342 342 342 342 340 336 340 341 339 335 339 337 334 331 320 315 315 322 339 337 334 337 332 329 325 324 317 315 318 318 317 318 320
324 321 322 321 323 324 323 324 322 320 316 318 337 337 339 342 343 343 343 342 339 336 338 340 338 337 337 336 334 331 323 315 315 315 319 328 337 336 328 326 326 325 319 315 318 318 318 319 320
324 321 322 322 325 325 323 324 324 323 321 323 337 336 339 342 344 344 344 341 338 337 338 340 340 341 339 337 337 332 326 317 314 313 314 321 322 323 323 325 325 323 320 315 317 319 319 319 319
324 325 324 323 325 324 324 324 324 322 322 326 332 338 339 342 344 344 344 341 338 336 337 338 339 339 337 337 334 333 330 325 320 317 313 313 316 318 320 322 323 323 321 317 316 319 319 319 318
324 325 323 321 323 324 325 324 323 322 321 323 323 340 341 341 344 344 344 342 341 341 341 338 335 340 338 335 333 330 330 330 328 325 322 314 313 313 314 317 320 320 321 318 316 317 319 319 319
323 325 322 322 323 324 324 324 323 321 320 321 321 326 341 342 343 343 345 344 343 343 342 339 337 338 338 336 335 333 330 329 328 326 323 321 315 314 314 314 315 317 318 318 318 315 318 319 319
323 323 323 323 324 323 323 324 323 322 322 322 319 319 339 341 341 341 342 343 343 342 340 337 336 337 339 338 336 334 330 329 329 326 323 321 322 316 315 314 314 315 316 315 315 315 315 318 319
321 321 322 323 323 323 323 322 322 322 322 323 321 323 334 334 336 339 340 340 342 341 340 337 337 335 336 335 333 332 331 332 329 327 324 323 321 323 316 318 320 322 325 324 321 318 316 317 319
321 321 322 323 323 323 322 321 320 321 322 323 321 322 334 334 333 334 338 342 342 341 340 338 337 337 337 336 335 334 335 334 331 328 330 330 327 327 327 326 325 326 327 328 328 327 326 325 322
319 323 323 323 323 324 321 322 320 320 321 321 322 319 333 332 335 336 335 337 340 339 339 338 337 337 337 337 336 336 335 335 334 331 330 332 333 333 333 333 333 331 330 330 330 330 329 328 328
319 320 324 321 322 321 320 323 320 321 320 321 321 321 318 330 333 333 333 333 335 337 336 338 339 339 339 338 338 338 337 336 335 335 332 331 332 334 334 334 334 334 333 333 331 331 331 330 330
319 319 318 321 321 321 319 320 319 320 321 321 320 320 320 318 319 323 332 334 334 334 335 337 339 339 340 340 339 339 338 338 337 336 336 334 333 333 334 334 334 335 335 335 335 335 333 332 332
317 316 317 319 319 321 319 317 319 320 320 320 319 320 321 319 318 318 318 320 325 323 329 335 337 337 338 338 338 339 339 339 338 337 336 336 335 334 335 335 335 336 336 336 336 335 334 333 332
313 315 317 316 318 320 321 319 317 318 319 318 319 319 320 321 319 318 318 318 318 318 318 323 328 331 335 337 336 337 338 339 337 337 336 336 336 336 336 336 336 335 336 335 334 333 332 331 332
314 314 316 316 316 318 316 318 316 314 317 318 318 319 319 317 316 318 317 318 318 318 317 317 319 322 325 329 330 334 336 336 333 332 334 335 334 337 336 337 336 335 335 332 332 332 332 329 328
313 314 314 315 314 313 315 317 316 315 317 315 315 317 316 315 315 316 316 316 317 317 316 316 317 317 318 320 320 322 323 324 326 329 332 332 334 335 335 334 333 333 334 334 333 332 331 327 326
316 312 313 314 315 317 314 318 313 315 316 313 314 315 316 316 315 315 315 316 316 316 316 316 316 316 316 316 316 317 317 317 318 318 319 319 318 318 319 319 320 320 320 323 328 329 327 327 325
314 311 312 313 312 313 313 315 314 309 315 316 315 314 316 316 316 315 315 315 315 315 315 315 315 315 314 314 314 314 313 313 313 314 314 314 314 314 314 315 315 315 316 319 322 325 328 326 325
310 311 310 310 311 310 313 314 313 309 311 310 310 313 316 316 315 315 314 314 314 314 314 314 314 313 313 312 312 312 312 313 313 312 312 312 313 313 312 312 312 311 311 312 316 321 326 326 325
311 311 310 312 311 311 310 312 315 311 307 307 308 310 312 314 313 313 314 314 314 315 314 314 313 313 312 312 312 312 312 312 312 312 312 312 312 313 313 313 313 313 313 313 314 318 320 325 325
313 311 310 314 314 312 309 313 313 309 310 310 310 311 311 311 312 312 314 315 315 314 314 313 313 313 313 313 312 312 312 311 311 312 312 312 312 313 313 313 313 313 313 313 314 318 323 324 325
314 314 307 305 304 305 309 308 307 306 307 307 307 308 310 310 312 313 315 315 315 314 314 314 313 313 312 312 311 311 310 310 310 310 310 310 311 311 311 311 311 311 311 310 311 312 315 320 320
313 310 313 304 309 311 308 308 310 308 307 306 307 308 310 311 314 315 315 315 315 314 314 314 313 312 311 310 310 310 309 309 309 309 309 309 308 308 308 308 308 308 308 309 310 310 312 314 315
315 314 312 309 306 309 310 310 304 306 304 303 305 309 311 313 314 315 315 315 315 314 314 313 312 311 311 310 310 309 309 309 309 308 308 308 308 308 308 308 309 309 308 308 308 309 309 309 310
313 314 310 310 308 302 303 308 305 303 302 303 307 309 311 314 314 315 315 315 315 314 313 312 311 311 310 310 309 309 308 308 308 307 307 307 308 308 308 309 308 308 307 307 307 307 307 308 308

GFSSGP_850_thetae_069.txt.gz
Theta_e
322 321 322 323 324 322 321 321 321 322 320 320 320 322 330 334 334 332 337 329 328 332 343 338 341 336 338 337 333 333 336 336 324 322 320 318 327 330 327 329 322 313 310 311 315 327 330 330 330
322 323 324 322 323 323 322 320 322 321 320 330 328 336 337 340 339 339 333 331 328 335 339 336 338 340 337 334 337 338 339 338 325 321 320 323 329 332 331 331 323 312 310 311 312 323 329 328 327
323 325 323 322 321 323 320 321 322 321 321 322 332 336 338 339 339 337 336 331 330 334 337 341 339 340 335 337 337 339 334 334 325 324 324 329 332 336 335 333 322 313 312 313 315 318 325 323 321
323 324 322 323 323 322 320 321 321 322 319 320 328 339 340 340 338 338 336 329 335 332 338 342 338 340 335 337 335 329 327 325 324 325 326 329 333 336 336 332 322 314 314 314 315 316 317 317 316
324 323 323 325 324 322 320 321 322 321 319 319 333 338 339 341 340 340 336 332 331 333 338 336 343 340 335 335 333 329 322 317 318 329 327 328 333 337 335 332 323 316 315 316 315 315 315 316 318
324 322 325 326 323 322 321 323 321 320 318 329 335 338 340 341 341 340 340 339 332 333 338 338 343 338 336 335 332 326 320 317 317 332 331 328 335 338 333 330 323 319 315 317 317 317 317 318 320
325 324 325 322 323 323 322 323 323 321 318 318 336 339 339 341 342 341 341 340 338 334 339 339 339 336 338 337 333 328 319 316 315 320 333 338 338 338 330 326 323 321 316 317 318 318 318 319 320
324 324 324 323 324 324 324 323 324 322 322 324 333 335 339 342 342 343 342 341 339 337 341 341 340 336 337 336 334 332 322 315 315 315 315 319 324 321 325 324 324 323 319 315 318 319 318 318 318
323 325 326 324 324 324 324 324 323 321 323 326 329 336 338 343 343 343 342 340 339 338 339 340 339 341 338 337 336 333 327 319 314 314 314 317 319 321 323 321 323 323 321 317 316 319 319 319 319
324 325 324 321 323 325 325 324 323 322 321 321 320 334 340 343 343 343 343 341 340 339 339 340 339 340 339 334 333 332 330 327 324 323 320 314 313 314 315 318 320 321 321 319 316 316 318 319 319
323 325 321 321 324 324 324 324 323 322 321 321 319 320 340 342 344 341 342 341 339 338 338 338 340 339 339 335 332 331 330 329 329 328 325 322 317 314 314 314 314 316 318 319 318 316 316 318 319
324 323 322 324 324 323 323 323 322 322 322 322 321 320 334 339 345 340 340 341 341 341 341 340 338 336 339 337 335 334 331 329 327 327 325 322 321 320 315 314 314 315 317 317 316 315 315 316 318
322 323 322 323 323 323 323 322 322 321 321 321 322 322 328 338 337 337 338 339 341 341 341 339 336 336 337 338 336 334 330 330 331 328 326 323 322 321 323 316 318 318 321 325 324 322 319 318 318
320 321 322 323 323 323 323 321 321 320 321 321 322 322 325 335 335 336 335 337 339 341 340 338 336 334 334 335 334 332 332 333 333 329 327 330 328 325 327 323 323 324 326 328 328 328 327 327 327
319 321 321 323 323 323 322 323 322 320 321 321 321 322 320 325 334 335 333 335 334 337 340 339 337 337 337 336 336 335 334 335 334 333 330 330 332 333 333 333 333 332 331 330 329 330 330 329 330
319 320 322 323 323 321 322 324 320 321 321 321 321 322 321 320 322 332 335 336 334 336 339 340 338 338 337 337 337 337 336 336 336 335 334 332 331 332 333 334 334 335 334 334 333 333 332 332 332
320 320 321 322 322 321 321 323 320 320 321 321 321 322 322 320 318 319 332 333 334 335 337 339 339 339 339 339 338 338 338 338 337 337 336 335 335 333 333 333 334 334 335 335 335 334 335 334 334
320 318 318 321 323 321 321 320 320 320 320 320 321 322 322 321 320 318 317 330 334 333 333 334 336 336 337 338 338 338 338 337 338 337 337 337 336 336 335 334 334 335 335 335 335 335 335 334 333
314 317 318 318 319 322 321 319 320 319 320 320 322 322 321 322 320 320 319 317 322 330 326 326 328 330 332 333 334 335 334 335 337 338 337 337 336 336 336 335 335 336 335 335 334 333 332 331 330
315 316 316 315 318 319 320 320 317 318 319 319 320 320 321 322 319 320 317 318 317 317 319 318 319 323 326 327 330 331 330 329 333 336 336 335 334 335 334 334 334 334 335 334 334 334 333 333 332
313 315 314 316 315 314 316 319 318 315 317 317 319 320 321 320 318 318 316 317 318 317 317 317 317 318 320 323 326 327 325 325 327 328 330 330 330 332 332 332 333 333 332 330 330 332 333 333 332
316 312 314 314 316 320 315 320 317 316 315 315 317 318 321 320 318 316 315 316 317 316 316 316 317 317 318 319 319 318 318 318 318 318 319 320 321 321 320 320 319 319 320 320 320 322 327 331 330
314 311 312 313 313 313 313 317 315 313 317 316 315 316 318 318 317 316 316 315 315 315 315 315 315 315 315 315 315 315 315 315 314 314 314 314 314 314 314 314 314 314 314 314 314 315 319 325 328
309 311 310 310 312 318 314 317 315 312 314 314 316 316 317 317 317 317 316 314 314 315 315 315 315 314 314 314 313 313 313 312 312 312 313 313 313 313 312 312 312 312 312 312 312 312 313 317 326
311 311 316 318 318 316 310 313 316 313 309 309 310 313 315 316 317 316 315 314 314 314 314 314 314 314 313 313 312 312 312 311 311 311 312 312 312 312 312 312 313 313 312 313 313 313 314 316 319
313 310 312 315 316 314 309 314 314 310 310 309 309 310 310 310 311 313 314 314 314 314 314 314 314 313 313 312 312 312 312 312 312 312 312 312 312 312 312 312 312 312 312 312 312 313 313 318 326
314 311 306 306 304 309 310 309 307 306 307 308 308 309 310 310 311 311 312 313 314 314 314 314 313 313 313 312 312 311 311 310 310 310 310 310 310 310 310 310 310 310 310 310 310 310 311 313 319
312 308 313 307 310 313 309 308 311 309 308 305 305 306 309 310 309 310 312 314 314 314 314 314 313 313 312 312 311 310 310 309 309 309 309 309 308 308 308 308 308 308 308 308 308 309 310 310 313
315 313 310 309 307 312 311 311 305 307 305 304 303 307 308 310 310 312 314 314 314 314 314 314 313 312 311 311 311 310 310 310 309 309 308 308 307 307 307 308 308 308 308 308 308 308 308 309 310
311 311 310 312 310 303 306 311 306 304 304 303 306 309 309 310 313 314 314 314 314 314 314 313 313 312 311 311 310 309 309 309 308 308 308 307 307 307 308 308 309 308 308 307 307 307 307 307 307

GFSSGP_850_thetae_072.txt.gz
Theta_e
322 321 322 324 325 325 325 324 325 325 323 324 322 326 337 337 333 339 339 333 340 343 346 341 338 339 339 339 336 334 336 327 324 322 319 327 326 328 329 319 312 310 311 314 326 329 329 329 328
322 323 323 324 325 325 325 324 324 325 324 327 329 332 335 340 342 340 339 331 339 344 346 345 341 339 341 337 334 336 336 324 322 320 323 329 330 330 329 319 311 310 312 313 324 328 328 326 321
323 325 324 324 323 324 324 324 326 326 324 327 332 337 339 342 343 341 342 335 342 344 344 344 338 341 338 335 337 339 330 328 323 322 326 330 335 335 329 319 313 312 315 315 320 324 322 319 316
327 324 323 323 323 323 323 326 325 326 322 323 329 339 341 341 343 343 337 341 343 344 343 341 342 340 336 337 336 332 327 325 325 324 328 333 336 336 329 320 315 314 314 316 317 317 317 316 318
326 324 325 324 324 324 324 324 325 326 323 323 331 339 342 343 341 342 342 343 343 343 345 341 341 338 336 337 333 328 321 318 325 325 328 332 335 336 328 323 317 316 316 315 315 316 316 318 319
326 325 326 325 324 324 324 324 324 325 322 329 334 339 342 340 341 342 343 342 343 343 346 340 342 339 335 335 333 324 318 318 322 328 327 332 336 338 331 324 320 315 317 317 316 316 317 319 319
327 327 326 326 325 324 324 324 325 325 322 328 338 339 342 342 345 347 343 343 342 343 345 342 342 339 337 335 333 324 317 317 325 332 327 333 337 338 331 326 324 319 316 318 318 318 318 318 319
325 326 327 326 325 324 325 324 325 324 325 329 337 339 343 344 349 348 347 341 340 344 346 342 341 338 339 337 334 329 317 316 320 321 327 331 328 322 326 325 324 322 317 316 318 319 319 319 318
324 328 329 326 324 324 325 326 324 323 326 325 325 334 337 340 344 343 348 342 343 344 344 344 344 341 341 338 335 332 322 315 315 317 316 318 328 323 323 324 324 324 322 317 316 318 319 319 319
325 328 327 324 324 324 326 326 325 325 326 325 325 328 339 342 343 347 342 342 341 342 342 344 344 343 341 338 336 334 329 322 319 318 315 323 321 324 319 320 321 322 322 320 317 316 318 319 320
323 326 324 324 323 325 325 326 324 324 326 323 323 325 340 342 344 343 342 342 340 340 340 342 341 341 340 338 338 337 334 331 328 327 325 322 316 314 314 314 315 316 318 320 319 318 317 317 319
324 323 324 323 323 323 325 325 325 325 325 323 322 324 338 340 341 346 343 341 340 339 339 338 339 339 339 339 337 338 336 331 330 327 326 324 322 321 315 315 314 314 316 318 318 317 316 315 316
322 322 323 323 324 324 324 324 324 324 323 322 322 322 333 338 339 343 342 343 342 340 338 340 339 339 338 339 338 338 337 330 331 329 328 326 323 321 323 321 315 316 317 321 325 324 323 320 320
320 321 322 323 324 324 323 323 322 323 321 322 322 322 323 331 337 338 338 339 340 341 341 340 339 338 338 338 337 338 337 334 331 330 327 327 329 326 324 324 319 322 324 326 328 329 329 328 328
320 322 323 323 324 324 323 324 324 322 322 322 322 322 322 323 332 335 337 336 336 339 338 340 337 336 337 338 337 337 334 333 333 333 330 329 331 332 332 332 332 332 332 331 330 329 329 329 330
321 321 324 324 323 323 323 327 323 322 322 322 322 322 322 321 322 328 334 335 336 336 339 340 338 337 337 338 337 337 336 335 335 334 334 333 331 331 332 333 334 334 334 334 334 333 333 333 333
320 321 322 323 323 323 324 325 322 321 322 322 322 323 323 322 320 320 328 334 334 335 337 339 340 339 338 338 338 337 337 337 337 336 336 335 335 334 333 332 332 333 334 334 335 335 335 335 334
319 320 321 322 324 323 324 324 321 321 321 322 322 322 323 322 322 319 318 328 334 335 337 338 337 338 339 339 338 338 337 336 336 336 336 337 337 336 335 335 334 334 334 334 335 335 334 333 334
316 319 320 320 323 323 323 322 321 320 320 321 321 322 322 322 322 321 320 318 321 334 333 334 334 336 337 337 337 337 336 335 335 337 337 338 337 337 336 336 335 335 335 336 335 335 335 334 334
318 318 320 321 323 323 323 324 321 320 320 320 321 322 322 322 322 322 321 318 318 319 328 329 329 331 333 333 333 332 332 334 333 331 335 336 336 335 335 335 334 334 334 334 334 335 334 334 334
317 318 319 320 322 321 322 323 322 320 319 320 319 319 320 322 322 321 321 317 316 318 317 318 320 319 323 326 327 328 329 330 330 328 329 330 331 330 329 329 330 331 333 332 333 332 334 333 330
318 317 318 320 322 320 320 318 320 321 320 319 319 319 319 321 321 321 322 317 316 317 318 317 317 317 319 322 323 325 326 325 322 320 320 320 319 320 321 322 322 322 322 320 320 320 319 320 326
316 316 317 318 318 318 319 319 317 318 320 320 319 318 318 319 320 319 321 317 316 316 316 316 316 316 317 318 318 317 317 316 316 315 315 315 314 314 314 315 315 315 314 314 313 313 313 314 317
313 316 317 317 318 319 317 318 317 318 318 318 318 318 318 318 318 318 320 317 317 316 315 315 315 315 315 315 315 315 314 314 314 313 313 313 312 313 313 313 313 312 312 312 312 312 312 312 313
316 317 320 319 320 318 315 318 317 317 316 315 315 316 317 318 318 318 318 318 317 316 315 315 315 315 314 314 314 314 313 313 312 312 312 312 312 312 312 312 312 312 312 312 313 313 313 313 316
317 317 318 317 317 316 314 318 316 316 314 312 312 312 311 312 314 315 315 315 316 316 315 314 314 314 314 314 313 313 312 312 312 312 312 312 312 312 312 312 312 312 311 311 312 312 312 313 315
316 317 311 314 311 316 316 315 314 312 314 312 311 310 311 312 312 312 313 314 314 315 314 314 314 314 313 313 312 312 312 312 312 311 311 311 310 310 310 310 310 309 309 309 309 310 310 311 314
315 313 316 317 318 316 314 313 314 314 314 312 311 310 309 310 311 311 311 311 312 313 314 314 314 313 313 313 312 312 311 310 310 310 309 309 309 309 308 308 308 308 308 308 308 308 308 310 312
316 316 315 315 315 316 314 314 313 313 312 311 311 311 310 310 311 311 310 312 312 314 314 314 313 313 313 312 312 311 311 310 310 309 309 308 308 308 307 307 307 308 308 308 308 308 308 308 309
314 316 316 318 317 313 314 315 311 311 310 310 312 312 311 311 311 312 312 312 314 314 314 314 313 313 312 312 311 311 310 310 309 309 308 308 308 307 307 307 308 308 308 308 307 307 307 307 308

GFSSGP_850_thetae_075.txt.gz
Theta_e
324 328 326 326 327 325 327 329 328 326 327 327 326 329 336 339 335 348 341 342 344 346 344 339 337 339 340 339 337 335 334 326 326 321 324 330 327 322 314 311 310 311 314 323 327 328 328 326 319
334 328 326 325 326 326 327 327 327 327 326 327 329 329 335 342 343 343 342 342 343 346 342 343 337 338 340 339 334 335 324 323 321 322 329 335 329 325 316 311 311 312 314 325 327 327 324 320 315
327 327 324 324 324 325 327 326 326 327 326 327 329 334 337 345 343 341 342 341 344 346 345 343 341 338 341 334 335 335 326 324 321 326 329 334 335 328 318 313 313 314 315 323 324 322 318 316 319
329 326 326 325 325 324 325 325 326 326 323 327 328 333 342 344 343 342 342 341 345 346 346 344 339 340 336 335 340 329 328 326 323 327 331 337 336 330 320 315 314 315 315 318 319 317 316 318 320
330 325 325 326 325 324 325 326 326 326 327 326 330 339 343 345 344 345 342 342 345 344 348 341 341 340 336 335 331 326 324 323 324 327 332 337 338 329 321 316 316 315 315 316 316 316 317 319 320
328 326 327 327 325 325 325 326 325 326 324 328 330 338 344 343 345 343 342 343 344 344 344 342 343 338 337 335 331 324 318 324 326 327 332 336 338 332 324 319 316 317 317 316 316 317 318 319 319
329 328 327 327 326 326 325 325 326 326 325 332 334 336 345 344 344 344 342 343 343 345 344 342 341 338 338 336 332 322 318 323 327 326 331 339 337 335 328 322 319 316 318 318 318 318 318 319 319
327 328 328 327 326 326 325 325 326 326 326 333 336 336 343 344 343 344 343 342 343 344 344 343 341 339 337 335 333 321 319 321 327 328 329 338 330 322 326 323 322 319 316 317 319 319 319 319 319
325 329 330 327 327 325 325 325 325 324 327 328 330 337 338 342 343 342 343 341 343 342 341 344 342 342 341 339 333 326 318 320 324 322 320 326 333 325 324 322 323 322 320 317 316 318 319 319 319
324 329 327 326 325 326 323 325 325 325 327 327 328 331 337 342 343 342 343 341 342 341 342 343 341 341 341 340 334 334 319 317 326 326 316 335 336 336 334 321 321 321 321 321 318 316 317 319 326
324 326 326 325 324 324 326 325 325 325 327 326 326 329 339 342 343 343 344 344 343 342 342 342 341 341 341 340 337 338 336 332 331 333 333 332 331 324 315 323 316 317 318 320 322 319 321 330 322
324 323 322 324 325 325 326 324 324 325 326 324 324 329 338 341 342 342 344 344 343 343 342 342 341 340 341 340 340 338 337 337 336 336 335 333 330 327 329 328 329 323 328 330 332 331 329 327 321
323 323 323 324 324 324 324 324 325 324 325 324 324 326 334 338 340 341 340 342 342 342 341 343 341 342 341 340 339 339 338 337 337 336 335 334 333 331 330 328 326 326 324 327 330 330 329 328 327
319 321 322 324 322 324 324 324 323 323 324 324 323 324 328 338 339 339 340 340 341 341 341 341 342 342 340 341 339 340 338 338 337 337 336 329 333 331 326 329 323 322 323 329 331 332 332 332 332
319 320 322 324 323 325 324 325 324 321 323 323 324 324 325 325 333 339 340 338 340 342 342 341 343 341 340 341 340 339 338 338 338 338 337 329 330 331 330 330 333 330 331 331 331 331 331 332 332
320 321 323 322 323 324 324 326 324 321 323 324 324 324 324 324 323 324 335 339 341 341 341 342 342 341 340 340 339 339 339 338 339 339 338 337 332 330 331 332 333 335 334 333 334 334 334 334 334
320 320 321 321 322 324 325 323 323 322 321 322 323 323 324 324 323 322 323 332 339 341 341 342 342 340 340 340 340 339 339 339 339 339 339 339 338 336 333 333 333 334 335 335 335 335 335 335 335
318 319 319 320 323 323 325 324 323 323 322 322 322 323 323 324 324 322 321 321 331 339 341 341 340 340 341 340 341 340 341 340 340 340 339 340 339 339 336 336 335 336 335 335 335 335 336 335 334
314 315 319 318 321 324 324 324 323 322 322 323 322 322 322 324 324 323 320 319 321 333 337 339 338 338 340 340 340 339 340 339 339 338 339 338 338 337 338 336 336 336 335 335 335 334 334 334 333
316 316 319 319 321 323 322 323 323 322 321 321 321 322 322 323 323 323 321 320 318 318 330 334 337 338 338 340 338 339 339 339 339 338 334 335 336 337 336 336 336 336 336 336 335 335 335 336 335
316 317 320 321 321 321 321 322 322 322 321 320 320 321 322 322 323 323 322 321 321 317 318 327 332 332 331 335 335 332 333 332 333 334 333 327 328 330 332 332 331 331 333 336 335 335 334 331 330
318 316 318 319 322 322 320 319 320 321 321 320 320 321 321 322 322 322 323 320 321 317 318 317 317 320 321 320 326 329 331 331 331 328 326 322 320 320 319 319 320 320 321 322 321 320 320 325 325
316 317 318 320 321 318 321 321 318 319 322 321 320 320 320 320 320 322 322 321 321 317 316 318 317 317 317 318 321 323 325 326 323 318 316 316 316 315 315 314 314 314 314 314 314 314 313 312 313
317 318 318 318 317 320 318 318 317 318 318 318 318 319 319 319 319 320 321 318 320 319 316 316 317 317 316 317 317 317 316 316 315 314 314 314 313 313 313 312 312 313 313 312 312 312 312 312 313
317 317 319 319 320 320 317 317 317 318 317 317 316 317 318 318 319 319 319 318 318 319 317 316 315 315 315 315 315 315 314 314 313 313 313 312 312 312 312 312 312 312 312 312 312 312 313 313 313
317 316 317 316 317 316 316 317 317 317 316 316 315 315 315 315 318 318 319 318 317 318 317 316 315 315 315 315 314 314 314 313 313 312 312 312 312 312 312 312 312 312 311 311 311 311 311 312 312
317 318 313 317 315 317 317 316 316 314 315 315 314 313 314 315 315 314 315 317 317 317 316 316 314 315 315 314 314 314 313 312 312 312 312 312 311 311 311 310 310 310 309 309 309 309 309 310 311
317 316 316 318 319 316 315 315 315 315 315 314 314 313 313 312 312 313 313 313 316 316 314 314 314 314 314 314 313 313 312 312 312 311 311 310 310 309 309 309 309 308 308 308 308 308 308 308 309
316 316 317 316 317 318 315 315 315 315 314 315 315 314 314 314 313 313 313 314 315 315 314 314 313 313 314 313 313 312 312 312 311 311 311 310 310 309 309 308 308 307 307 308 308 308 308 308 308
316 316 315 317 317 316 317 317 313 315 313 314 315 314 314 314 314 314 313 314 314 314 313 313 313 314 313 313 313 312 312 312 311 311 310 309 309 309 308 308 307 307 308 308 308 308 307 307 307

GFSSGP_850_thetae_078.txt.gz
Theta_e
324 325 327 328 331 326 327 325 329 331 333 333 331 327 331 343 342 346 340 344 341 331 331 334 340 339 339 337 336 332 327 325 321 325 325 323 316 312 311 313 316 318 324 325 326 326 321 315 322
328 331 327 328 326 325 324 326 329 328 327 328 330 330 337 345 343 340 343 344 341 328 331 334 339 340 339 336 331 324 322 321 323 330 330 327 318 312 311 311 311 316 324 324 323 320 316 316 325
328 331 327 326 325 325 325 325 326 327 326 328 330 332 343 345 341 342 343 344 345 332 332 337 340 341 339 332 331 323 322 322 326 328 334 331 322 314 313 314 313 319 323 321 318 316 317 319 323
328 330 327 324 324 323 323 325 326 327 324 327 328 338 343 344 341 343 342 346 346 341 339 339 339 340 336 333 329 325 324 323 327 329 336 334 324 317 314 315 315 317 319 317 316 316 318 320 322
327 329 325 327 325 323 322 326 326 326 324 326 329 339 344 345 345 342 341 345 344 346 343 341 339 339 333 338 327 324 325 324 327 330 337 336 325 320 316 316 315 316 316 316 316 317 318 319 319
328 329 325 325 325 324 325 325 325 326 326 328 329 335 344 343 345 342 342 346 345 346 344 339 339 337 335 334 327 322 322 324 327 331 337 334 332 323 318 316 317 316 316 316 317 318 318 318 319
328 327 328 325 325 324 326 326 325 325 324 331 329 334 334 341 344 342 342 344 345 346 345 338 341 337 337 334 330 320 324 325 326 331 335 338 329 325 321 318 317 318 318 317 318 318 318 318 319
327 328 327 327 325 326 325 325 326 326 328 333 336 334 344 341 344 342 343 343 345 345 340 342 339 337 337 334 330 321 326 327 325 328 334 334 323 321 321 320 319 317 317 318 319 318 318 318 318
325 328 330 328 328 326 325 325 325 326 330 329 333 338 342 341 343 342 343 343 345 342 341 341 340 337 336 334 330 319 327 331 330 328 332 333 323 322 321 321 320 320 319 317 317 318 319 319 319
323 328 328 326 325 325 324 325 324 326 327 329 331 335 339 336 341 342 343 343 344 341 342 341 338 340 339 336 332 323 320 325 323 323 321 336 336 331 323 322 320 320 320 320 318 317 316 317 320
323 325 325 325 325 325 323 326 325 325 326 325 325 333 340 341 333 338 342 341 343 341 340 341 340 340 338 338 335 332 321 320 332 333 326 335 336 334 326 317 317 316 317 318 319 320 321 321 321
323 323 322 324 325 325 325 324 325 326 325 324 325 331 337 341 341 340 340 341 339 339 340 340 339 339 339 339 339 338 336 334 332 333 333 332 329 326 325 325 323 318 316 318 322 321 327 326 321
321 323 323 323 324 324 325 324 324 326 324 324 325 331 335 340 341 343 344 342 342 341 340 341 339 340 338 338 339 338 337 337 337 336 335 334 332 330 326 325 324 321 320 321 324 326 326 328 328
320 321 323 322 323 321 323 324 324 323 325 324 324 326 333 337 340 340 339 338 341 341 341 340 341 340 339 338 338 338 338 338 337 337 334 334 333 330 328 326 324 321 319 322 325 328 331 330 331
318 322 323 322 323 322 321 326 323 323 324 324 324 325 326 328 338 338 337 335 340 340 340 338 340 340 339 338 338 336 338 338 337 337 337 330 329 329 328 325 329 328 329 330 330 330 330 330 330
319 320 322 321 323 323 323 323 322 323 323 323 324 324 325 325 324 336 339 336 339 340 341 340 337 339 340 339 337 337 338 338 338 338 338 335 330 329 330 331 332 333 334 333 333 333 333 333 333
320 321 320 322 320 320 321 323 323 323 323 324 324 323 323 324 324 322 331 339 340 338 337 338 340 339 337 338 337 337 338 338 337 338 339 339 335 334 333 332 332 333 334 334 334 333 333 334 334
319 318 319 319 321 319 321 322 322 323 322 322 322 322 323 323 324 323 322 327 337 339 340 339 338 338 339 338 338 338 338 338 337 339 338 338 339 338 338 335 336 335 335 335 334 334 334 333 333
316 316 317 317 321 323 322 323 323 323 323 323 322 322 322 322 323 324 322 321 328 336 340 338 337 338 340 339 339 338 337 337 337 338 338 339 338 337 337 337 338 336 337 336 335 335 334 334 334
316 316 317 318 322 323 322 322 321 321 322 323 322 321 321 322 322 324 323 320 320 326 335 335 337 334 336 338 338 337 338 338 338 338 337 337 337 336 336 336 336 335 335 335 333 333 332 331 332
317 316 317 320 321 321 321 320 320 321 322 321 322 322 322 321 321 323 323 323 321 319 321 332 335 339 337 337 337 337 336 335 334 334 336 333 331 331 332 332 332 333 336 337 334 333 330 330 329
318 316 318 320 321 323 320 318 319 318 320 320 321 321 320 321 321 322 323 323 323 321 318 320 332 333 334 333 331 331 330 334 334 333 331 328 326 323 321 320 318 318 317 317 318 318 319 320 320
317 316 318 320 321 319 321 318 316 317 318 320 320 320 320 321 321 322 322 323 323 322 320 317 318 320 326 327 326 327 330 330 330 329 328 322 317 316 315 315 314 313 313 313 313 313 313 313 313
316 318 318 319 319 316 318 318 315 316 317 318 319 320 320 320 320 320 322 322 321 322 320 319 317 317 317 317 317 319 322 323 324 321 316 315 314 314 314 313 312 312 312 312 312 312 312 312 312
317 319 317 316 314 316 315 315 314 315 315 316 315 317 318 319 320 320 320 321 321 320 319 318 316 316 316 317 317 317 317 317 315 315 314 314 313 313 312 311 311 311 311 312 312 312 312 312 313
317 316 315 315 315 315 315 316 314 314 315 316 316 316 316 316 317 319 319 320 319 319 318 316 316 316 315 315 315 315 315 314 314 313 313 313 312 312 311 312 312 311 311 311 310 310 310 310 311
317 317 313 316 314 314 315 314 314 314 314 314 314 314 314 315 314 315 317 319 319 319 319 317 315 315 315 315 314 315 314 314 314 313 312 312 312 311 311 311 310 310 309 309 309 308 308 308 308
317 315 315 313 314 315 315 315 313 312 312 311 312 313 313 312 312 314 314 315 318 317 317 316 314 315 315 314 314 314 313 314 313 312 312 312 311 311 310 310 309 309 308 308 307 307 307 307 308
316 318 316 315 313 316 313 313 312 312 312 312 313 314 314 314 314 313 313 313 313 316 316 316 315 314 314 314 314 313 314 313 312 312 312 312 311 311 311 310 309 309 308 308 307 308 308 308 308
316 316 314 313 316 313 312 314 313 311 312 314 314 314 314 314 314 314 313 313 314 316 315 315 314 314 313 313 313 314 312 312 312 312 312 311 311 310 309 309 309 309 308 307 308 308 307 307 307

GFSSGP_850_thetae_081.txt.gz
Theta_e
322 324 328 328 326 325 325 323 325 330 330 332 328 328 337 342 343 341 342 342 344 338 334 335 337 337 338 337 333 331 324 321 320 317 314 316 320 323 326 328 329 328 321 322 322 315 320 326 328
324 331 330 327 326 322 319 322 327 329 326 330 332 334 341 343 341 342 345 345 336 330 332 335 337 337 335 333 327 323 321 321 329 322 316 312 310 310 311 312 314 319 322 319 316 315 323 326 327
326 331 327 323 322 323 321 321 327 328 329 329 332 335 344 342 341 343 345 344 332 330 331 338 339 338 334 329 322 321 322 324 330 329 320 314 313 313 312 313 319 319 318 317 316 318 321 325 325
324 328 329 323 322 321 322 324 325 328 326 326 331 339 341 344 343 344 346 342 332 332 334 340 340 337 331 328 323 322 323 325 329 336 323 316 314 314 314 316 318 317 317 316 317 319 321 323 324
325 327 324 324 325 321 320 325 326 325 325 327 336 341 341 341 342 345 346 345 333 333 339 341 340 336 331 328 325 323 323 325 328 335 323 318 316 315 315 316 316 316 316 317 318 318 319 320 321
325 326 321 324 323 322 323 325 326 324 324 326 337 342 342 338 341 343 346 346 336 337 338 339 339 334 339 329 325 324 324 326 329 336 331 322 318 317 317 316 316 316 317 317 318 318 318 318 319
324 323 324 320 321 323 324 324 323 323 325 330 331 337 337 340 337 342 343 345 342 343 340 339 338 334 337 329 325 322 324 326 331 337 333 328 323 318 317 318 318 317 317 318 318 318 318 318 319
324 323 325 323 322 324 324 325 325 326 330 333 334 337 333 341 337 342 343 344 346 346 340 338 337 334 332 329 322 322 324 326 329 335 335 323 321 320 319 318 318 318 319 319 319 319 319 318 319
324 325 325 325 325 325 324 324 324 327 330 330 336 338 329 339 331 338 342 342 343 345 341 340 336 335 334 330 322 323 327 325 327 331 334 326 322 321 320 320 320 319 318 317 318 318 319 318 319
323 325 324 324 324 322 323 324 323 327 329 337 336 339 329 328 329 331 339 341 343 342 338 341 337 336 335 331 323 320 326 326 326 328 330 330 326 324 322 320 320 320 319 319 318 317 316 317 318
323 325 324 326 327 325 324 325 324 325 324 326 338 339 340 341 330 328 338 342 341 341 340 339 337 335 333 333 329 319 320 323 322 320 331 332 332 329 326 318 317 317 317 317 318 319 320 321 319
323 323 323 324 324 325 325 324 325 325 324 325 328 333 340 341 338 333 328 338 341 341 338 341 338 337 337 337 334 334 323 322 328 331 333 333 334 330 322 319 320 319 317 318 320 320 320 322 323
320 322 322 322 323 324 325 324 325 324 324 326 330 333 337 336 340 339 335 333 338 339 339 340 339 338 337 336 337 337 337 333 333 332 333 332 331 326 324 323 322 321 319 319 320 323 325 326 327
320 321 322 322 323 322 323 325 324 324 324 326 327 330 337 339 337 336 335 337 338 338 339 340 340 338 337 337 339 337 336 336 336 336 334 333 331 329 327 325 324 323 320 320 323 325 328 329 329
319 320 319 321 322 322 321 326 324 323 323 324 326 326 334 338 340 340 334 335 335 332 337 338 339 338 338 337 337 337 337 336 336 337 336 332 331 330 327 326 325 326 325 327 329 330 330 330 330
320 320 321 320 322 322 321 326 322 322 324 323 324 325 325 327 334 337 337 336 335 336 335 338 340 338 339 338 337 337 337 337 336 337 335 333 328 328 329 329 329 331 332 332 332 332 332 332 332
318 319 321 321 321 321 322 322 320 321 323 323 323 323 324 325 324 328 336 336 335 334 338 336 338 337 337 338 338 336 337 338 337 336 336 336 335 331 331 330 331 331 333 333 333 333 333 333 332
319 319 319 321 320 320 321 320 319 322 321 322 323 323 322 324 324 325 325 335 335 336 336 337 337 337 338 337 336 336 337 338 336 335 336 337 336 336 335 335 334 334 335 334 334 334 333 333 332
316 317 318 319 321 320 318 318 318 319 321 320 321 322 323 322 323 324 324 327 334 333 334 336 336 337 337 337 336 335 336 337 336 336 338 337 339 338 336 335 335 335 334 335 334 333 334 333 332
316 316 316 318 321 320 318 319 320 319 321 321 321 321 321 322 322 322 323 324 326 333 333 334 337 335 335 336 337 335 335 336 337 334 336 336 337 336 336 336 336 337 337 334 333 332 331 331 329
316 315 316 319 321 320 322 322 321 319 321 322 322 322 322 321 322 322 322 323 323 324 332 333 332 333 333 334 334 338 336 336 335 334 333 335 336 336 333 330 328 326 330 333 332 331 328 328 327
318 315 316 319 321 322 320 322 319 319 320 319 321 321 322 322 321 321 321 322 323 323 322 327 334 332 331 332 333 333 332 330 330 330 331 332 333 332 330 328 326 321 318 316 316 317 318 317 316
318 315 316 319 321 318 321 319 315 314 318 319 317 320 321 321 320 321 321 321 322 323 323 322 320 332 333 331 331 330 330 332 333 334 333 331 328 325 318 316 315 314 314 313 313 312 312 313 313
316 317 318 318 318 318 319 318 314 314 317 316 317 320 321 320 320 320 321 321 322 323 323 321 320 318 328 332 332 329 328 326 328 328 327 327 322 315 315 314 313 313 312 312 312 312 312 312 312
317 315 319 319 319 317 314 314 313 313 314 314 315 319 319 320 319 320 320 321 322 322 322 321 320 317 318 318 321 322 322 322 323 324 322 317 315 314 314 313 312 311 311 311 311 311 312 312 312
318 316 312 317 316 314 313 314 313 312 313 314 316 316 315 315 317 319 320 320 322 321 321 319 318 316 316 317 316 317 318 318 317 316 315 314 314 313 313 312 311 311 311 311 311 310 310 310 310
316 316 311 314 311 312 312 313 310 311 311 312 313 314 314 314 315 314 316 319 320 320 319 319 320 317 316 316 316 316 316 315 314 314 313 313 313 312 311 311 311 311 310 310 309 309 309 308 308
315 314 312 307 312 315 313 313 311 310 309 309 309 312 313 312 312 313 314 315 318 320 319 318 317 315 315 315 315 315 315 314 314 313 313 313 312 311 311 311 311 311 310 309 309 308 308 307 307
314 316 314 312 310 314 311 310 307 308 310 310 311 313 313 313 313 313 312 313 316 318 318 317 317 316 315 315 314 314 314 314 313 312 313 312 312 312 312 311 311 310 310 309 308 308 307 307 308
315 315 314 310 314 308 308 311 310 309 310 312 313 313 314 314 314 313 313 313 313 313 315 316 316 316 315 314 314 313 313 313 312 316 320 312 312 311 310 309 309 309 309 308 308 307 307 307 307

GFSSGP_850_thetae_084.txt.gz
Theta_e
324 324 327 329 326 324 322 322 324 328 332 330 331 331 342 341 339 337 343 338 340 336 334 335 335 336 337 333 334 325 326 321 323 326 331 338 341 340 340 337 333 326 319 318 316 322 325 325 328
324 324 331 327 326 324 323 321 322 325 329 331 332 338 343 341 340 344 345 342 343 335 335 335 336 338 336 330 328 322 320 318 314 314 321 326 328 330 330 327 317 319 317 315 321 325 325 325 327
323 324 327 323 324 324 322 320 320 324 329 332 332 335 342 343 344 345 345 346 342 335 336 337 337 337 332 325 322 320 330 322 317 313 311 311 311 311 312 316 317 317 315 316 321 323 322 323 325
322 325 327 322 324 321 320 322 321 327 329 329 334 338 342 343 343 344 346 346 337 336 338 338 338 335 329 321 321 321 328 329 321 315 313 314 313 313 316 316 316 316 317 318 319 321 321 323 324
322 326 325 325 324 320 319 320 323 326 329 328 333 338 340 341 344 346 345 340 333 337 339 338 338 334 328 322 322 322 325 335 327 317 315 315 315 316 317 316 316 317 317 318 319 319 320 321 322
324 324 325 325 323 322 319 321 323 324 325 332 335 335 337 341 347 346 345 338 333 335 340 340 337 333 329 325 323 323 324 333 336 320 317 316 316 316 316 317 317 317 318 318 318 318 319 319 319
323 323 323 321 321 322 321 323 321 322 322 329 335 337 334 334 342 345 344 341 334 339 340 340 336 334 329 326 325 323 325 331 340 326 320 317 317 317 317 317 317 317 317 318 318 318 318 319 319
323 324 324 319 320 322 323 325 324 324 330 334 335 334 340 333 340 341 343 342 336 338 339 340 335 340 333 326 323 324 325 331 337 336 325 320 318 317 318 318 318 318 318 318 318 318 318 318 318
323 325 325 324 320 322 323 324 324 327 330 332 335 335 335 334 336 335 335 342 344 341 339 339 334 336 331 326 320 323 324 328 336 336 327 322 320 319 319 318 318 318 318 318 318 319 318 318 318
323 323 324 322 323 322 322 323 324 329 334 338 338 335 334 332 332 330 336 341 344 343 340 338 334 333 331 326 320 324 324 327 329 332 329 322 322 321 321 320 320 320 319 318 317 316 316 317 319
322 324 323 325 327 325 323 323 324 325 325 333 338 341 335 330 332 334 333 330 340 343 340 340 336 335 333 328 319 324 325 324 328 330 328 326 325 325 324 320 318 319 318 319 319 319 319 320 320
323 322 322 325 324 325 324 324 323 324 324 331 336 336 340 338 334 332 329 331 336 340 338 338 337 335 334 331 323 320 324 325 324 323 331 330 329 327 324 319 320 319 318 318 320 321 321 323 324
320 322 323 323 323 323 324 323 323 323 324 327 331 337 334 332 334 334 334 336 331 335 336 339 337 335 332 335 334 330 322 320 325 328 330 330 329 328 325 323 322 321 319 319 320 322 325 326 327
318 321 321 322 323 322 322 324 323 323 325 329 330 333 339 339 336 334 333 329 327 327 327 338 338 337 337 335 336 337 336 335 332 330 330 330 330 329 327 323 323 323 321 320 321 324 327 329 329
318 321 321 319 320 323 320 325 323 322 324 327 327 330 336 337 340 339 334 330 330 330 329 330 337 337 337 336 336 337 336 336 335 335 335 334 332 330 328 325 324 324 323 323 326 328 329 330 330
317 320 322 320 322 322 319 326 323 322 321 326 327 327 331 336 337 336 337 332 335 336 335 335 333 337 337 337 336 337 336 336 336 336 336 335 333 330 328 327 325 328 329 330 331 331 331 331 331
317 320 320 321 320 322 318 318 321 322 321 320 325 325 325 326 331 336 335 333 333 333 334 336 336 333 337 336 337 336 336 336 336 335 335 334 334 329 329 329 329 330 331 331 332 333 333 333 331
318 318 319 321 321 320 321 322 320 321 320 321 321 322 323 324 324 330 335 336 336 334 335 332 331 329 328 336 337 336 336 335 336 336 334 334 334 335 334 334 334 333 333 334 334 334 334 332 331
316 317 318 318 319 319 319 321 320 320 320 320 322 321 322 323 323 324 325 334 335 335 334 336 335 335 332 336 335 336 336 336 338 337 335 335 335 335 335 334 334 334 333 333 332 333 332 330 329
316 316 319 319 320 318 319 320 318 319 319 320 322 321 322 322 322 323 323 324 331 333 333 334 337 337 336 335 336 335 335 335 334 334 334 336 337 336 335 335 335 335 334 333 332 332 330 330 329
316 318 317 319 320 319 320 320 319 318 318 319 322 322 321 321 321 322 322 323 324 328 331 330 332 335 336 335 335 334 335 334 334 334 335 333 333 333 333 336 335 335 336 330 326 327 329 327 326
318 315 316 319 320 323 321 322 318 318 318 316 319 321 322 321 321 321 322 322 323 323 325 332 331 332 335 334 334 333 333 334 331 333 332 329 332 331 334 336 334 328 322 320 320 319 320 320 318
317 316 316 319 319 320 320 317 315 315 317 316 317 320 321 321 320 321 321 321 321 322 323 323 329 331 331 333 333 332 331 331 330 330 330 330 329 331 331 330 325 320 316 314 314 313 313 312 312
316 316 316 318 319 321 318 315 315 313 316 315 316 319 320 321 321 321 321 320 321 321 322 321 322 322 330 331 330 330 331 330 330 330 328 329 329 328 325 321 316 314 314 313 312 311 311 311 311
316 314 316 320 319 317 315 318 315 312 313 314 314 318 319 321 320 320 320 320 320 320 322 320 320 320 319 325 331 330 329 329 327 327 327 328 327 324 319 315 314 313 312 311 311 311 311 311 311
317 314 314 318 318 314 313 318 314 311 311 312 315 316 317 316 318 319 319 319 320 320 321 320 319 319 318 319 324 327 327 326 325 325 327 325 323 316 314 313 313 312 311 311 311 311 310 310 310
316 314 311 312 309 310 312 312 310 310 309 310 311 312 313 314 314 314 318 319 319 320 321 321 321 320 318 317 316 318 322 320 322 321 320 317 315 313 313 312 312 311 311 311 310 310 309 309 309
313 313 312 307 312 315 312 313 310 311 309 309 309 311 312 312 312 313 314 315 318 320 320 320 320 319 319 317 316 316 317 317 317 316 315 314 313 313 312 311 311 311 312 311 310 310 309 308 308
314 314 312 310 309 312 312 311 306 308 308 309 310 312 313 313 313 312 312 313 314 318 319 319 318 317 317 315 315 315 316 315 315 314 315 313 312 314 317 315 311 311 311 310 309 309 309 308 308
314 314 311 308 311 306 306 310 306 306 308 310 311 313 313 314 313 313 313 313 312 312 315 317 317 317 316 315 315 315 314 314 313 312 312 312 314 319 315 312 311 310 309 309 309 308 308 308 307

GFSSGP_850_thetae_087.txt.gz
Theta_e
326 325 324 330 324 321 319 322 323 329 334 331 334 338 340 339 335 334 343 342 339 338 337 338 336 334 337 334 329 332 333 331 340 341 342 343 342 341 341 338 334 325 317 314 322 321 321 323 324
325 324 324 328 322 324 324 319 321 326 330 329 331 337 341 341 342 344 344 342 339 337 336 336 334 337 336 332 328 323 328 327 335 340 341 341 341 340 337 333 321 317 315 319 322 321 322 323 325
323 323 326 324 323 322 325 322 319 324 328 330 331 336 341 343 342 344 344 342 339 336 335 334 336 337 333 331 323 319 315 316 325 330 333 335 334 333 325 316 315 315 319 320 320 320 320 321 321
322 323 324 323 324 321 319 321 320 327 329 331 331 334 341 342 342 344 344 343 337 336 336 335 339 336 332 331 321 324 331 313 311 312 315 316 315 313 315 316 315 316 319 320 319 320 321 322 322
322 323 326 326 323 319 319 320 321 325 327 331 331 333 340 346 342 343 345 344 336 337 336 338 338 333 326 327 322 334 327 317 313 313 313 312 314 316 316 316 317 317 318 320 320 321 322 323 323
321 322 326 326 322 321 319 320 321 323 326 329 332 334 338 345 345 347 346 343 338 338 338 338 337 331 322 322 322 334 336 325 316 314 314 315 316 316 317 317 317 318 318 319 320 321 321 321 322
321 323 325 323 320 322 321 321 319 321 324 330 333 335 335 343 345 345 342 339 337 338 338 338 336 330 324 322 322 329 337 332 320 315 315 316 316 317 317 317 317 318 318 318 318 319 319 319 320
319 323 323 321 321 322 320 323 323 321 324 333 334 336 337 331 340 343 339 336 335 340 339 339 336 332 326 326 323 325 335 339 329 320 316 316 316 316 317 317 317 317 318 318 318 318 319 319 319
319 322 324 322 320 321 321 323 324 325 332 336 334 334 335 331 331 339 340 336 336 340 340 339 334 336 329 327 324 323 329 337 335 330 322 317 317 317 317 317 317 318 318 318 318 318 318 318 318
318 320 320 320 319 319 321 322 325 330 335 336 336 335 332 330 329 331 340 340 339 339 339 339 335 339 333 327 322 323 327 333 335 332 325 321 320 319 318 318 317 317 317 317 317 317 318 318 319
316 320 318 322 326 325 323 323 323 327 328 336 337 338 332 329 327 327 337 333 339 342 339 339 337 334 332 328 321 324 325 329 333 331 325 323 322 322 322 321 321 320 320 319 319 318 318 319 321
316 317 317 323 324 324 324 324 323 324 325 334 333 334 335 335 335 335 332 331 331 333 337 338 337 333 331 330 322 325 324 327 328 330 328 325 325 325 325 323 319 318 317 318 320 322 322 323 324
316 315 318 323 323 322 324 323 322 322 327 337 336 337 335 335 335 334 330 329 327 327 328 335 335 336 333 331 323 324 327 325 327 327 328 329 330 329 325 321 322 322 319 319 321 322 324 325 327
316 318 316 323 322 321 322 323 322 322 329 334 338 333 333 333 333 335 332 329 327 330 326 333 332 333 334 331 330 322 321 322 323 323 326 327 328 328 327 326 324 323 322 320 320 322 325 328 329
314 318 317 322 320 323 320 325 321 321 329 333 334 336 337 334 334 335 333 332 333 330 327 327 331 334 333 333 332 334 334 332 329 329 330 329 328 329 329 328 325 325 324 321 323 326 328 329 330
316 316 316 321 321 320 319 327 322 321 323 328 330 333 335 334 332 332 332 333 332 330 327 327 327 331 334 334 333 335 336 336 335 334 335 334 334 332 331 329 327 326 327 327 328 330 330 331 331
316 319 317 320 319 320 319 323 319 320 320 320 325 327 331 332 333 334 333 330 329 328 328 328 327 326 329 328 335 336 336 336 335 335 334 335 334 334 331 329 329 327 330 331 331 332 332 332 332
316 318 317 317 320 318 317 319 319 320 320 320 320 322 324 326 329 331 332 335 333 334 334 330 329 330 329 332 334 331 335 335 336 335 334 334 333 334 330 330 330 331 331 332 333 333 333 332 331
314 316 318 318 320 319 317 318 317 318 319 318 319 320 322 324 323 326 333 336 334 334 333 334 334 334 335 334 332 329 333 335 336 336 335 335 333 333 333 333 333 332 332 332 332 330 331 329 329
315 317 318 318 318 318 319 318 317 318 320 319 318 320 321 323 323 323 324 333 335 334 333 334 333 332 332 329 328 331 328 329 336 334 334 333 333 334 334 334 333 334 334 334 332 331 330 330 327
316 316 318 319 319 318 319 319 318 318 319 319 319 320 321 322 322 322 323 323 327 333 332 332 332 334 334 335 334 335 334 334 336 334 333 332 331 333 332 331 331 331 333 333 333 332 327 327 325
317 315 317 319 319 324 319 323 318 318 318 317 316 319 320 321 321 321 321 322 323 323 329 331 331 332 333 335 335 335 335 335 335 334 333 333 333 331 330 327 327 327 331 335 329 323 321 320 317
317 316 316 319 319 320 321 319 315 316 319 318 314 317 320 321 322 321 321 320 320 323 323 324 331 331 331 333 332 333 334 334 333 332 333 329 328 330 329 328 329 331 331 327 317 314 313 313 312
315 316 318 318 319 320 320 318 314 314 316 315 314 317 318 319 321 321 320 321 321 321 321 322 322 329 330 330 331 331 331 331 331 331 330 328 328 328 327 325 326 327 321 315 314 313 312 311 311
315 314 318 319 319 319 316 317 315 313 311 312 312 315 317 319 319 320 321 321 320 320 320 321 322 321 325 326 328 329 330 330 330 330 330 329 326 323 324 325 326 318 314 313 312 311 311 311 311
317 313 315 320 319 314 315 318 315 309 309 310 313 315 316 317 318 319 320 320 319 320 320 320 320 321 320 320 322 324 326 329 329 329 327 327 326 326 326 326 317 314 313 312 311 311 311 310 310
315 310 311 310 309 311 313 311 309 309 307 307 309 311 312 313 314 315 317 319 319 319 319 320 320 320 320 319 319 318 321 326 327 327 324 324 327 325 324 315 313 312 313 312 311 310 310 310 310
315 313 313 309 313 313 311 311 310 311 310 308 308 310 311 312 313 314 314 316 318 319 319 320 319 318 318 318 318 317 317 317 323 325 325 323 323 318 314 312 314 318 318 316 312 311 311 310 310
313 314 311 309 308 311 312 311 306 308 308 308 308 311 313 313 313 312 312 312 313 317 319 319 319 319 319 318 317 316 316 316 318 319 319 317 315 315 317 318 317 319 317 312 311 310 310 309 309
313 313 310 308 310 304 305 309 304 305 307 309 310 312 313 313 313 313 313 313 312 312 312 316 318 318 318 317 316 315 315 315 316 316 315 314 315 315 314 316 317 315 311 310 309 309 308 308 308

GFSSGP_850_thetae_090.txt.gz
Theta_e
325 326 325 325 324 319 320 324 322 329 330 330 331 337 338 337 333 331 341 345 340 339 338 339 336 334 336 332 323 326 339 338 340 336 335 335 337 341 340 337 331 320 313 319 318 319 320 321 319
325 325 324 326 324 322 322 318 324 328 329 330 331 334 340 341 342 341 342 344 340 338 339 338 335 334 336 329 331 327 338 339 343 342 341 341 342 340 338 330 320 314 317 319 319 320 321 321 320
323 324 323 325 325 324 320 317 320 326 330 329 331 337 338 343 342 341 342 342 340 338 338 337 333 338 336 329 329 331 333 339 340 342 342 342 340 336 332 320 315 316 320 319 320 320 320 320 320
322 322 323 326 326 321 318 319 322 327 329 329 329 331 338 341 341 342 342 342 339 338 337 334 336 338 331 326 322 318 326 332 339 340 340 337 334 325 316 315 316 319 319 319 320 320 320 321 322
322 321 322 326 324 320 317 318 322 325 329 330 330 332 337 343 342 343 342 341 339 337 335 336 338 335 330 324 320 328 314 320 326 329 330 328 318 315 315 315 317 319 319 320 321 322 322 322 322
320 321 323 325 325 320 318 320 321 324 327 331 331 331 334 339 343 343 343 341 337 336 335 340 338 333 331 323 334 328 317 312 311 311 312 312 315 316 316 317 317 319 320 320 321 321 322 322 322
318 320 322 322 323 321 319 320 318 321 325 330 331 332 334 336 341 344 344 340 337 336 337 339 336 331 325 323 335 333 326 316 314 313 314 322 316 316 316 317 318 319 320 321 321 322 321 321 320
317 320 320 321 323 322 318 320 321 321 322 325 328 334 331 339 342 343 343 339 337 337 337 338 335 328 322 321 332 336 335 324 316 315 316 317 317 317 316 317 318 318 319 319 319 320 320 319 319
316 318 319 320 322 321 318 320 322 321 326 330 331 332 329 337 340 342 340 338 337 338 337 337 335 329 325 322 324 335 336 330 322 316 315 316 316 316 317 317 317 318 318 318 318 318 319 319 318
314 316 317 318 318 317 319 321 323 329 333 334 334 334 332 327 336 329 338 338 337 339 338 338 334 333 327 326 323 327 336 336 328 325 318 316 316 317 317 317 317 318 318 318 318 318 318 318 319
313 315 315 318 318 320 322 321 324 328 332 334 336 335 333 331 333 331 326 331 337 339 340 339 335 338 333 327 323 323 329 335 335 330 323 319 318 317 317 318 318 318 317 317 317 317 316 317 320
312 313 315 317 318 322 323 323 322 327 327 331 335 334 332 332 331 328 326 326 337 339 336 338 337 337 337 332 322 323 324 331 335 332 325 322 321 321 321 321 320 321 320 319 320 320 321 322 323
312 313 315 316 317 318 321 322 322 321 330 332 336 334 331 330 329 328 326 327 336 338 334 332 335 335 335 334 327 324 324 326 330 332 331 324 324 324 325 323 320 319 319 319 321 323 323 324 325
312 313 314 316 316 318 322 322 322 321 332 338 335 333 332 334 334 332 330 329 329 332 328 330 329 332 335 334 331 323 327 325 327 329 331 328 330 331 327 324 323 322 321 320 321 322 324 327 328
311 314 316 313 315 321 320 323 321 320 328 336 335 334 334 335 335 337 335 332 331 327 327 327 327 328 330 334 333 327 324 327 325 326 324 328 328 329 329 327 325 324 323 322 321 322 326 328 329
312 314 317 315 312 314 320 326 319 319 323 326 332 333 334 334 334 335 334 329 328 328 327 329 325 326 327 331 333 334 330 326 324 326 329 330 331 331 331 330 329 327 326 325 324 328 329 330 330
313 316 317 316 314 319 319 325 320 318 319 319 323 327 333 333 333 333 333 329 331 331 330 326 326 326 327 329 332 332 333 334 334 334 334 335 334 334 334 331 330 329 327 329 330 330 331 332 332
314 316 316 317 318 316 318 318 318 317 317 318 319 320 326 331 331 331 331 331 330 330 330 326 327 327 328 328 326 329 327 332 332 333 333 335 334 334 334 331 330 330 329 330 331 332 332 331 330
313 315 316 315 316 317 316 317 317 317 316 317 317 320 321 323 328 331 330 331 330 330 329 327 327 327 328 327 327 327 327 327 331 334 336 335 334 334 333 332 332 332 333 332 331 330 330 329 329
315 316 318 318 316 316 317 318 317 317 317 318 318 318 320 323 322 325 331 332 332 332 329 329 328 328 329 331 332 329 331 331 331 329 332 334 334 335 334 334 333 333 332 332 332 331 330 328 328
315 315 316 317 317 318 317 318 318 317 317 318 318 319 320 321 322 322 323 329 332 331 333 333 332 333 332 332 334 333 330 329 329 329 327 334 332 333 331 331 332 330 330 331 333 331 329 331 328
317 315 317 318 317 320 318 321 317 317 318 318 317 318 318 321 321 321 322 322 323 327 330 332 332 332 333 332 332 331 330 329 330 329 331 334 332 330 330 331 327 328 326 327 327 329 332 328 320
317 315 317 318 319 319 319 320 317 316 318 318 316 318 317 318 321 321 321 321 321 321 322 326 331 331 331 332 331 332 332 332 331 331 333 332 332 331 330 329 329 327 326 325 326 326 321 314 313
315 316 317 317 319 316 319 317 315 315 317 316 316 317 317 317 321 321 321 321 320 320 320 322 322 323 330 330 330 331 331 331 331 331 330 331 331 329 329 329 328 324 326 326 325 315 313 312 311
316 316 319 320 319 318 316 316 314 313 311 313 314 313 316 317 319 321 321 320 320 320 320 321 321 322 322 328 327 328 329 330 331 330 330 330 330 329 328 325 323 323 325 318 313 313 311 311 311
316 313 317 319 316 316 316 319 314 308 307 309 311 313 314 316 317 318 319 320 320 320 319 320 320 321 321 321 324 326 327 327 328 329 329 329 329 328 325 325 324 325 316 313 313 315 313 312 311
316 312 310 310 309 312 314 311 309 308 307 307 308 310 311 312 313 315 316 318 319 319 319 319 319 319 320 320 320 320 320 320 323 326 327 327 326 324 323 325 324 314 312 317 319 316 313 311 310
314 311 313 310 316 313 310 311 310 310 309 307 307 309 311 311 312 313 314 315 317 317 318 319 319 320 319 319 319 319 318 318 317 319 326 326 324 324 326 322 314 312 317 319 318 317 315 311 309
312 313 310 309 308 311 312 310 307 306 308 307 307 311 312 312 312 312 312 312 312 313 317 318 319 319 318 317 318 318 317 317 316 316 321 325 324 324 318 314 312 317 318 319 318 316 311 309 309
312 312 308 308 311 303 305 309 304 303 306 308 310 311 312 312 313 313 313 313 313 313 312 312 315 318 318 318 318 317 317 316 315 316 318 318 318 315 313 314 316 316 317 316 312 310 309 309 308

GFSSGP_850_thetae_093.txt.gz
Theta_e
323 322 326 325 328 325 329 328 324 332 333 331 330 338 337 337 332 333 340 344 340 338 341 340 334 336 333 328 324 337 339 335 329 330 329 335 338 340 338 336 326 314 318 317 320 322 322 317 317
323 323 324 324 327 327 326 323 325 329 330 330 330 332 339 341 341 341 341 342 341 337 340 339 334 337 335 323 325 338 340 337 333 334 335 336 340 341 337 329 316 315 318 318 320 320 319 319 318
322 323 323 326 327 325 324 320 322 325 329 330 330 331 336 340 341 341 341 341 340 338 338 338 334 337 334 326 322 337 339 341 339 337 336 341 341 338 330 319 314 319 318 320 321 320 321 320 320
321 323 322 325 325 324 322 319 318 326 330 329 329 331 333 337 342 341 340 341 340 338 339 336 334 337 333 330 328 338 338 342 342 342 342 341 338 333 324 315 317 319 319 320 320 320 321 322 321
320 321 324 323 323 323 321 320 319 326 329 330 329 331 330 335 341 342 341 341 339 339 338 334 338 337 330 327 322 332 339 340 341 341 340 336 329 317 315 316 319 319 320 321 322 322 323 322 322
319 320 323 323 323 322 321 319 320 321 329 330 329 329 328 329 338 342 340 341 338 338 335 335 338 333 328 321 320 319 330 334 337 337 335 331 318 316 315 319 320 321 321 321 322 323 323 323 323
317 319 319 320 321 321 322 320 319 319 327 331 330 331 330 328 330 342 340 340 338 336 334 340 337 331 326 326 330 318 314 318 322 324 320 317 316 315 316 318 321 321 321 321 322 322 322 321 321
315 316 317 318 320 321 320 320 320 318 321 329 330 332 333 330 331 336 342 340 336 335 337 339 336 329 326 336 329 330 319 313 312 312 326 316 316 316 317 317 319 320 321 322 321 321 320 319 319
314 315 315 316 319 320 319 320 321 320 321 328 331 330 330 330 330 335 342 340 338 336 339 338 334 325 324 335 335 334 328 317 314 315 317 316 317 316 317 318 318 319 319 320 319 319 319 319 318
312 314 313 314 316 319 319 319 320 322 324 329 331 332 328 331 330 334 331 340 337 338 339 337 333 324 322 326 335 335 335 327 317 315 317 317 317 317 317 317 318 318 318 318 318 318 318 318 318
310 311 312 312 314 318 321 319 320 321 324 327 332 332 329 328 331 330 324 328 335 337 338 337 333 329 327 323 327 335 335 330 324 320 316 316 316 316 317 317 317 318 318 318 318 318 317 317 319
309 309 311 313 314 317 319 321 322 321 322 326 332 329 330 329 327 328 326 327 332 338 336 337 333 334 331 329 325 326 333 335 331 327 324 318 317 317 317 317 318 318 318 318 318 318 318 318 321
309 309 310 312 313 316 318 318 319 322 321 322 331 333 330 328 327 326 325 326 330 334 334 336 333 336 335 329 324 323 325 332 335 332 326 323 322 321 321 321 320 320 319 319 319 320 322 322 323
309 309 310 312 313 315 318 318 318 322 322 324 329 332 331 327 327 328 329 326 327 327 334 331 334 333 332 331 328 323 324 325 332 334 332 326 324 325 326 325 322 321 320 319 321 323 323 324 327
307 308 312 312 314 316 316 315 315 319 321 325 328 331 332 330 326 326 326 326 326 326 330 330 329 329 331 332 331 324 324 325 325 328 331 332 329 330 331 328 325 324 323 322 321 321 323 326 328
310 311 314 314 315 312 314 317 318 318 320 326 328 331 331 331 330 328 326 327 327 328 326 327 327 326 327 328 332 331 323 324 327 326 328 327 329 328 329 329 328 326 325 324 322 323 325 328 329
312 314 314 316 313 314 312 315 316 317 318 319 321 328 331 334 333 332 326 327 327 331 326 327 326 326 326 326 327 330 332 330 323 323 325 328 330 332 332 332 330 330 327 326 326 327 329 331 332
313 314 314 316 316 314 312 310 309 317 317 318 317 321 331 332 332 330 328 328 330 330 329 327 325 325 324 325 327 330 331 330 331 332 332 333 334 334 334 333 332 331 329 327 330 331 332 331 329
313 314 315 317 316 315 315 311 313 317 317 318 318 319 326 331 332 332 332 330 331 328 329 327 328 326 324 326 328 327 327 327 327 329 333 333 334 334 334 334 333 331 330 329 332 331 329 330 327
314 316 317 316 315 314 314 312 314 317 317 317 318 318 320 328 329 324 328 330 330 329 329 330 328 327 326 327 327 327 326 326 327 327 331 332 332 333 334 334 332 331 332 332 332 330 329 329 329
314 315 316 316 316 314 315 314 317 318 318 318 318 318 318 319 324 326 328 330 328 330 328 328 328 326 326 327 327 327 325 326 327 328 330 330 330 332 333 332 332 332 333 331 330 330 332 331 330
316 315 315 316 317 319 317 319 316 318 318 319 319 319 318 319 318 321 327 329 328 329 328 328 328 327 326 326 328 329 330 329 329 329 329 330 329 329 331 330 331 332 330 328 327 326 326 327 326
316 315 316 317 319 319 318 319 318 316 318 318 319 320 319 318 320 320 320 321 322 325 328 330 331 331 329 331 331 332 332 329 326 330 329 329 329 331 331 330 331 330 327 326 326 324 321 323 313
315 315 315 316 318 319 319 318 316 317 317 316 318 318 320 318 319 321 320 320 321 320 320 321 322 328 331 331 331 331 330 330 327 329 330 329 327 329 328 330 328 328 327 324 322 321 322 314 312
314 316 319 319 316 318 315 317 315 312 309 311 317 315 319 317 317 320 321 321 321 320 320 320 321 321 321 326 331 329 330 330 330 330 330 330 327 329 330 327 328 327 323 322 322 319 312 314 317
315 314 316 317 317 319 316 319 315 308 307 309 311 314 313 313 316 317 319 320 320 320 320 320 320 321 320 321 322 328 327 328 327 328 328 329 329 329 329 328 325 324 324 323 318 314 318 317 316
316 313 310 311 310 317 313 311 308 308 309 308 308 309 309 311 313 315 316 317 319 319 319 319 319 319 319 319 320 320 323 324 324 324 326 328 328 328 328 326 325 324 321 314 316 318 317 316 316
313 311 313 311 314 314 312 311 310 308 309 308 309 308 310 311 311 312 313 316 317 317 318 318 318 319 319 318 319 319 320 318 318 318 318 324 327 327 326 324 325 321 314 314 317 317 316 316 315
312 312 309 309 309 313 314 311 306 307 307 309 308 310 311 312 312 312 312 312 312 313 316 318 318 318 318 317 317 317 318 318 318 317 317 318 326 326 325 325 322 315 313 316 318 316 315 317 313
311 311 307 311 312 305 307 311 304 303 305 308 309 311 311 312 312 312 312 312 312 312 312 312 312 316 318 318 317 317 318 317 317 316 316 317 323 325 325 320 315 312 315 316 315 313 312 312 310

GFSSGP_850_thetae_096.txt.gz
Theta_e
325 326 327 327 326 327 328 327 328 329 332 332 332 333 337 338 336 342 343 339 344 347 345 341 337 332 331 326 322 335 337 328 328 331 328 334 338 340 337 334 318 314 319 330 335 335 316 316 315
325 326 326 327 328 326 326 325 327 327 328 332 332 333 334 339 343 343 342 341 345 347 344 341 334 333 331 323 330 338 336 328 331 329 331 337 340 340 336 326 314 319 332 333 322 318 318 317 317
323 325 325 325 327 328 324 324 325 325 326 331 333 332 332 337 341 343 341 340 344 346 344 342 336 335 332 322 336 340 336 331 330 331 337 339 341 338 333 317 321 323 329 322 319 320 319 319 318
321 323 324 327 322 322 324 323 323 324 326 329 330 331 330 332 338 343 341 342 344 345 345 338 336 336 331 322 337 341 338 334 336 336 338 341 340 334 322 315 327 319 329 323 321 321 321 321 320
319 321 321 321 321 320 322 322 322 323 324 329 330 330 330 330 334 341 342 342 343 343 343 335 335 336 329 324 336 340 340 339 338 338 342 341 338 330 315 318 320 320 326 321 322 322 322 322 322
318 318 319 320 318 318 320 322 322 322 322 325 330 329 330 328 331 334 342 342 342 342 341 338 336 336 329 324 333 338 341 342 342 342 339 332 328 319 315 320 320 321 321 321 322 322 322 322 322
317 318 318 316 316 316 319 320 323 322 323 324 329 330 330 328 325 328 335 341 342 341 341 337 339 333 327 319 330 337 339 341 340 340 336 330 319 315 318 320 320 321 321 322 322 323 322 321 321
314 317 317 316 316 315 316 318 320 322 323 322 328 330 331 327 325 325 328 342 341 340 340 338 338 332 325 328 317 325 332 335 336 335 332 318 316 315 319 320 321 321 321 321 321 321 321 320 320
312 315 316 315 315 315 315 317 319 321 322 321 325 330 332 330 326 324 326 328 341 339 339 339 339 336 333 335 326 318 315 318 322 324 318 318 317 316 318 320 321 321 321 321 321 320 319 319 319
311 312 311 312 313 314 315 316 317 320 322 322 323 331 333 331 327 330 328 327 325 337 339 339 338 335 337 335 332 327 318 315 325 325 320 328 320 322 323 318 319 320 320 320 319 319 319 318 318
308 311 310 310 311 312 315 316 318 320 322 322 323 326 331 336 332 331 331 328 328 338 339 337 335 333 334 337 335 333 332 329 328 331 331 330 324 317 318 318 318 319 319 319 318 318 318 318 319
309 307 308 308 310 312 313 315 317 319 319 321 322 324 332 333 330 330 330 329 332 336 338 335 331 331 332 336 336 337 332 333 330 323 320 318 319 317 320 323 321 319 318 319 318 319 317 317 319
308 308 306 307 308 310 313 315 318 319 321 321 321 323 327 332 330 328 325 326 329 328 336 335 331 326 327 329 335 334 335 331 328 325 318 316 316 317 317 317 318 318 318 318 319 319 320 320 322
307 307 307 307 308 310 312 315 317 318 321 322 322 322 324 330 328 327 326 324 324 326 333 335 333 327 328 325 323 328 333 333 332 330 326 323 321 319 320 321 322 321 320 319 320 320 323 324 325
308 309 309 309 309 312 312 316 317 317 319 320 322 321 324 329 327 325 325 326 325 326 326 331 331 333 332 327 321 322 323 328 332 334 331 327 325 325 323 327 324 322 322 321 321 322 323 324 326
306 310 311 310 311 311 314 317 315 318 318 320 323 322 326 329 327 324 325 326 326 327 326 328 330 332 333 332 329 322 323 323 324 330 331 330 329 329 331 331 328 327 325 323 322 321 321 327 329
308 315 313 314 313 314 316 316 316 313 313 315 322 324 327 328 329 327 326 327 328 328 328 324 328 329 329 329 333 330 324 322 326 325 325 327 328 329 329 329 330 329 327 325 324 323 326 329 332
314 314 314 315 315 315 316 317 315 313 313 315 322 324 327 328 329 330 328 329 328 327 326 325 328 327 327 330 331 330 330 331 326 323 323 324 324 328 331 332 333 332 330 328 326 327 329 332 333
308 314 315 316 316 316 316 316 314 313 314 312 322 325 328 329 331 331 330 329 327 327 327 327 326 326 326 329 329 330 330 329 330 331 331 328 330 333 334 334 334 333 332 330 328 330 332 331 331
311 314 316 316 316 316 316 316 316 315 314 311 321 323 328 325 330 328 331 329 328 329 326 328 326 326 326 326 327 328 330 329 328 328 327 328 333 333 334 334 333 333 333 331 330 332 331 331 329
315 313 316 316 316 315 316 317 314 313 313 312 319 319 324 326 325 322 329 330 328 330 328 327 327 328 327 325 326 327 327 328 327 328 327 328 331 331 331 332 332 332 333 331 331 331 329 330 329
315 314 316 316 317 320 317 320 316 314 320 322 321 319 319 323 323 322 322 325 325 323 324 326 327 328 328 326 326 327 328 328 327 327 328 329 329 329 331 329 331 330 332 331 331 330 327 327 325
316 316 316 316 318 319 318 321 318 318 323 323 322 320 318 318 321 324 324 327 327 328 327 328 327 328 327 328 326 327 328 328 328 325 326 327 328 329 328 329 329 329 330 330 328 327 325 324 321
316 317 317 319 319 321 319 321 319 316 314 319 320 320 320 317 319 318 319 325 327 326 327 330 330 329 329 328 328 327 328 327 325 326 325 326 327 326 326 329 327 330 329 324 325 325 324 324 323
316 318 320 320 322 321 318 321 315 312 312 313 318 319 319 318 317 319 319 319 320 320 319 320 321 323 327 330 331 329 330 330 330 329 330 326 328 328 327 325 323 324 324 325 327 325 322 322 322
315 317 320 319 320 321 319 320 314 312 311 312 316 314 317 319 320 318 318 319 318 319 319 319 320 319 319 319 321 329 329 330 329 329 329 329 329 329 329 327 328 325 328 326 324 322 322 314 316
317 316 312 317 318 320 317 314 316 313 313 311 310 312 311 315 317 319 315 318 318 319 319 319 318 319 319 319 319 320 325 326 326 327 327 327 328 329 329 329 328 327 325 323 323 320 315 317 316
315 313 317 318 320 320 315 316 317 315 314 313 312 311 310 310 311 312 315 316 317 317 318 318 318 318 318 318 318 319 321 322 321 320 320 322 326 327 328 329 328 326 325 324 319 314 317 316 315
315 315 313 314 314 317 317 316 311 312 312 313 312 312 311 311 311 311 312 312 312 314 316 317 318 317 318 318 318 319 319 318 317 318 318 318 321 327 328 328 326 325 323 319 312 317 317 316 315
314 314 312 318 315 312 316 315 310 310 312 312 312 312 311 310 311 311 311 311 311 312 312 312 312 313 316 317 317 317 317 317 317 317 317 317 318 324 327 327 325 323 318 312 315 316 315 313 311

GFSSGP_850_thetae_099.txt.gz
Theta_e
320 327 327 328 329 327 328 327 325 327 328 331 334 335 336 337 338 344 344 342 345 345 346 344 343 336 332 330 325 324 330 319 325 330 334 332 339 340 337 330 331 333 327 335 321 315 315 315 316
322 324 326 325 328 327 325 324 326 325 327 329 334 334 336 338 342 344 345 341 344 344 346 343 342 332 331 328 322 334 338 326 328 331 331 334 340 341 336 324 318 322 334 335 321 316 316 315 315
321 323 324 324 327 329 324 324 324 325 325 327 331 333 335 337 341 343 346 343 342 345 345 344 339 332 330 325 326 337 336 328 331 332 330 336 340 340 334 315 321 334 336 321 317 318 318 318 318
320 321 322 324 322 322 323 323 323 324 325 325 329 333 334 336 338 343 344 344 343 344 345 344 336 333 331 322 335 339 333 328 333 331 334 339 341 338 326 318 334 333 328 319 319 319 319 319 319
318 319 322 319 320 321 321 321 321 323 324 324 326 330 331 333 335 339 343 341 344 344 343 344 336 335 331 323 338 339 333 330 332 335 339 340 340 333 327 329 329 335 335 320 321 321 320 321 321
318 316 319 319 318 318 318 318 320 322 323 322 324 328 329 330 334 335 332 340 343 344 343 343 336 336 329 325 338 341 334 334 336 338 340 341 339 325 318 329 331 335 324 322 322 322 322 322 322
316 318 317 316 316 316 317 317 319 321 322 322 322 326 328 330 332 329 328 335 343 343 343 342 335 336 329 324 337 341 338 337 338 339 342 340 334 319 327 328 333 335 322 322 322 322 322 322 322
313 315 316 317 316 316 315 315 316 319 320 321 322 324 328 329 328 329 329 331 342 342 342 340 338 337 333 328 336 341 341 341 340 341 338 332 325 317 325 328 334 333 324 323 323 322 321 320 320
311 314 316 314 315 315 314 315 315 317 319 320 321 322 325 330 333 330 329 324 325 327 328 340 339 338 334 330 332 337 341 341 340 339 334 323 317 319 325 328 328 326 324 323 322 321 321 319 319
311 313 313 312 312 313 313 314 314 315 317 319 321 322 323 332 333 329 327 325 324 324 324 323 339 336 333 333 322 326 333 338 338 336 331 327 324 329 331 323 322 322 322 322 322 321 320 319 322
309 312 310 310 310 310 312 313 313 315 317 318 319 321 325 333 333 329 326 326 327 324 323 323 338 335 334 335 328 328 324 328 331 332 332 331 330 329 333 321 322 322 323 322 320 319 319 324 327
308 308 308 309 308 309 311 312 314 315 316 317 318 319 323 327 330 331 327 327 327 325 324 324 338 335 333 334 332 331 328 329 331 332 331 331 332 331 331 322 320 320 319 327 325 328 327 323 324
308 308 307 308 307 308 308 310 313 313 315 318 319 320 323 326 329 330 329 328 325 324 329 333 336 333 336 335 334 332 331 329 329 332 332 331 331 329 330 329 328 328 326 328 326 325 326 324 328
309 310 309 308 308 307 308 309 310 313 314 317 321 322 323 324 327 331 330 327 325 327 332 329 334 332 333 334 336 335 333 332 332 329 328 328 328 328 327 328 328 327 324 325 327 328 329 330 330
309 310 310 309 309 308 307 309 310 311 314 317 319 321 323 323 325 328 328 326 324 326 327 329 332 327 331 333 335 336 335 334 332 334 331 331 327 328 322 330 325 324 322 323 325 329 330 330 331
310 309 310 309 309 310 308 311 311 311 314 316 318 321 322 322 325 327 327 326 325 326 325 326 330 326 331 332 327 332 335 337 333 332 332 329 323 322 321 323 324 324 322 322 327 329 329 328 330
310 312 311 311 312 311 311 312 313 313 316 317 318 320 322 322 323 326 328 327 326 326 325 326 331 328 328 333 331 331 329 331 333 334 335 334 327 325 326 328 330 328 327 325 329 329 327 328 331
312 314 314 317 314 312 312 314 315 316 316 317 318 321 321 322 325 326 326 328 328 326 327 323 327 329 328 332 333 332 331 329 325 325 327 333 331 332 330 330 332 333 331 330 330 329 327 330 331
311 312 313 315 312 313 314 315 314 315 315 316 318 322 321 322 326 326 327 329 329 328 327 324 328 329 329 329 333 333 332 327 325 326 326 326 328 331 332 330 332 333 333 332 330 329 329 331 332
312 313 314 316 316 314 315 316 315 315 315 315 315 316 324 325 327 327 326 329 330 328 326 324 324 325 327 327 330 331 333 333 332 329 328 327 327 327 331 332 334 334 333 333 332 330 331 332 332
313 314 315 317 317 317 316 319 318 317 315 315 315 315 324 326 327 326 327 331 330 328 325 325 326 326 327 327 327 329 331 332 335 334 332 330 331 333 332 332 333 333 333 333 332 331 330 331 330
317 314 315 314 318 321 318 322 316 315 318 317 316 318 326 325 325 324 324 328 329 327 325 326 326 326 325 327 327 327 327 328 328 329 330 329 329 330 331 331 330 330 330 331 331 330 331 329 329
316 314 315 314 316 320 319 320 318 314 320 320 320 321 325 324 324 323 321 323 325 325 327 325 327 327 327 328 327 326 326 327 328 328 328 327 328 329 328 329 328 329 329 329 329 329 328 328 326
314 316 316 317 319 324 321 320 321 317 313 322 320 318 320 323 322 322 321 323 322 323 323 324 326 327 327 328 327 328 327 325 327 328 328 325 325 326 326 326 325 325 329 330 327 324 325 326 326
316 315 321 323 323 324 319 321 316 313 312 320 321 319 318 319 319 321 323 325 326 325 325 326 327 328 328 328 328 328 327 327 325 324 324 326 325 326 325 325 325 325 325 327 324 324 323 326 324
317 318 323 320 323 323 321 321 318 315 315 316 314 317 318 320 318 316 317 318 318 318 319 319 320 321 322 324 330 330 329 329 328 328 329 329 329 329 326 327 326 326 325 324 324 324 325 324 322
317 319 314 319 319 319 321 318 316 316 313 313 312 312 313 315 316 319 317 315 315 317 317 318 318 319 319 319 319 320 323 328 328 329 329 329 328 327 328 328 329 327 326 326 326 326 325 322 320
317 315 319 320 322 320 321 320 319 317 315 314 314 312 312 314 316 319 319 316 316 316 317 317 317 317 318 318 318 319 319 323 327 327 327 326 326 325 326 327 328 327 328 327 328 325 323 322 314
317 316 315 315 316 318 320 320 312 315 316 314 313 313 312 312 312 312 312 313 313 314 315 316 317 317 317 318 318 319 321 322 322 321 320 319 320 321 325 326 327 328 328 327 326 323 323 315 317
315 314 315 319 317 318 318 316 312 314 314 313 313 313 312 311 310 310 310 310 310 311 311 312 312 313 315 316 316 316 317 317 317 317 317 317 318 318 322 326 327 328 328 326 325 323 315 315 316

GFSSGP_850_thetae_102.txt.gz
Theta_e
314 324 325 326 329 328 328 328 325 325 325 325 328 334 336 336 342 346 343 344 347 347 345 343 343 337 335 331 328 325 322 328 330 335 335 334 339 340 333 336 335 332 336 324 320 315 318 320 319
322 324 325 325 327 327 325 323 324 324 324 324 328 334 336 337 342 345 345 340 345 346 343 344 343 339 335 330 327 321 319 330 329 333 334 333 340 340 333 336 335 331 335 318 315 315 315 316 316
310 323 324 324 325 327 324 322 322 322 324 324 328 334 334 335 342 345 345 341 345 346 343 344 343 337 332 329 325 326 332 331 328 331 332 333 339 340 334 324 326 332 331 316 316 316 316 317 317
319 319 322 322 322 321 322 322 322 322 323 324 326 334 334 335 340 344 340 343 344 344 343 343 342 334 331 328 322 333 337 329 330 333 332 336 340 337 331 316 326 334 321 317 317 318 318 319 319
318 320 321 320 319 320 320 321 321 321 321 323 325 329 333 332 338 340 341 345 342 344 343 344 343 333 331 327 325 337 335 328 333 334 333 338 340 337 320 329 335 325 319 319 319 319 319 320 320
317 317 319 319 318 317 317 318 318 318 319 321 323 324 328 330 330 335 339 344 344 344 344 344 344 335 334 327 332 339 333 329 335 331 335 339 340 335 320 333 327 334 322 320 320 320 321 321 321
315 317 317 315 315 315 316 317 317 317 317 319 321 321 322 330 330 330 334 340 342 342 344 343 343 337 334 325 333 339 332 330 332 335 340 340 338 331 331 331 335 333 321 321 321 322 322 322 321
312 314 315 315 316 315 315 315 315 315 316 318 319 320 321 324 332 331 330 331 338 340 342 343 341 337 334 325 333 340 334 332 334 339 339 341 338 325 333 333 335 335 324 322 322 322 322 321 320
310 313 313 313 313 313 314 314 314 314 315 315 317 320 322 326 329 328 331 330 332 338 341 338 339 339 336 327 328 341 338 336 338 340 341 339 334 333 337 336 335 335 327 323 323 322 321 320 319
310 311 312 311 311 311 312 312 313 313 314 314 316 318 319 322 326 329 331 330 328 330 337 336 327 328 336 333 325 337 340 339 339 340 339 334 324 327 336 335 335 335 331 323 323 322 320 319 319
310 310 310 310 309 310 310 310 310 311 313 314 315 317 318 321 328 329 327 326 330 326 325 325 326 325 326 325 326 333 340 340 340 339 334 323 322 327 333 332 334 328 322 322 322 321 319 320 324
307 307 309 309 309 309 309 309 309 310 311 313 315 316 318 320 323 325 328 328 327 327 326 324 324 326 326 329 328 332 336 338 336 335 328 331 328 328 329 324 322 321 322 322 321 320 320 322 323
308 308 308 308 307 308 308 308 308 309 311 313 313 315 318 320 326 328 327 328 327 327 325 324 323 323 327 335 328 326 330 329 332 331 330 331 331 328 329 322 322 321 321 324 327 327 327 323 321
308 309 309 310 310 309 308 308 308 308 308 310 312 314 317 322 321 325 326 327 327 327 325 325 325 326 329 335 330 328 327 330 331 328 331 331 332 327 330 328 325 325 325 328 326 322 326 328 327
309 309 310 310 310 310 309 309 308 308 308 308 312 313 316 320 320 321 325 328 328 328 327 329 327 330 332 332 330 330 329 329 332 332 332 331 330 329 329 328 324 322 320 320 321 324 328 329 330
310 310 311 310 309 310 310 310 309 308 308 308 310 313 315 319 321 321 325 323 329 328 328 330 331 330 328 331 330 331 333 331 330 330 330 328 327 325 322 323 320 319 320 321 320 321 327 328 329
310 310 311 311 311 311 311 310 310 308 308 309 310 315 315 318 321 324 324 325 326 327 326 327 328 326 325 325 332 332 330 331 331 331 328 329 325 323 319 321 323 324 323 322 323 326 328 325 328
312 312 312 312 313 313 312 311 311 310 309 310 314 317 317 319 321 323 324 325 327 327 326 326 325 325 321 322 324 328 330 334 332 329 331 331 326 323 323 323 328 330 328 328 327 328 328 327 329
310 311 312 311 313 313 313 311 311 312 312 314 316 317 321 322 321 323 325 323 326 328 326 326 326 323 322 325 327 328 329 330 331 336 335 334 336 329 328 330 331 332 331 331 330 329 329 327 331
312 312 312 312 316 313 314 312 313 314 313 315 315 315 319 322 322 322 326 325 326 328 327 326 326 324 326 324 327 330 330 330 330 330 331 332 333 333 333 332 331 331 332 333 332 330 329 329 330
311 312 312 315 313 315 316 316 315 315 316 315 315 315 316 322 325 325 325 325 324 325 327 325 329 328 327 329 327 329 329 330 331 331 331 332 330 330 330 331 331 333 333 333 333 332 330 330 330
313 314 315 316 315 320 316 319 317 314 314 314 315 315 317 324 325 325 323 324 324 328 327 327 326 326 327 327 327 328 328 329 329 330 331 331 331 331 331 330 332 333 332 331 332 332 332 330 329
314 314 316 316 316 314 319 319 317 313 318 318 316 318 323 324 324 323 322 323 327 328 326 326 325 325 325 326 327 327 327 327 328 328 329 328 329 329 328 330 331 330 329 329 329 330 330 330 328
314 315 316 316 317 322 321 320 318 314 314 316 322 324 323 323 323 322 321 323 325 327 325 326 325 325 324 326 327 326 326 326 326 327 328 328 327 327 328 327 327 326 325 325 327 329 329 327 324
315 317 318 321 323 323 317 319 315 313 313 317 320 321 323 321 322 322 322 322 321 322 324 322 323 325 326 326 326 326 327 327 326 325 327 326 326 325 325 325 326 326 325 325 325 323 322 324 323
316 317 319 323 323 325 318 319 315 315 313 318 318 317 317 320 319 319 321 323 322 320 321 323 324 324 326 324 327 327 328 328 327 326 325 323 323 325 325 326 327 326 325 325 324 324 324 324 323
318 318 314 318 319 322 320 315 313 313 314 313 314 316 316 315 314 316 317 317 317 319 319 318 317 317 317 318 320 326 331 332 330 327 327 327 325 327 328 327 326 327 326 325 325 324 324 323 324
316 315 316 318 324 325 320 317 319 314 316 314 313 313 314 314 315 316 318 316 316 316 316 316 316 317 317 318 320 320 320 323 329 329 328 327 326 326 326 326 326 326 327 327 326 326 325 325 325
316 315 315 314 315 318 320 318 316 315 315 314 313 312 312 312 312 313 314 315 315 316 316 316 316 317 317 317 318 318 319 321 323 324 325 326 325 325 324 324 325 326 326 328 328 327 326 327 325
314 314 314 315 316 315 315 316 314 314 313 313 312 311 311 310 309 309 310 310 310 311 311 312 312 312 314 316 317 317 317 318 317 317 318 318 318 318 318 319 322 325 326 327 327 327 326 325 323

GFSSGP_850_thetae_105.txt.gz
Theta_e
311 320 325 327 326 324 326 329 324 324 323 324 325 323 334 337 339 338 344 345 344 346 345 340 333 333 331 328 327 326 325 329 334 335 334 333 341 338 332 326 338 338 331 328 318 321 321 319 321
312 324 324 325 323 325 324 322 322 321 323 324 324 326 335 340 344 343 342 342 344 347 345 342 339 336 334 331 328 326 325 329 331 335 335 332 341 337 336 330 337 336 323 319 316 318 318 318 318
309 322 323 321 320 324 322 320 319 321 322 321 322 331 334 341 345 345 343 339 338 345 344 342 343 338 336 331 328 325 320 329 329 333 334 333 340 337 337 334 334 336 319 314 315 316 316 316 316
319 318 321 320 321 321 321 320 321 319 321 321 320 332 334 340 343 342 338 336 338 345 344 343 344 340 335 330 327 322 323 331 327 331 333 334 339 337 337 332 329 334 316 316 316 316 317 318 318
319 319 318 319 318 316 316 318 319 317 317 319 318 330 333 338 339 340 337 335 337 343 344 344 344 340 332 329 325 323 334 332 330 331 333 334 339 338 331 326 328 330 317 317 318 318 319 319 319
316 317 316 320 318 316 314 316 315 315 316 317 316 319 330 337 333 333 334 336 339 341 343 344 343 340 331 328 324 330 336 332 331 333 333 334 339 335 323 328 329 324 318 318 319 319 320 320 320
314 313 315 314 313 312 313 316 313 313 313 314 316 315 318 333 336 335 337 337 337 340 344 344 344 339 334 331 324 334 337 330 332 335 332 337 340 334 320 328 330 319 319 319 320 321 321 320 320
311 311 313 314 316 315 313 313 313 313 312 314 314 314 317 325 333 332 332 334 335 336 341 341 342 338 335 330 326 336 338 328 334 335 334 339 339 335 321 322 333 323 320 320 321 321 321 321 320
310 310 311 312 312 312 312 310 312 311 312 313 313 313 315 323 330 332 332 332 332 333 335 338 341 338 334 330 332 336 338 330 334 333 338 340 339 333 333 332 334 324 321 322 322 321 320 320 319
309 308 309 309 309 308 308 309 309 309 309 310 311 313 319 326 328 329 330 331 330 329 332 335 340 337 335 331 331 337 338 333 333 334 340 340 339 331 331 334 335 329 321 323 322 321 320 319 318
309 309 309 309 309 309 310 309 308 308 308 309 310 312 313 316 326 327 325 327 330 329 330 331 333 335 336 330 330 329 336 336 336 337 340 339 338 332 330 337 334 334 324 322 322 321 319 319 320
306 307 307 308 308 308 307 307 307 307 307 308 309 310 312 315 322 330 325 323 324 326 328 328 327 330 334 325 329 327 330 338 337 338 340 338 335 330 334 336 333 330 321 322 322 321 319 320 321
307 307 308 308 308 308 307 307 307 307 307 307 308 308 310 312 315 320 327 327 327 326 325 327 327 325 324 323 328 328 329 337 339 338 338 332 323 328 334 332 326 322 321 322 321 320 321 321 320
307 308 308 308 308 309 310 310 307 307 307 307 307 308 308 311 313 318 321 325 326 327 326 327 326 324 323 322 325 327 331 331 337 337 334 328 321 324 328 325 321 321 321 321 321 321 321 322 320
308 308 309 308 308 309 310 310 309 308 307 307 307 307 307 310 312 317 320 321 324 325 327 327 325 325 326 324 325 328 331 331 334 333 330 329 329 328 327 322 321 321 320 322 323 323 323 324 327
307 308 308 309 309 309 309 308 308 308 308 307 307 307 307 308 312 316 321 322 323 324 328 328 327 327 327 328 328 331 329 328 330 330 331 330 331 331 325 324 321 321 323 324 322 322 324 327 330
307 305 307 309 310 310 310 310 309 309 308 307 307 307 307 309 315 316 319 322 323 324 327 326 327 331 327 328 329 326 328 330 331 330 331 331 331 328 329 327 326 323 322 321 321 322 324 327 328
309 308 309 310 311 311 312 313 312 310 309 308 310 310 309 312 315 315 317 323 323 323 322 325 328 329 326 326 324 328 329 329 329 332 331 331 330 328 328 326 323 322 323 322 322 324 326 326 325
308 309 309 309 310 313 313 313 312 310 311 310 309 311 312 314 316 316 319 323 323 326 326 324 326 327 326 325 326 329 331 330 329 329 330 330 327 325 325 324 327 327 327 326 326 326 327 327 327
309 311 310 310 312 313 313 313 311 310 310 311 311 313 312 313 318 320 323 322 323 326 324 326 326 326 325 325 327 328 327 327 329 329 329 327 327 328 327 326 329 330 330 330 330 329 328 327 327
312 312 310 312 311 312 313 315 313 312 312 310 313 313 314 315 317 321 322 322 324 324 325 327 326 326 322 325 328 326 323 322 324 323 328 331 331 332 330 330 331 331 330 331 331 331 330 329 328
314 311 313 315 315 316 313 315 315 313 312 313 312 314 315 315 319 322 323 323 324 325 324 324 328 325 323 326 327 328 327 324 325 326 325 328 330 330 332 332 331 330 331 332 332 331 330 331 329
313 313 314 314 317 314 315 317 318 314 314 314 311 313 315 318 321 322 322 321 324 324 325 324 326 323 326 325 327 328 328 329 328 327 327 326 327 328 329 328 329 329 329 328 330 328 329 328 329
313 314 314 315 316 319 319 319 317 314 313 313 316 316 319 321 322 322 322 320 323 324 324 326 326 326 326 327 327 327 327 327 327 327 328 326 327 328 328 328 326 326 324 328 327 326 326 326 328
313 315 315 319 320 321 317 318 315 310 314 314 320 322 322 322 321 321 322 322 325 326 326 325 325 325 325 326 326 326 325 326 325 325 326 327 328 327 327 327 328 328 327 326 326 325 326 327 326
314 316 318 319 323 323 317 316 312 310 319 318 318 317 320 321 321 321 321 321 323 322 323 324 324 324 324 324 325 325 325 324 325 325 325 324 325 324 324 324 325 326 325 326 326 325 327 325 325
316 318 315 317 319 320 318 313 311 312 315 316 316 316 315 315 317 317 319 320 321 321 322 321 322 323 322 322 324 324 324 325 325 325 327 327 325 324 324 324 325 324 324 325 326 325 324 323 324
313 314 317 316 319 322 319 317 315 312 316 315 314 314 314 315 315 316 316 316 317 318 317 316 317 317 317 318 321 324 325 325 326 329 326 326 326 326 325 326 326 325 326 326 326 326 325 325 324
314 315 315 313 314 320 318 318 311 315 314 313 311 311 313 313 313 314 314 314 315 315 316 316 317 317 318 318 320 321 322 323 324 325 326 326 325 325 325 325 325 326 326 328 328 327 327 325 325
312 314 312 312 315 312 312 317 314 313 312 311 310 309 309 309 309 309 310 309 309 309 310 311 311 312 314 315 316 316 316 316 316 317 317 318 318 318 319 320 320 322 325 326 327 327 326 327 326

GFSSGP_850_thetae_108.txt.gz
Theta_e
311 321 324 327 325 322 324 326 324 324 323 323 324 321 320 324 335 335 345 345 344 345 337 329 329 328 327 326 326 328 331 333 334 334 332 338 340 336 325 335 339 339 338 324 332 331 318 319 321
313 323 324 324 320 324 319 322 324 321 322 321 321 321 330 336 344 343 345 344 344 345 343 335 329 327 326 325 325 324 325 330 333 335 333 333 341 333 328 338 338 337 326 317 320 319 319 320 324
319 323 323 320 318 322 320 318 318 319 320 320 320 320 331 342 343 342 340 339 340 345 345 342 333 331 331 329 327 326 325 329 330 334 334 332 340 334 329 335 338 325 319 316 318 318 318 320 324
315 321 321 319 321 319 319 318 318 317 318 318 318 318 329 342 342 341 341 339 339 342 344 342 340 336 335 332 328 326 324 331 330 331 335 333 340 336 335 331 339 325 315 316 316 316 316 316 319
318 318 315 318 319 317 316 317 317 315 315 316 316 316 318 338 342 339 338 335 337 341 343 342 343 342 338 333 328 325 321 330 330 329 335 333 339 337 337 329 333 324 315 316 317 317 318 318 321
316 316 316 317 316 315 313 315 313 313 313 313 314 316 317 318 337 339 337 336 337 339 343 342 343 343 336 331 327 322 327 331 330 326 334 332 338 338 337 328 325 323 316 317 318 319 319 319 320
313 312 313 315 314 313 313 314 312 311 311 312 313 311 315 319 333 335 337 337 336 338 340 342 343 342 335 330 327 326 332 332 331 329 334 333 337 339 333 322 325 321 317 318 319 319 319 320 320
312 310 312 313 314 314 313 312 312 311 310 312 312 310 312 316 328 333 334 336 336 334 333 340 341 341 336 334 332 334 335 336 330 332 335 334 338 337 328 321 322 321 318 318 320 320 320 320 320
310 308 310 311 311 312 310 307 309 309 309 309 310 311 317 328 328 333 333 334 334 334 332 336 337 339 336 334 331 334 338 336 330 333 336 334 339 335 328 322 324 320 319 319 320 321 321 320 320
308 306 308 308 308 308 308 308 309 308 308 308 308 310 311 312 321 329 330 333 334 333 332 332 334 335 337 333 332 337 338 336 329 335 335 336 338 335 330 328 332 320 320 320 321 321 320 319 319
308 308 307 308 308 309 309 309 308 307 307 308 307 308 308 310 314 319 329 330 332 331 332 331 331 333 336 335 330 333 336 337 333 334 333 336 338 337 331 329 333 328 321 321 321 320 319 318 318
306 306 308 307 307 307 307 306 306 306 306 307 307 307 307 308 310 313 325 329 329 328 331 330 331 331 333 334 332 328 329 331 336 333 334 337 339 337 330 331 333 327 321 321 321 320 319 319 320
306 306 307 307 307 308 308 308 307 306 307 307 307 307 307 307 308 311 313 320 327 328 329 330 329 331 331 332 331 333 330 329 330 335 335 338 339 338 331 333 334 330 323 321 321 320 319 319 320
306 306 307 307 307 307 308 308 308 309 308 308 307 307 307 307 308 309 313 318 323 327 327 326 326 327 327 326 325 326 324 328 329 337 336 338 338 338 332 331 333 332 322 321 321 320 319 320 320
307 307 307 308 308 308 308 309 309 308 309 309 308 308 308 307 307 308 311 314 320 321 324 324 325 326 325 325 324 324 325 325 328 333 338 338 337 330 331 326 329 327 322 322 321 320 322 322 322
307 306 306 307 308 309 308 308 307 308 308 308 308 308 308 308 307 307 310 313 320 321 321 322 324 326 325 326 326 325 325 327 329 328 334 336 330 323 325 325 323 322 322 322 322 323 321 322 325
304 302 305 308 309 309 308 309 309 310 309 308 307 308 308 307 307 307 311 315 320 320 321 323 326 327 327 327 328 326 325 326 325 329 330 332 328 324 327 321 326 322 322 322 322 322 322 324 325
306 305 307 307 308 308 310 310 310 311 311 309 308 307 307 307 307 308 309 313 317 320 322 322 325 325 327 329 327 328 328 326 330 328 329 331 328 325 325 326 324 324 325 324 322 322 323 323 326
306 307 308 308 308 309 311 311 312 311 311 309 308 308 309 309 307 308 310 315 316 323 323 323 323 324 326 328 327 329 331 329 326 326 330 331 331 331 330 328 328 327 324 323 322 323 322 325 326
308 310 310 309 309 310 311 312 312 311 310 310 309 309 309 309 308 311 314 316 318 322 322 324 324 324 327 326 326 325 326 327 328 328 328 330 331 330 330 329 329 327 324 324 323 323 325 327 327
312 310 310 309 310 312 311 313 311 311 310 310 309 310 312 313 311 313 318 319 321 323 323 325 325 325 327 326 325 325 326 328 325 327 328 329 329 330 328 327 326 325 326 326 327 327 327 327 327
313 311 312 314 315 315 312 316 314 312 311 311 312 311 313 314 314 315 317 319 323 323 323 324 324 326 326 326 325 326 328 329 328 328 327 328 328 328 325 324 324 326 328 330 330 330 330 329 328
313 311 312 312 313 314 315 316 312 312 313 311 310 312 313 314 315 316 321 321 322 321 324 324 323 322 324 326 325 326 327 327 326 327 327 327 327 327 329 329 328 330 332 330 329 328 328 327 327
312 313 313 313 315 316 317 317 317 314 313 311 310 314 313 316 317 321 321 320 322 322 323 325 323 325 326 324 327 328 325 324 324 324 323 323 324 327 328 329 330 328 327 328 328 327 327 327 327
313 314 312 314 317 317 318 318 315 312 311 311 314 318 319 319 321 321 321 322 322 324 324 324 324 324 326 325 326 327 327 326 325 324 324 323 323 324 325 326 325 327 327 325 324 323 325 326 326
313 314 316 318 320 318 316 316 314 309 318 318 317 316 318 320 320 320 320 320 323 322 324 325 325 326 326 325 325 325 326 325 325 324 324 324 324 324 324 324 326 327 326 326 326 327 326 325 325
315 318 314 316 317 319 318 313 309 309 315 316 315 315 315 316 318 318 318 321 321 321 322 322 322 322 323 323 323 324 322 323 324 324 322 322 325 325 325 324 324 324 324 326 325 324 324 326 325
313 313 318 316 320 320 317 317 313 310 314 314 315 314 314 315 315 315 318 319 319 320 320 321 321 321 322 321 323 323 323 323 323 322 324 325 326 327 326 325 323 323 325 325 324 325 325 325 325
315 316 316 314 314 318 317 318 309 311 312 311 313 312 312 313 313 314 314 315 316 316 317 317 318 318 318 319 321 322 323 324 326 326 327 327 327 326 327 327 326 326 326 326 326 326 326 326 325
312 314 313 313 315 312 313 316 311 311 311 310 309 309 308 311 308 308 309 309 310 311 312 313 314 315 316 316 316 317 317 317 318 318 318 318 318 318 318 319 321 323 324 324 326 326 325 326 325

GFSSGP_850_thetae_111.txt.gz
Theta_e
311 321 327 327 322 320 322 323 324 324 322 320 321 320 319 321 322 330 343 344 344 337 333 330 333 333 333 332 333 333 335 333 332 332 332 334 337 335 323 338 339 337 334 335 337 325 317 320 324
319 321 326 324 318 318 312 319 323 322 321 319 320 319 321 328 338 340 344 344 343 341 331 327 330 332 332 331 331 331 332 333 334 333 333 338 338 331 330 338 340 339 326 326 329 316 317 319 320
319 323 322 319 316 319 315 317 318 318 317 317 318 318 322 335 343 340 342 343 344 343 337 330 328 330 327 326 326 326 328 331 332 334 332 334 339 330 333 338 339 332 322 317 316 318 318 321 322
321 322 319 317 320 317 316 317 317 316 317 317 315 315 318 323 342 342 340 338 344 345 340 336 330 328 327 327 326 325 326 329 330 334 333 333 340 332 334 337 336 323 315 318 318 319 320 321 321
318 317 313 317 317 317 315 317 315 314 314 314 313 314 315 324 336 341 341 339 337 342 344 339 332 331 332 332 329 327 325 332 329 330 335 333 339 336 330 333 336 318 315 317 317 317 318 318 320
316 315 312 313 314 315 314 316 313 312 311 312 312 312 314 315 336 338 338 337 338 344 343 341 339 336 336 335 331 327 324 324 329 330 333 334 337 339 335 330 335 318 315 316 316 317 317 319 321
312 311 312 313 313 314 313 313 311 310 309 311 312 311 313 314 321 337 334 335 336 338 342 342 342 342 341 336 330 326 322 325 330 330 331 334 335 339 337 330 328 319 315 316 317 318 318 319 320
313 309 312 311 312 312 312 310 311 310 309 310 310 309 312 315 322 330 334 334 334 334 337 341 343 343 338 333 330 327 332 329 332 331 330 334 335 338 337 332 326 323 316 317 318 319 319 319 321
309 308 309 311 312 312 308 307 308 309 309 308 309 310 315 313 315 327 336 335 334 334 334 336 338 340 340 334 332 327 333 335 333 332 331 334 335 339 338 332 323 326 317 318 319 319 320 320 320
307 305 307 308 308 308 308 308 308 308 308 307 308 309 310 312 313 316 323 332 334 333 332 332 333 336 338 337 333 331 333 336 336 332 333 335 335 339 337 331 321 324 318 318 320 320 320 320 320
307 307 306 307 308 308 308 307 307 307 306 307 308 307 308 309 310 311 315 324 330 333 334 332 331 332 336 337 335 332 328 338 336 332 334 336 336 337 332 331 325 322 319 319 320 321 320 319 319
306 306 307 307 307 307 306 306 306 306 306 306 306 307 307 307 309 310 312 315 320 330 333 332 331 334 334 335 335 333 328 337 336 331 335 336 336 334 333 332 326 321 319 320 321 321 320 318 318
306 306 307 307 307 307 307 307 307 307 307 306 306 307 307 307 306 308 310 312 315 325 329 331 331 332 333 334 334 332 327 331 333 333 333 335 336 335 335 335 327 324 321 320 321 320 320 318 319
305 306 306 306 307 307 307 307 306 307 307 307 307 307 307 307 307 306 308 311 313 320 327 327 330 331 331 332 333 331 331 329 328 326 329 333 334 334 336 336 327 328 324 322 322 321 320 318 320
306 306 305 306 307 308 308 307 307 307 307 307 307 308 308 308 308 307 307 309 312 318 323 326 326 326 327 330 330 328 326 329 331 325 328 332 334 335 336 336 330 327 326 322 323 322 321 319 320
305 305 305 306 308 308 308 308 306 308 308 307 308 309 309 308 308 307 307 307 311 314 319 323 324 324 324 325 326 326 325 324 324 326 327 331 334 334 336 336 333 326 330 324 323 322 320 320 322
303 301 303 306 307 308 307 307 307 308 309 308 309 309 310 309 308 307 307 307 308 313 319 320 320 321 322 325 325 325 325 326 325 325 328 329 333 336 336 336 330 329 328 325 322 322 322 322 322
305 304 305 306 306 307 307 307 307 308 309 309 310 310 310 310 308 308 307 307 308 313 319 320 321 323 324 325 326 326 328 326 326 324 327 329 332 333 334 331 329 328 326 324 324 322 325 324 322
305 307 307 307 307 308 308 308 308 309 310 310 310 310 310 309 310 309 308 307 308 311 317 318 321 322 325 326 325 325 326 327 328 326 326 329 330 331 327 325 322 325 329 322 323 323 325 324 324
307 309 309 308 308 308 309 310 310 310 309 310 310 310 309 309 310 310 309 307 309 313 316 318 321 323 323 324 326 327 327 327 328 326 327 329 326 327 330 323 319 320 322 322 325 324 324 324 325
309 310 310 310 309 310 311 310 310 310 310 310 309 309 309 310 312 310 308 309 313 314 316 321 322 323 324 324 326 327 326 327 329 328 329 328 328 328 326 326 323 326 326 326 325 325 324 325 325
311 309 311 311 314 313 311 313 310 310 310 309 310 311 312 311 311 313 312 313 318 316 318 323 323 325 325 324 326 326 325 326 327 327 328 329 328 327 324 329 328 326 328 327 324 326 325 325 327
311 311 312 312 314 312 313 315 310 310 311 310 308 310 312 313 313 314 314 315 317 318 321 323 325 324 324 325 325 326 326 326 325 326 326 328 328 329 329 328 328 328 328 326 327 328 329 329 328
311 312 313 312 314 316 313 315 306 313 313 312 309 311 314 314 313 315 315 316 317 319 320 321 324 324 323 323 322 324 326 325 326 326 325 327 328 327 327 327 327 325 324 323 324 327 328 328 328
312 315 310 310 312 315 317 318 312 312 309 313 311 313 318 318 318 319 319 318 320 320 321 321 324 323 320 321 325 326 325 326 326 326 326 327 327 326 326 326 326 325 324 325 326 326 327 327 326
313 314 316 316 313 315 316 317 315 309 315 316 316 315 316 316 316 317 321 320 319 321 320 320 324 324 323 325 326 326 326 325 325 324 324 324 323 324 324 324 325 325 325 325 325 325 325 324 324
314 317 314 316 315 318 317 314 310 308 314 315 315 315 315 317 316 315 316 314 320 322 321 324 324 323 324 323 323 323 323 325 325 324 324 323 324 323 322 322 323 325 325 325 325 325 325 326 326
312 313 317 316 319 321 318 316 311 309 309 314 314 313 311 315 316 316 318 317 318 320 320 320 321 321 322 323 321 322 322 322 324 324 323 323 324 325 326 325 325 325 324 324 324 325 325 325 325
315 316 316 316 313 317 318 317 308 308 308 312 310 311 309 309 310 312 313 315 317 318 318 319 319 318 319 321 322 323 324 323 323 323 323 323 324 325 325 326 326 326 325 324 324 325 325 324 324
313 314 313 314 316 310 313 315 308 309 309 309 308 309 307 307 307 307 307 308 310 312 314 315 316 317 317 317 317 317 319 320 321 322 322 321 320 319 318 319 321 324 325 325 325 325 326 326 325

GFSSGP_850_thetae_114.txt.gz
Theta_e
310 321 326 327 320 316 319 319 322 322 321 319 318 319 319 320 321 324 338 343 341 342 339 340 336 337 336 335 334 335 333 331 330 331 331 332 336 335 325 336 330 337 339 338 325 323 333 325 322
317 324 326 322 316 314 309 317 321 322 320 317 318 317 319 322 325 332 342 343 343 339 336 335 335 335 337 335 333 335 335 333 331 331 331 333 337 331 334 339 339 335 335 336 322 320 320 319 318
320 325 322 315 314 313 310 315 318 317 316 316 316 316 319 331 340 342 344 344 343 338 333 330 333 334 336 335 333 332 333 333 333 332 333 337 337 329 334 339 339 333 327 318 316 316 317 319 322
322 322 319 316 318 315 313 316 316 314 316 315 313 314 316 325 330 341 343 343 343 339 333 329 329 331 332 331 329 329 330 331 333 334 334 336 338 331 336 338 338 328 318 316 316 317 319 321 321
320 317 312 315 315 315 314 315 314 314 313 313 312 313 313 316 324 338 340 341 342 343 336 332 330 330 328 326 325 324 324 326 327 333 334 336 339 336 335 336 336 322 317 317 318 318 320 320 320
314 312 307 310 312 312 312 316 314 312 311 312 311 311 313 313 323 337 339 338 339 344 342 334 331 329 328 328 328 327 326 325 327 327 333 334 337 336 335 334 335 318 317 317 318 318 318 319 320
311 308 309 310 312 313 312 312 312 310 309 311 311 310 313 313 317 330 336 336 336 336 342 340 335 330 331 333 332 329 327 325 326 328 328 335 335 339 336 332 335 318 315 316 317 317 318 319 320
313 307 311 310 310 310 309 309 309 309 309 310 310 308 311 314 317 323 335 333 335 334 336 340 340 337 336 337 335 331 328 323 330 330 330 333 335 338 339 333 328 323 315 316 317 318 318 319 319
310 307 307 309 311 310 307 307 308 308 308 308 310 309 312 313 314 318 331 334 333 334 333 335 337 339 341 341 336 330 328 324 332 331 331 333 335 335 339 336 330 326 315 316 318 318 318 319 319
305 303 305 307 307 307 307 307 307 308 307 307 308 308 309 310 311 312 316 325 334 335 334 333 332 334 335 338 337 332 327 328 330 333 333 329 334 334 337 338 332 325 317 317 318 319 319 319 319
306 305 305 307 307 307 306 306 306 307 305 306 307 307 308 308 309 310 310 312 321 328 334 333 332 332 332 334 337 333 331 329 333 334 333 333 334 335 334 338 333 325 324 317 318 319 319 319 319
305 305 306 306 306 306 306 306 306 306 305 305 305 306 306 306 306 308 309 309 313 320 328 333 333 332 332 333 334 334 333 331 333 336 333 333 335 336 335 337 334 327 323 318 318 320 320 320 319
305 305 306 306 306 306 306 306 306 306 305 305 305 306 306 306 306 306 307 309 310 315 323 329 332 333 332 334 334 334 333 331 331 331 334 330 334 336 335 335 332 331 324 319 319 320 320 319 318
305 305 305 306 306 306 306 306 306 306 306 306 306 306 307 307 307 307 306 307 309 312 317 326 329 332 332 332 332 332 333 330 331 333 332 331 331 334 334 333 333 333 328 322 321 321 321 319 318
306 305 304 305 306 306 307 306 306 308 307 307 308 308 309 309 309 308 308 306 307 310 313 320 327 328 330 331 331 331 331 329 330 329 329 328 327 331 333 334 332 334 330 326 325 323 322 320 319
304 302 303 304 307 307 307 308 305 307 307 307 308 308 309 309 310 309 308 307 306 308 310 316 323 326 326 328 329 331 331 331 328 327 329 329 326 328 334 332 332 333 331 329 327 324 322 321 319
301 302 303 305 306 307 307 307 306 308 308 307 307 308 309 311 311 310 309 307 307 307 308 312 318 323 325 325 325 326 330 327 325 325 324 324 324 327 333 333 333 333 334 331 329 326 323 322 320
305 304 305 305 305 307 307 307 306 307 307 307 307 309 309 311 311 311 310 307 307 306 308 311 316 320 322 322 323 324 325 325 325 325 325 325 324 326 331 334 333 333 334 332 331 326 324 323 321
306 306 307 307 306 307 307 307 307 308 308 307 308 308 309 311 309 310 309 308 307 307 306 310 316 319 320 322 323 324 324 325 326 326 326 326 325 326 329 332 333 334 334 324 330 330 327 323 323
306 307 306 306 307 307 308 309 309 309 309 309 309 309 310 310 309 310 310 309 309 307 307 310 316 319 319 321 322 324 324 325 325 325 326 326 327 326 328 332 332 331 328 322 323 326 327 324 326
306 306 307 309 308 308 309 308 307 309 310 310 310 309 309 309 309 310 311 310 309 307 307 310 313 317 319 320 322 323 325 325 326 325 327 328 327 326 328 329 329 329 327 322 323 323 326 324 325
308 307 309 310 312 314 311 312 308 308 308 308 309 310 310 311 312 311 311 311 307 308 309 311 314 315 318 321 322 323 323 326 326 325 326 328 326 328 329 326 328 325 322 319 318 319 323 326 326
310 310 310 311 313 313 312 313 310 310 310 311 309 309 311 313 313 313 313 313 312 312 314 311 315 318 322 322 324 324 325 326 325 326 327 328 328 327 328 328 325 326 324 318 319 323 322 324 325
308 310 311 311 315 314 311 314 309 314 311 310 311 312 314 317 314 314 313 314 314 314 316 316 317 322 323 324 325 325 326 326 325 326 325 327 326 327 328 329 325 327 326 324 325 325 325 326 326
311 314 308 307 314 312 316 318 315 312 310 315 316 316 316 315 315 317 317 316 315 315 315 318 319 321 323 323 322 322 323 324 325 326 325 325 326 327 328 328 329 327 324 324 325 324 324 324 325
313 314 314 312 312 314 315 315 314 310 309 315 316 315 312 314 312 314 317 319 318 317 318 319 320 321 322 323 324 327 327 326 325 325 325 327 326 326 326 326 326 325 325 324 324 325 324 324 324
314 317 314 316 314 317 316 314 312 308 308 313 312 312 312 313 309 309 313 317 319 318 319 320 320 322 323 324 324 324 326 326 325 325 325 324 325 325 325 325 325 325 325 324 324 323 324 325 324
312 313 317 316 318 319 318 315 311 308 307 308 311 309 309 310 314 310 309 314 317 319 320 321 323 323 322 322 322 323 323 324 324 323 323 322 323 322 323 323 322 323 323 324 324 325 324 324 324
315 316 316 316 314 317 317 315 307 306 307 307 309 307 307 307 308 312 313 313 316 316 317 317 317 319 322 321 323 323 322 324 324 323 322 322 324 324 325 325 326 325 324 325 324 324 324 324 324
312 314 314 313 316 311 313 315 310 308 309 308 307 307 307 307 307 307 308 310 311 311 315 315 315 317 318 319 318 319 320 321 323 323 323 323 322 320 319 320 322 324 324 323 325 324 324 323 322

GFSSGP_850_thetae_117.txt.gz
Theta_e
320 324 327 326 322 320 320 318 323 323 323 318 317 318 320 319 322 329 337 343 343 343 341 339 337 338 338 337 334 333 333 333 333 335 332 331 334 335 326 328 329 337 338 328 332 333 326 327 322
317 324 326 321 320 316 313 318 323 323 319 317 317 316 318 323 334 339 342 344 343 343 342 341 336 336 337 337 335 334 334 331 330 330 330 331 334 332 330 334 339 340 338 331 331 320 322 319 317
321 325 321 317 316 314 312 314 320 317 315 315 315 315 319 325 330 336 341 343 344 342 341 342 337 335 337 335 334 334 334 333 331 330 330 332 336 331 338 338 338 335 335 325 317 317 317 318 317
323 323 318 320 317 316 312 316 316 315 315 313 312 315 318 314 320 328 339 342 343 342 339 339 336 335 336 335 333 333 334 333 332 333 335 337 337 333 337 338 337 333 323 317 315 317 319 321 320
322 317 315 315 315 316 315 315 314 315 313 313 312 313 313 314 318 332 339 340 343 343 336 334 334 335 335 333 331 331 330 331 331 333 334 334 337 336 337 339 337 329 317 315 317 319 321 321 320
313 309 310 311 312 312 313 314 314 312 312 312 311 311 313 313 316 333 339 339 340 341 339 332 337 333 333 333 330 328 327 327 328 330 333 333 335 337 337 336 336 325 316 316 318 319 320 320 319
311 308 307 307 310 312 312 310 312 311 309 311 310 311 312 312 315 326 337 337 336 338 340 340 336 331 330 327 327 327 327 326 328 328 331 334 334 338 337 336 335 323 316 317 318 318 318 319 320
312 308 311 311 311 310 308 309 308 308 310 309 310 311 312 314 314 316 330 334 335 335 336 340 339 337 329 329 330 330 329 327 329 331 330 332 335 336 338 335 334 328 315 317 317 318 318 319 319
311 308 309 309 310 309 307 308 308 308 308 308 309 309 310 311 312 314 321 332 335 335 334 335 339 338 337 334 335 335 333 328 325 329 331 332 334 335 337 337 332 331 315 316 316 317 318 319 319
306 305 306 306 308 307 307 307 307 307 307 307 308 309 310 310 310 311 313 319 329 334 335 334 335 336 337 337 339 338 334 329 324 331 331 332 332 335 335 338 335 329 322 315 316 317 318 319 319
305 306 305 306 307 306 306 305 306 306 306 306 306 306 307 307 307 308 309 311 315 326 332 334 333 333 332 333 334 335 335 332 330 327 332 332 330 334 334 336 337 334 327 317 316 318 318 319 319
305 305 306 306 306 306 306 306 306 306 305 305 305 305 305 305 305 305 306 308 310 313 324 330 333 333 332 332 332 334 335 333 332 332 332 333 331 333 335 335 336 336 330 324 317 318 318 319 320
305 305 305 305 305 305 305 305 306 305 305 305 305 305 305 305 306 305 305 306 308 310 316 324 329 332 333 332 331 333 334 333 332 332 335 335 332 332 334 335 333 336 334 325 320 318 320 320 320
305 305 305 305 305 305 306 306 305 306 306 306 306 307 307 308 308 307 308 306 306 308 311 316 323 328 332 333 332 333 333 333 332 333 331 333 331 330 331 334 335 335 334 330 326 318 320 321 321
305 305 304 305 306 306 307 307 307 307 306 307 307 308 308 308 308 309 309 309 309 306 308 310 316 325 330 332 332 332 332 332 332 331 331 331 332 331 332 333 333 333 334 333 331 326 322 322 321
304 302 305 304 306 307 306 309 306 306 307 307 308 308 308 309 308 309 310 310 310 308 306 309 312 321 328 331 331 331 332 331 332 330 329 329 329 329 328 331 332 333 334 332 333 328 328 324 322
302 305 305 306 305 306 307 308 306 307 307 307 307 308 309 310 309 309 310 310 310 309 306 307 309 315 325 327 330 331 332 332 331 329 331 326 325 325 325 327 331 334 334 333 333 331 329 327 324
306 305 305 306 305 306 307 307 307 306 307 307 307 307 308 309 310 310 310 310 310 308 307 306 307 310 318 325 326 327 329 329 330 330 330 325 325 325 324 324 327 333 334 333 333 329 321 323 325
305 305 306 305 306 306 307 308 308 308 308 308 308 308 309 310 310 310 310 309 310 308 307 306 306 308 312 318 325 325 324 324 325 326 325 325 325 325 326 326 325 327 332 333 334 332 325 322 326
305 306 306 306 306 307 308 309 309 309 308 309 309 309 310 310 310 310 309 309 309 308 308 307 306 307 309 319 322 322 322 322 322 323 324 325 325 325 326 326 325 328 332 334 332 332 324 323 323
305 306 306 307 307 309 310 310 307 308 309 309 310 310 311 310 310 310 309 309 310 310 309 307 306 306 309 316 320 321 323 323 324 323 324 324 325 325 326 328 327 329 329 329 332 330 325 323 321
308 305 307 308 312 313 310 315 309 309 310 309 310 310 311 311 311 311 312 311 310 310 309 308 307 307 309 315 317 322 321 322 320 322 324 325 325 326 330 327 326 327 329 329 330 327 323 321 319
309 309 309 310 313 313 312 315 311 311 312 310 310 310 313 314 315 314 312 312 313 309 307 307 307 308 310 313 316 321 323 322 323 324 325 325 326 328 326 328 327 329 328 326 327 327 322 322 321
307 309 310 310 311 316 311 313 311 314 311 310 311 315 315 312 312 315 314 313 313 313 312 312 313 310 311 314 317 322 322 323 324 326 325 325 326 326 327 328 328 327 327 322 321 322 321 320 319
310 312 308 308 315 312 312 317 314 311 310 310 316 313 313 311 311 311 315 316 314 314 314 314 315 311 313 315 321 321 324 323 324 325 326 325 326 326 325 327 327 327 328 325 322 318 319 320 321
312 313 311 312 313 313 314 314 313 309 308 308 310 309 310 310 308 308 313 317 319 315 314 315 315 316 317 321 322 322 322 321 322 323 324 325 325 325 325 327 327 328 327 324 324 322 321 324 324
314 316 313 316 314 316 314 314 312 308 307 308 308 308 308 308 307 307 309 317 317 317 316 317 318 319 319 320 321 320 322 324 326 324 324 325 325 326 326 325 326 325 324 324 325 325 324 322 323
313 312 317 315 317 316 316 314 312 308 307 307 309 308 307 307 306 306 307 314 317 317 316 319 318 319 320 321 321 324 324 325 325 325 325 325 323 324 324 324 325 325 324 324 324 322 322 323 324
315 315 315 316 316 317 316 312 309 308 308 308 308 307 306 306 306 307 308 311 311 313 315 317 319 321 322 322 322 323 324 324 323 323 323 323 324 324 324 324 324 323 323 324 323 323 323 323 324
312 314 314 315 317 313 313 315 311 310 309 308 308 307 306 306 306 307 307 308 308 310 311 312 313 314 316 316 320 320 320 322 323 323 323 323 322 322 321 320 322 322 323 324 324 323 324 324 323